[[{"header":{"parameterUnit":"m.s-1","parameterCategory":1,"la1":31.0,"la2":29.5877,"lo1":-88.7671,"lo2":-86.6584,"dy":0.0162,"dx":0.0185,"nx":115,"ny":88,"refTime":"2026-03-19T00:00:00:Z","depth":0,"parameterNumber":2,"parameterNumberName":"U-component_of_WINDS"},"data":[0.0,0.0,0.0,0.0,0.0,0.0,0.0,0.0,0.0,0.0,0.0,0.0,0.0,0.0,0.0,0.0,0.0,0.0,0.0,0.0,0.0,0.0,0.0,0.0,0.0,0.0,0.0,0.0,0.0,0.0,0.0,0.0,0.0,0.0,0.0,0.0,0.0,0.0,0.0,0.0,0.0,0.0,0.0,0.0,0.0,0.0,0.0,0.0,0.0,0.0,0.0,0.0,0.0,0.0,0.0,0.0,0.0,0.0,0.0,0.0,0.0,0.0,0.0,0.0,0.0,0.0,0.0,0.0,0.0,0.0,0.0,0.0,0.0,0.0,0.0,0.0,0.0,0.0,0.0,0.0,0.0,0.0,0.0,0.0,0.0,0.0,0.0,0.0,0.0,0.0,0.0,0.0,0.0,0.0,0.0,0.0,0.0,0.0,0.0,0.0,0.0,0.0,0.0,0.0,0.0,0.0,0.0,0.0,0.0,0.0,0.0,0.0,0.0,0.0,0.0,0.0,0.0,0.0,0.0,0.0,0.0,0.0,0.0,0.0,0.0,0.0,0.0,0.0,0.0,0.0,0.0,0.0,0.0,0.0,0.0,0.0,0.0,0.0,0.0,0.0,0.0,0.0,0.0,0.0,0.0,0.0,0.0,0.0,0.0,0.0,0.0,0.0,0.0,0.0,0.0,0.0,0.0,0.0,0.0,0.0,0.0,0.0,0.0,0.0,0.0,0.0,0.0,0.0,0.0,0.0,0.0,0.0,0.0,0.0,0.0,0.0,0.0,0.0,0.0,0.0,0.0,0.0,0.0,0.0,0.0,0.0,0.0,0.0,0.0,0.0,0.0,0.0,0.0,0.0,0.0,0.0,0.0,0.0,0.0,0.0,0.0,0.0,0.0,0.0,0.0,0.0,0.0,0.0,0.0,0.0,0.0,0.0,0.0,0.0,0.0,0.0,0.0,0.0,0.0,0.0,0.0,0.0,0.0,0.0,0.0,0.0,0.0,0.0,0.0,0.0,0.0,0.0,0.0,0.0,0.0,0.0,0.0,0.0,0.0,0.0,0.0,0.0,0.0,0.0,0.0,0.0,0.0,0.0,0.0,0.0,0.0,0.0,0.0,0.0,0.0,0.0,0.0,0.0,0.0,0.0,0.0,0.0,0.0,0.0,0.0,0.0,0.0,0.0,0.0,0.0,0.0,0.0,0.0,0.0,0.0,0.0,0.0,0.0,0.0,0.0,0.0,0.0,0.0,0.0,0.0,0.0,0.0,0.0,0.0,0.0,0.0,0.0,0.0,0.0,0.0,0.0,0.0,0.0,0.0,0.0,0.0,0.0,0.0,0.0,0.0,0.0,0.0,0.0,0.0,0.0,0.0,0.0,0.0,0.0,0.0,0.0,0.0,0.0,0.0,0.0,0.0,0.0,0.0,0.0,0.0,0.0,0.0,0.0,0.0,0.0,0.0,0.0,0.0,0.0,0.0,0.0,0.0,0.0,0.0,0.0,0.0,0.0,0.0,0.0,0.0,0.0,0.0,0.0,0.0,0.0,0.0,0.0,0.0,0.0,0.0,0.0,0.0,0.0,0.0,0.0,0.0,0.0,0.0,0.0,0.0,0.0,0.0,0.0,0.0,0.0,0.0,0.0,0.0,0.0,0.0,0.0,0.0,0.0,0.0,0.0,0.0,0.0,0.0,0.0,0.0,0.0,0.0,0.0,0.0,0.0,0.0,0.0,0.0,0.0,0.0,0.0,0.0,0.0,0.0,0.0,0.0,0.0,0.0,0.0,0.0,0.0,0.0,0.0,0.0,0.0,0.0,0.0,0.0,0.0,0.0,0.0,0.0,0.0,0.0,0.0,0.0,0.0,0.0,0.0,0.0,0.0,0.0,0.0,0.0,0.0,0.0,0.0,0.0,0.0,0.0,0.0,0.0,0.0,0.0,0.0,0.0,0.0,0.0,0.0,0.0,0.0,0.0,0.0,0.0,0.0,0.0,0.0,0.0,0.0,0.0,0.0,0.0,0.0,0.0,0.0,0.0,0.0,0.0,0.0,0.0,0.0,0.0,0.0,0.0,0.0,0.0,0.0,0.0,0.0,0.0,0.0,0.0,0.0,0.0,0.0,0.0,0.0,0.0,0.0,0.0,0.0,0.0,0.0,0.0,0.0,0.0,0.0,0.0,0.0,0.0,0.0,0.0,0.0,0.0,0.0,0.0,0.0,0.0,0.0,0.0,0.0,0.0,0.0,0.0,0.0,0.0,0.0,0.0,0.0,0.0,0.0,0.0,0.0,0.0,0.0,0.0,0.0,0.0,0.0,0.0,0.0,0.0,0.0,0.0,0.0,0.0,0.0,0.0,0.0,0.0,0.0,0.0,0.0,0.0,0.0,0.0,0.0,0.0,0.0,0.0,0.0,0.0,0.0,0.0,0.0,0.0,0.0,0.0,0.0,0.0,0.0,0.0,0.0,0.0,0.0,0.0,0.0,0.0,0.0,0.0,0.0,0.0,0.0,0.0,0.0,0.0,0.0,0.0,0.0,0.0,0.0,0.0,0.0,0.0,0.0,0.0,0.0,0.0,0.0,0.0,0.0,0.0,0.0,0.0,0.0,0.0,0.0,0.0,0.0,0.0,0.0,0.0,0.0,0.0,0.0,0.0,0.0,0.0,0.0,0.0,0.0,0.0,0.0,0.0,0.0,0.0,0.0,0.0,0.0,0.0,0.0,0.0,0.0,0.0,0.0,0.0,0.0,0.0,0.0,0.0,0.0,0.0,0.0,0.0,0.0,0.0,0.0,0.0,0.0,0.0,0.0,0.0,0.0,0.0,0.0,0.0,0.0,0.0,0.0,0.0,0.0,0.0,0.0,0.0,0.0,0.0,0.0,0.0,0.0,0.0,0.0,0.0,0.0,0.0,0.0,0.0,0.0,0.0,0.0,0.0,0.0,0.0,0.0,0.0,0.0,0.0,0.0,0.0,0.0,0.0,0.0,0.0,0.0,0.0,0.0,0.0,0.0,0.0,0.0,0.0,0.0,0.0,0.0,0.0,0.0,0.0,0.0,0.0,0.0,0.0,0.0,0.0,0.0,0.0,0.0,0.0,0.0,0.0,0.0,0.0,0.0,0.0,0.0,0.0,0.0,0.0,0.0,0.0,0.0,0.0,0.0,0.0,0.0,0.0,0.0,0.0,0.0,0.0,0.0,0.0,0.0,0.0,0.0,0.0,0.0,0.0,0.0,0.0,0.0,0.0,0.0,0.0,0.0,0.0,0.0,0.0,0.0,0.0,0.0,0.0,0.0,0.0,0.0,0.0,0.0,0.0,0.0,0.0,0.0,0.0,0.0,0.0,0.0,0.0,0.0,0.0,0.0,0.0,0.0,0.0,0.0,0.0,0.0,0.0,0.0,0.0,0.0,0.0,0.0,0.0,0.0,0.0,0.0,0.0,0.0,0.0,0.0,0.0,0.0,0.0,0.0,0.0,0.0,0.0,0.0,0.0,0.0,0.0,0.0,0.0,0.0,0.0,0.0,0.0,0.0,0.0,0.0,0.0,0.0,0.0,0.0,0.0,0.0,0.0,0.0,0.0,0.0,0.0,0.0,0.0,0.0,0.0,0.0,0.0,0.0,0.0,0.0,0.0,0.0,0.0,0.0,0.0,0.0,0.0,0.0,0.0,0.0,0.0,0.0,0.0,0.0,0.0,0.0,0.0,0.0,0.0,0.0,0.0,0.0,0.0,0.0,0.0,0.0,0.0,0.0,0.0,0.0,0.0,0.0,0.0,0.0,0.0,0.0,0.0,0.0,0.0,0.0,0.0,0.0,0.0,0.0,0.0,0.0,0.0,0.0,0.0,0.0,0.0,0.0,0.0,0.0,0.0,0.0,0.0,0.0,0.0,0.0,0.0,0.0,0.0,0.0,0.0,0.0,0.0,0.0,0.0,0.0,0.0,0.0,0.0,0.0,0.0,0.0,0.0,0.0,0.0,0.0,0.0,0.0,0.0,0.0,0.0,0.0,0.0,0.0,0.0,0.0,0.0,0.0,0.0,0.0,0.0,0.0,0.0,0.0,0.0,0.0,0.0,0.0,0.0,0.0,0.0,0.0,0.0,0.0,0.0,0.0,0.0,0.0,0.0,0.0,0.0,0.0,0.0,0.0,0.0,0.0,0.0,0.0,0.0,0.0,0.0,0.0,0.0,0.0,0.0,0.0,0.0,0.0,0.0,0.0,0.0,0.0,0.0,0.0,0.0,0.0,0.0,0.0,0.0,0.0,-0.9139,0.0,0.0,0.0,0.0,0.0,0.0,0.0,0.0,0.0,0.0,0.0,0.0,0.0,0.0,0.0,0.0,0.0,0.0,0.0,0.0,0.0,0.0,0.0,0.0,0.0,0.0,0.0,0.0,0.0,0.0,0.0,0.0,0.0,0.0,0.0,0.0,0.0,0.0,0.0,0.0,0.0,0.0,0.0,0.0,0.0,0.0,0.0,0.0,0.0,0.0,0.0,0.0,0.0,0.0,0.0,0.0,0.0,0.0,0.0,0.0,0.0,0.0,0.0,0.0,0.0,0.0,0.0,0.0,0.0,0.0,0.0,0.0,0.0,0.0,0.0,0.0,0.0,0.0,0.0,0.0,0.0,0.0,0.0,0.0,0.0,0.0,0.0,0.0,0.0,0.0,0.0,0.0,0.0,0.0,0.0,0.0,0.0,0.0,0.0,0.0,0.0,0.0,0.0,0.0,0.0,0.0,0.0,0.0,0.0,0.0,-0.8866,-0.9003,-0.9155,-0.9155,-0.9019,0.0,0.0,0.0,0.0,0.0,0.0,0.0,0.0,0.0,0.0,0.0,0.0,0.0,0.0,0.0,0.0,0.0,0.0,0.0,0.0,0.0,0.0,0.0,0.0,0.0,0.0,0.0,0.0,0.0,0.0,0.0,0.0,0.0,0.0,0.0,0.0,0.0,0.0,0.0,0.0,0.0,0.0,0.0,0.0,0.0,0.0,0.0,0.0,0.0,0.0,0.0,0.0,0.0,0.0,0.0,0.0,0.0,0.0,0.0,0.0,0.0,0.0,0.0,0.0,0.0,0.0,0.0,0.0,0.0,0.0,0.0,0.0,0.0,0.0,0.0,0.0,0.0,0.0,0.0,0.0,0.0,0.0,0.0,0.0,0.0,0.0,0.0,0.0,0.0,0.0,0.0,0.0,0.0,0.0,0.0,0.0,0.0,0.0,0.0,0.0,0.0,0.0,0.0,0.0,0.0,0.0,0.0,0.0,0.0,0.0,0.0,0.0,-0.9035,-0.9063,-0.9063,0.0,0.0,0.0,0.0,0.0,0.0,0.0,0.0,0.0,0.0,0.0,0.0,0.0,0.0,0.0,0.0,0.0,0.0,0.0,0.0,0.0,0.0,0.0,0.0,0.0,0.0,0.0,0.0,0.0,0.0,0.0,0.0,0.0,0.0,0.0,0.0,0.0,0.0,0.0,0.0,0.0,0.0,0.0,0.0,0.0,0.0,0.0,0.0,0.0,0.0,0.0,0.0,0.0,0.0,0.0,0.0,0.0,0.0,0.0,0.0,0.0,0.0,0.0,0.0,0.0,0.0,0.0,0.0,0.0,0.0,0.0,0.0,0.0,0.0,0.0,0.0,0.0,0.0,0.0,0.0,0.0,0.0,0.0,0.0,0.0,0.0,0.0,0.0,0.0,0.0,0.0,0.0,0.0,0.0,0.0,0.0,0.0,0.0,0.0,0.0,0.0,0.0,0.0,0.0,0.0,0.0,0.0,0.0,0.0,0.0,-0.8442,-0.8889,-0.9133,0.0,-0.9253,0.0,0.0,0.0,0.0,0.0,0.0,0.0,0.0,0.0,0.0,0.0,0.0,0.0,0.0,0.0,0.0,0.0,0.0,0.0,0.0,0.0,0.0,0.0,0.0,0.0,0.0,0.0,0.0,0.0,0.0,0.0,0.0,0.0,0.0,0.0,0.0,0.0,0.0,0.0,0.0,0.0,0.0,0.0,0.0,0.0,0.0,0.0,0.0,0.0,0.0,0.0,0.0,0.0,0.0,0.0,0.0,0.0,0.0,0.0,0.0,0.0,0.0,0.0,0.0,0.0,0.0,0.0,0.0,0.0,0.0,0.0,0.0,0.0,0.0,0.0,0.0,0.0,0.0,0.0,0.0,0.0,0.0,0.0,0.0,0.0,0.0,0.0,0.0,0.0,0.0,0.0,0.0,0.0,0.0,0.0,0.0,0.0,0.0,0.0,0.0,0.0,0.0,0.0,0.0,0.0,0.0,0.0,0.0,0.0,0.0,-0.8714,-0.8911,-0.9004,-0.9055,0.0,0.0,0.0,0.0,0.0,0.0,0.0,0.0,0.0,0.0,0.0,0.0,0.0,0.0,0.0,0.0,0.0,0.0,0.0,0.0,0.0,0.0,0.0,0.0,0.0,0.0,0.0,0.0,0.0,0.0,0.0,0.0,0.0,0.0,0.0,0.0,0.0,0.0,0.0,0.0,0.0,0.0,0.0,0.0,0.0,0.0,0.0,0.0,0.0,0.0,0.0,0.0,0.0,0.0,0.0,0.0,0.0,0.0,0.0,0.0,0.0,0.0,0.0,0.0,0.0,0.0,0.0,0.0,0.0,0.0,0.0,0.0,0.0,0.0,0.0,0.0,0.0,0.0,0.0,0.0,0.0,0.0,0.0,0.0,0.0,0.0,0.0,0.0,0.0,0.0,0.0,0.0,0.0,0.0,0.0,0.0,0.0,0.0,0.0,0.0,0.0,0.0,0.0,0.0,0.0,0.0,0.0,0.0,0.0,0.0,-0.858,0.0,-0.9046,-0.9067,-0.8942,-0.8735,0.0,0.0,0.0,0.0,0.0,0.0,0.0,0.0,0.0,0.0,0.0,0.0,0.0,0.0,0.0,0.0,0.0,0.0,0.0,0.0,0.0,0.0,0.0,0.0,0.0,0.0,0.0,0.0,0.0,0.0,0.0,0.0,0.0,0.0,0.0,0.0,0.0,0.0,0.0,0.0,0.0,0.0,0.0,0.0,0.0,0.0,0.0,0.0,0.0,0.0,0.0,0.0,0.0,0.0,0.0,0.0,0.0,0.0,0.0,0.0,0.0,0.0,0.0,0.0,0.0,0.0,0.0,0.0,0.0,0.0,0.0,0.0,0.0,0.0,0.0,0.0,0.0,0.0,0.0,0.0,0.0,0.0,0.0,0.0,0.0,0.0,0.0,0.0,0.0,0.0,0.0,0.0,0.0,0.0,0.0,0.0,0.0,0.0,0.0,0.0,0.0,0.0,0.0,0.0,0.0,0.0,0.0,0.0,0.0,-0.8425,-0.8632,-0.9458,-0.9445,-0.9066,0.0,0.0,0.0,0.0,0.0,0.0,0.0,0.0,0.0,0.0,0.0,0.0,0.0,0.0,0.0,0.0,0.0,0.0,0.0,0.0,0.0,0.0,0.0,0.0,0.0,0.0,0.0,0.0,0.0,0.0,0.0,0.0,0.0,0.0,0.0,0.0,0.0,0.0,0.0,0.0,0.0,0.0,0.0,0.0,0.0,0.0,0.0,0.0,0.0,0.0,0.0,0.0,0.0,0.0,0.0,0.0,0.0,0.0,0.0,0.0,0.0,0.0,0.0,0.0,0.0,0.0,0.0,0.0,0.0,0.0,0.0,0.0,0.0,0.0,0.0,0.0,0.0,0.0,0.0,0.0,0.0,0.0,0.0,0.0,0.0,0.0,0.0,0.0,0.0,0.0,0.0,0.0,0.0,0.0,0.0,0.0,0.0,0.0,0.0,0.0,0.0,0.0,0.0,0.0,0.0,0.0,0.0,0.0,0.0,-0.7482,-0.768,-0.8466,-0.9829,-0.8818,-0.8352,0.0,0.0,0.0,0.0,0.0,0.0,0.0,0.0,0.0,0.0,0.0,0.0,0.0,0.0,0.0,0.0,0.0,0.0,0.0,0.0,0.0,0.0,0.0,0.0,0.0,0.0,0.0,0.0,0.0,0.0,0.0,0.0,0.0,0.0,0.0,0.0,0.0,0.0,0.0,0.0,0.0,0.0,0.0,0.0,0.0,0.0,0.0,0.0,0.0,0.0,0.0,0.0,0.0,0.0,0.0,0.0,0.0,0.0,0.0,0.0,0.0,0.0,0.0,0.0,0.0,0.0,0.0,0.0,0.0,0.0,0.0,0.0,0.0,0.0,0.0,0.0,0.0,0.0,0.0,0.0,0.0,0.0,0.0,0.0,0.0,0.0,0.0,0.0,0.0,0.0,0.0,0.0,0.0,0.0,0.0,0.0,0.0,0.0,0.0,0.0,0.0,0.0,0.0,0.0,0.0,0.0,0.0,0.0,0.0,-0.7128,0.0,-0.8818,0.0,-0.853,-0.7893,0.0,0.0,0.0,0.0,0.0,0.0,0.0,0.0,0.0,0.0,0.0,0.0,0.0,0.0,0.0,0.0,0.0,0.0,0.0,0.0,0.0,0.0,0.0,0.0,0.0,0.0,0.0,0.0,0.0,0.0,0.0,0.0,0.0,0.0,0.0,0.0,0.0,0.0,0.0,0.0,0.0,0.0,0.0,0.0,0.0,0.0,0.0,0.0,0.0,0.0,0.0,0.0,0.0,0.0,0.0,0.0,0.0,0.0,0.0,0.0,0.0,0.0,0.0,0.0,0.0,0.0,0.0,0.0,0.0,0.0,0.0,0.0,0.0,0.0,0.0,0.0,0.0,0.0,0.0,0.0,0.0,0.0,0.0,0.0,0.0,0.0,0.0,0.0,0.0,0.0,0.0,0.0,0.0,0.0,0.0,0.0,0.0,0.0,0.0,0.0,0.0,0.0,0.0,0.0,0.0,0.0,0.0,0.0,-0.596,-0.7849,-0.9287,-0.964,-0.8953,-0.8643,-0.7784,0.0,0.0,0.0,0.0,0.0,0.0,0.0,0.0,0.0,0.0,0.0,0.0,0.0,0.0,0.0,0.0,0.0,0.0,0.0,0.0,0.0,0.0,0.0,0.0,0.0,0.0,0.0,0.0,0.0,0.0,0.0,0.0,0.0,0.0,0.0,0.0,0.0,0.0,0.0,0.0,0.0,0.0,0.0,0.0,0.0,0.0,0.0,0.0,0.0,0.0,0.0,0.0,0.0,0.0,0.0,0.0,0.0,0.0,0.0,0.0,0.0,0.0,0.0,0.0,0.0,0.0,0.0,0.0,0.0,0.0,0.0,0.0,0.0,0.0,0.0,0.0,0.0,0.0,0.0,0.0,0.0,0.0,0.0,0.0,0.0,0.0,0.0,0.0,0.0,0.0,0.0,0.0,0.0,0.0,0.0,0.0,0.0,0.0,0.0,0.0,0.0,0.0,0.0,0.0,0.0,0.0,0.0,0.0,0.0,-0.7715,-0.8025,-0.8684,-0.9734,-0.8189,-0.7405,0.0,0.0,0.0,0.0,0.0,0.0,0.0,0.0,0.0,0.0,0.0,0.0,0.0,0.0,0.0,0.0,0.0,0.0,0.0,0.0,0.0,0.0,0.0,0.0,0.0,0.0,0.0,0.0,0.0,0.0,0.0,0.0,0.0,0.0,0.0,0.0,0.0,0.0,0.0,0.0,0.0,0.0,0.0,0.0,0.0,0.0,0.0,0.0,0.0,0.0,0.0,0.0,0.0,0.0,0.0,0.0,0.0,0.0,0.0,0.0,0.0,0.0,0.0,0.0,0.0,0.0,0.0,0.0,0.0,0.0,0.0,0.0,0.0,0.0,0.0,0.0,0.0,0.0,0.0,0.0,0.0,0.0,0.0,0.0,0.0,0.0,0.0,0.0,0.0,0.0,0.0,0.0,0.0,0.0,0.0,0.0,0.0,0.0,0.0,0.0,0.0,0.0,0.0,0.0,0.0,0.0,0.0,0.0,0.0,-0.8063,-0.8115,-0.8558,-0.9553,-0.7918,-0.7218,-0.753,0.0,0.0,0.0,0.0,0.0,0.0,0.0,0.0,0.0,0.0,0.0,0.0,0.0,0.0,0.0,0.0,0.0,0.0,0.0,0.0,0.0,0.0,0.0,0.0,0.0,0.0,0.0,0.0,0.0,0.0,0.0,0.0,0.0,0.0,0.0,0.0,0.0,0.0,0.0,0.0,0.0,0.0,0.0,0.0,0.0,0.0,0.0,0.0,0.0,0.0,0.0,0.0,0.0,0.0,0.0,0.0,0.0,0.0,0.0,0.0,0.0,0.0,0.0,0.0,0.0,0.0,0.0,0.0,0.0,0.0,0.0,0.0,0.0,0.0,0.0,0.0,0.0,0.0,0.0,0.0,0.0,0.0,0.0,0.0,0.0,0.0,0.0,0.0,0.0,0.0,0.0,0.0,0.0,0.0,0.0,0.0,0.0,0.0,0.0,0.0,0.0,0.0,0.0,0.0,0.0,0.0,0.0,0.0,-0.8797,-0.9315,-0.9172,-0.8477,-0.8011,-0.7284,0.0,0.0,0.0,0.0,0.0,0.0,0.0,0.0,0.0,0.0,0.0,0.0,0.0,0.0,0.0,0.0,0.0,0.0,0.0,0.0,0.0,0.0,0.0,0.0,0.0,0.0,0.0,0.0,0.0,0.0,0.0,0.0,0.0,0.0,0.0,0.0,0.0,0.0,0.0,0.0,0.0,0.0,0.0,0.0,0.0,0.0,0.0,0.0,0.0,0.0,0.0,0.0,0.0,0.0,0.0,0.0,0.0,0.0,0.0,0.0,0.0,0.0,0.0,0.0,0.0,0.0,0.0,0.0,0.0,0.0,0.0,0.0,0.0,0.0,0.0,0.0,0.0,0.0,0.0,0.0,0.0,0.0,0.0,0.0,0.0,0.0,0.0,0.0,0.0,0.0,0.0,0.0,0.0,0.0,0.0,0.0,0.0,0.0,0.0,0.0,0.0,0.0,0.0,0.0,0.0,0.0,0.0,0.0,0.0,-0.8579,-0.8941,-0.9297,-0.9581,-0.8882,-0.8056,0.0,0.0,0.0,0.0,0.0,0.0,0.0,0.0,0.0,0.0,0.0,0.0,0.0,0.0,0.0,0.0,0.0,0.0,0.0,0.0,0.0,0.0,0.0,0.0,0.0,0.0,0.0,0.0,0.0,0.0,0.0,0.0,0.0,0.0,0.0,0.0,0.0,0.0,0.0,0.0,0.0,0.0,0.0,0.0,0.0,0.0,0.0,0.0,0.0,0.0,0.0,0.0,0.0,0.0,0.0,0.0,0.0,0.0,0.0,0.0,0.0,0.0,0.0,0.0,0.0,0.0,0.0,0.0,0.0,0.0,0.0,0.0,0.0,0.0,0.0,0.0,0.0,0.0,0.0,0.0,0.0,0.0,0.0,0.0,0.0,0.0,0.0,0.0,0.0,0.0,0.0,0.0,0.0,0.0,0.0,0.0,0.0,0.0,0.0,0.0,0.0,0.0,0.0,0.0,0.0,0.0,0.0,0.0,-0.878,-0.8898,-0.9103,-0.9392,-0.9817,-0.9201,-0.8432,0.0,0.0,0.0,0.0,0.0,0.0,0.0,0.0,0.0,0.0,0.0,0.0,0.0,0.0,0.0,0.0,0.0,0.0,0.0,0.0,0.0,0.0,0.0,0.0,0.0,0.0,0.0,0.0,0.0,0.0,0.0,0.0,0.0,0.0,0.0,0.0,0.0,0.0,0.0,0.0,0.0,0.0,0.0,0.0,0.0,0.0,0.0,0.0,0.0,0.0,0.0,0.0,0.0,0.0,0.0,0.0,0.0,0.0,0.0,0.0,0.0,0.0,0.0,0.0,0.0,0.0,0.0,0.0,0.0,0.0,0.0,0.0,0.0,0.0,0.0,0.0,0.0,0.0,0.0,0.0,0.0,0.0,0.0,0.0,0.0,0.0,0.0,0.0,0.0,0.0,0.0,0.0,0.0,0.0,0.0,0.0,0.0,0.0,0.0,0.0,0.0,0.0,0.0,0.0,0.0,0.0,0.0,0.0,-0.8956,-0.9339,-0.9415,-0.9486,-0.9415,-0.9217,-0.8579,0.0,0.0,0.0,0.0,0.0,0.0,0.0,0.0,0.0,0.0,0.0,0.0,0.0,0.0,0.0,0.0,0.0,0.0,0.0,0.0,0.0,0.0,0.0,0.0,0.0,0.0,0.0,0.0,0.0,0.0,0.0,0.0,0.0,0.0,0.0,0.0,0.0,0.0,0.0,0.0,0.0,0.0,0.0,0.0,0.0,0.0,0.0,0.0,0.0,0.0,0.0,0.0,0.0,0.0,0.0,0.0,0.0,0.0,0.0,0.0,0.0,0.0,0.0,0.0,0.0,0.0,0.0,0.0,0.0,0.0,0.0,0.0,0.0,0.0,0.0,0.0,0.0,0.0,0.0,0.0,0.0,0.0,0.0,0.0,0.0,0.0,0.0,0.0,0.0,0.0,0.0,0.0,0.0,0.0,0.0,0.0,0.0,0.0,0.0,0.0,0.0,0.0,0.0,0.0,0.0,0.0,0.0,0.0,-0.9212,-0.8882,-0.9313,-0.946,-0.9281,-0.9339,-0.8875,0.0,0.0,0.0,0.0,0.0,0.0,0.0,0.0,0.0,0.0,0.0,0.0,0.0,0.0,0.0,0.0,0.0,0.0,0.0,0.0,0.0,0.0,0.0,0.0,0.0,0.0,0.0,0.0,0.0,0.0,0.0,0.0,0.0,0.0,0.0,0.0,0.0,0.0,0.0,0.0,0.0,0.0,0.0,0.0,0.0,0.0,0.0,0.0,-0.4699,0.0,0.0,0.0,0.0,0.0,0.0,0.0,0.0,0.0,0.0,0.0,0.0,0.0,0.0,0.0,0.0,0.0,0.0,0.0,0.0,0.0,0.0,0.0,0.0,0.0,0.0,0.0,0.0,0.0,0.0,0.0,0.0,0.0,0.0,0.0,0.0,0.0,0.0,0.0,0.0,0.0,0.0,0.0,0.0,0.0,0.0,0.0,0.0,0.0,0.0,0.0,0.0,0.0,0.0,0.0,0.0,0.0,0.0,0.0,-0.9147,-0.9124,-0.9438,-0.9541,-0.9387,-0.9474,-0.9071,0.0,0.0,0.0,0.0,0.0,0.0,0.0,0.0,0.0,0.0,0.0,0.0,0.0,0.0,0.0,0.0,0.0,0.0,0.0,0.0,0.0,0.0,0.0,0.0,0.0,0.0,0.0,0.0,0.0,0.0,0.0,0.0,0.0,0.0,0.0,0.0,0.0,0.0,0.0,0.0,0.0,0.0,0.0,0.0,0.0,0.0,0.0,0.0,0.0,0.0,0.0,0.0,0.0,0.0,0.0,0.0,0.0,0.0,0.0,0.0,0.0,0.0,0.0,0.0,0.0,0.0,0.0,0.0,0.0,0.0,0.0,0.0,0.0,0.0,0.0,0.0,0.0,0.0,0.0,0.0,0.0,0.0,0.0,0.0,0.0,0.0,0.0,0.0,0.0,0.0,0.0,0.0,0.0,0.0,0.0,0.0,0.0,0.0,0.0,0.0,0.0,0.0,0.0,0.0,0.0,0.0,0.0,-0.8306,-0.9076,-0.9533,-0.9592,-0.9614,-0.9614,-0.9614,-0.9197,-0.8312,0.0,0.0,0.0,0.0,0.0,0.0,0.0,0.0,0.0,0.0,0.0,0.0,0.0,0.0,0.0,0.0,0.0,0.0,0.0,0.0,0.0,0.0,0.0,0.0,0.0,0.0,0.0,0.0,0.0,0.0,0.0,0.0,0.0,0.0,0.0,0.0,0.0,0.0,-0.4948,-0.5705,0.0,0.0,0.0,0.0,0.0,0.0,0.0,0.0,-0.5369,0.0,0.0,0.0,0.0,0.0,0.0,0.0,0.0,0.0,0.0,0.0,0.0,0.0,0.0,0.0,0.0,0.0,0.0,0.0,0.0,0.0,0.0,0.0,0.0,0.0,0.0,0.0,0.0,0.0,0.0,0.0,0.0,0.0,0.0,0.0,0.0,0.0,0.0,0.0,0.0,0.0,0.0,0.0,0.0,0.0,0.0,0.0,0.0,0.0,0.0,0.0,0.0,0.0,0.0,0.0,0.0,-0.8019,-0.8983,-0.9369,-0.9283,-0.949,-0.9614,-0.9614,-0.9614,-0.9299,-0.8633,0.0,0.0,0.0,0.0,0.0,0.0,0.0,0.0,0.0,0.0,0.0,0.0,0.0,0.0,0.0,0.0,0.0,0.0,0.0,0.0,0.0,0.0,0.0,0.0,0.0,0.0,0.0,0.0,0.0,0.0,0.0,0.0,0.0,0.0,0.0,0.0,0.0,0.0,0.0,-0.65,-0.6898,0.0,0.0,0.0,0.0,0.0,0.0,0.0,0.0,-0.4884,0.0,0.0,0.0,0.0,0.0,0.0,0.0,0.0,0.0,0.0,0.0,0.0,0.0,0.0,0.0,0.0,0.0,0.0,0.0,0.0,0.0,0.0,0.0,0.0,0.0,0.0,0.0,0.0,0.0,0.0,0.0,0.0,0.0,0.0,0.0,0.0,0.0,0.0,0.0,0.0,0.0,0.0,0.0,0.0,0.0,0.0,0.0,0.0,0.0,0.0,0.0,0.0,0.0,0.0,0.0,-0.7887,-0.9035,-0.9554,-0.9394,-0.9541,-0.9614,-0.9614,-0.9468,-0.9168,0.0,0.0,0.0,0.0,0.0,0.0,0.0,0.0,0.0,0.0,0.0,0.0,0.0,0.0,0.0,0.0,0.0,0.0,0.0,0.0,0.0,0.0,0.0,0.0,0.0,0.0,0.0,0.0,0.0,0.0,0.0,0.0,0.0,0.0,0.0,0.0,0.0,0.0,0.0,0.0,-0.6845,-0.7097,-0.6897,0.0,0.0,0.0,0.0,0.0,0.0,-0.5972,-0.5682,0.0,0.0,0.0,0.0,0.0,0.0,0.0,0.0,0.0,0.0,0.0,0.0,0.0,0.0,0.0,0.0,0.0,0.0,0.0,0.0,0.0,0.0,0.0,0.0,0.0,0.0,0.0,0.0,0.0,0.0,0.0,0.0,0.0,0.0,0.0,0.0,0.0,0.0,0.0,0.0,0.0,0.0,0.0,0.0,0.0,0.0,0.0,0.0,0.0,0.0,0.0,0.0,0.0,0.0,0.0,-0.7648,-0.8928,-0.9589,-0.9592,-0.9614,-0.9614,-0.9614,-0.9453,-0.9153,0.0,0.0,0.0,0.0,0.0,0.0,0.0,0.0,0.0,0.0,0.0,0.0,0.0,0.0,0.0,0.0,0.0,0.0,0.0,0.0,0.0,0.0,0.0,0.0,0.0,0.0,0.0,0.0,0.0,0.0,0.0,0.0,0.0,0.0,0.0,0.0,0.0,0.0,0.0,0.0,0.0,-0.7235,-0.6698,-0.689,0.0,0.0,0.0,0.0,-0.6817,-0.6623,0.0,0.0,0.0,0.0,0.0,0.0,0.0,0.0,0.0,0.0,0.0,0.0,0.0,0.0,0.0,0.0,0.0,0.0,0.0,0.0,0.0,0.0,0.0,0.0,0.0,0.0,0.0,0.0,0.0,0.0,0.0,0.0,0.0,0.0,0.0,0.0,0.0,0.0,0.0,0.0,0.0,0.0,0.0,0.0,0.0,0.0,0.0,0.0,0.0,0.0,0.0,0.0,0.0,0.0,0.0,0.0,-0.766,-0.8937,-0.9628,-0.9622,-0.9614,-0.9614,-0.9621,-0.9863,-0.9577,0.0,0.0,0.0,0.0,0.0,0.0,0.0,0.0,0.0,0.0,0.0,0.0,0.0,0.0,0.0,0.0,0.0,0.0,0.0,0.0,0.0,0.0,0.0,0.0,0.0,0.0,0.0,0.0,0.0,0.0,0.0,0.0,0.0,0.0,0.0,0.0,0.0,0.0,0.0,0.0,0.0,-0.7517,-0.6192,-0.681,-0.7071,0.0,0.0,-0.6713,-0.6362,-0.609,0.0,0.0,0.0,0.0,0.0,0.0,0.0,0.0,0.0,0.0,0.0,0.0,0.0,0.0,0.0,0.0,0.0,0.0,0.0,0.0,0.0,0.0,0.0,0.0,0.0,0.0,0.0,0.0,0.0,0.0,0.0,0.0,0.0,0.0,0.0,0.0,0.0,0.0,0.0,0.0,0.0,0.0,0.0,0.0,0.0,0.0,0.0,0.0,0.0,0.0,0.0,0.0,0.0,0.0,0.0,-0.5766,-0.7675,-0.8952,-0.9636,-0.9585,-0.9614,-0.9614,-0.9614,-0.9592,-0.9211,0.0,0.0,0.0,0.0,0.0,0.0,0.0,0.0,0.0,0.0,0.0,0.0,0.0,0.0,0.0,0.0,0.0,0.0,0.0,0.0,0.0,0.0,0.0,0.0,0.0,0.0,0.0,0.0,0.0,0.0,0.0,0.0,0.0,0.0,0.0,0.0,0.0,0.0,0.0,0.0,0.0,0.0,-0.6654,-0.6811,0.0,0.0,0.0,-0.6857,-0.6791,0.0,0.0,0.0,0.0,0.0,0.0,0.0,0.0,0.0,0.0,0.0,0.0,0.0,0.0,0.0,0.0,0.0,0.0,0.0,0.0,0.0,0.0,0.0,0.0,0.0,0.0,0.0,0.0,0.0,0.0,0.0,0.0,0.0,0.0,0.0,0.0,0.0,0.0,0.0,0.0,0.0,0.0,0.0,0.0,0.0,0.0,0.0,0.0,0.0,0.0,0.0,0.0,0.0,0.0,0.0,0.0,0.0,-0.7814,-0.9152,-0.9826,-0.9716,-0.9819,-0.9811,-0.9731,-0.9446,0.0,0.0,0.0,0.0,0.0,0.0,0.0,0.0,0.0,0.0,0.0,0.0,0.0,0.0,0.0,0.0,0.0,0.0,0.0,0.0,0.0,0.0,0.0,0.0,0.0,0.0,0.0,-0.281,0.0,0.0,0.0,0.0,0.0,0.0,0.0,0.0,0.0,0.0,0.0,0.0,0.0,0.0,-0.6635,-0.6646,-0.6748,-0.6727,0.0,0.0,-0.693,-0.6879,-0.6788,-0.6546,0.0,0.0,0.0,0.0,0.0,0.0,0.0,0.0,0.0,0.0,0.0,0.0,0.0,0.0,0.0,0.0,0.0,0.0,0.0,0.0,0.0,0.0,0.0,0.0,0.0,0.0,0.0,0.0,0.0,0.0,0.0,0.0,0.0,0.0,0.0,0.0,0.0,0.0,0.0,0.0,0.0,0.0,0.0,0.0,0.0,0.0,0.0,0.0,0.0,0.0,0.0,0.0,0.0,0.0,0.0,-0.8151,-0.9717,-1.0391,-1.0115,-1.036,-1.0375,-1.0075,-0.9753,-0.9292,0.0,0.0,0.0,0.0,0.0,0.0,0.0,0.0,0.0,0.0,0.0,0.0,0.0,0.0,0.0,0.0,0.0,0.0,0.0,0.0,0.0,0.0,0.0,0.0,0.0,0.0,0.0,0.0,0.0,0.0,0.0,0.0,0.0,0.0,0.0,0.0,0.0,0.0,0.0,0.0,0.0,-0.6661,-0.5588,-0.663,-0.7126,0.0,0.0,-0.678,-0.6073,-0.6262,-0.6121,-0.5272,0.0,0.0,0.0,0.0,0.0,0.0,0.0,0.0,0.0,0.0,0.0,0.0,0.0,0.0,0.0,0.0,0.0,0.0,0.0,0.0,0.0,0.0,0.0,0.0,0.0,0.0,0.0,0.0,0.0,0.0,0.0,0.0,0.0,0.0,0.0,0.0,0.0,0.0,0.0,0.0,0.0,0.0,0.0,0.0,0.0,0.0,0.0,0.0,0.0,0.0,0.0,0.0,0.0,-0.6354,-0.8194,-0.9771,-1.0453,-1.0159,-1.0419,-1.0433,-1.0104,-0.998,-0.9438,0.0,0.0,0.0,0.0,0.0,0.0,0.0,0.0,0.0,0.0,0.0,0.0,0.0,0.0,0.0,0.0,0.0,0.0,0.0,0.0,0.0,0.0,0.0,0.0,0.0,0.0,0.0,0.0,-0.463,-0.4692,-0.4257,0.0,0.0,0.0,0.0,0.0,0.0,0.0,0.0,0.0,0.0,-0.6081,-0.6329,-0.646,0.0,0.0,-0.6463,-0.6548,-0.6225,-0.6233,-0.6022,-0.5356,-0.5157,0.0,0.0,0.0,0.0,0.0,0.0,0.0,0.0,0.0,0.0,0.0,0.0,0.0,0.0,0.0,0.0,0.0,0.0,0.0,0.0,0.0,0.0,0.0,0.0,0.0,0.0,0.0,0.0,0.0,0.0,0.0,0.0,0.0,0.0,0.0,0.0,0.0,0.0,0.0,0.0,0.0,0.0,0.0,0.0,0.0,0.0,0.0,0.0,0.0,0.0,0.0,0.0,-0.668,-0.848,-0.9906,-1.0508,-1.0382,-1.0711,-1.0719,-1.0404,-1.0199,-0.9592,0.0,0.0,0.0,0.0,0.0,0.0,0.0,0.0,0.0,0.0,0.0,0.0,0.0,0.0,0.0,0.0,0.0,0.0,0.0,0.0,0.0,0.0,0.0,0.0,0.0,0.0,0.0,0.0,-0.5064,-0.4927,-0.4411,0.0,0.0,0.0,0.0,0.0,0.0,0.0,0.0,0.0,0.0,-0.5781,-0.6644,-0.6383,-0.6221,-0.6465,-0.6453,-0.644,-0.6493,-0.6392,-0.6124,-0.5542,0.0,0.0,0.0,0.0,0.0,0.0,0.0,0.0,0.0,0.0,0.0,0.0,0.0,0.0,0.0,0.0,0.0,0.0,0.0,0.0,0.0,0.0,0.0,0.0,0.0,0.0,0.0,0.0,0.0,0.0,-0.5641,0.0,0.0,0.0,0.0,0.0,0.0,0.0,0.0,0.0,0.0,0.0,0.0,0.0,0.0,0.0,0.0,0.0,0.0,0.0,0.0,0.0,0.0,-0.6947,-0.9138,-1.0137,-1.0777,-1.1033,-1.1431,-1.1424,-1.1041,-1.0441,-0.9804,-0.9153,0.0,0.0,0.0,0.0,0.0,0.0,0.0,0.0,0.0,0.0,0.0,0.0,0.0,0.0,0.0,0.0,0.0,0.0,0.0,0.0,0.0,0.0,0.0,0.0,0.0,0.0,-0.4387,-0.421,-0.4088,0.0,0.0,0.0,0.0,0.0,0.0,0.0,0.0,0.0,0.0,-0.56,-0.5945,-0.6199,-0.6453,-0.6672,-0.6696,-0.6546,-0.6489,-0.6664,-0.6672,-0.6485,0.0,0.0,0.0,0.0,0.0,0.0,0.0,0.0,0.0,0.0,0.0,0.0,0.0,0.0,0.0,0.0,0.0,0.0,0.0,0.0,0.0,0.0,0.0,0.0,0.0,0.0,0.0,-0.7012,-0.6451,0.0,0.0,0.0,0.0,0.0,0.0,0.0,0.0,0.0,0.0,0.0,-0.8651,-0.9431,0.0,0.0,0.0,0.0,0.0,0.0,0.0,0.0,0.0,0.0,0.0,0.0,-0.7391,-0.9409,-1.0681,-1.1234,-1.1077,-1.1453,-1.1468,-1.1144,-1.0865,-1.025,-0.9254,0.0,0.0,0.0,0.0,0.0,0.0,0.0,0.0,0.0,0.0,0.0,0.0,0.0,0.0,0.0,0.0,0.0,0.0,0.0,0.0,0.0,0.0,0.0,0.0,0.0,-0.5092,0.0,0.0,0.0,0.0,0.0,0.0,0.0,0.0,0.0,0.0,0.0,-0.5007,-0.5547,-0.5977,-0.6347,-0.6707,-0.6855,-0.6911,0.0,0.0,0.0,0.0,0.0,0.0,0.0,0.0,0.0,0.0,0.0,0.0,0.0,0.0,-0.599,-0.4978,-0.4613,-0.4461,-0.4359,0.0,0.0,0.0,0.0,0.0,0.0,0.0,0.0,0.0,0.0,0.0,0.0,0.0,0.0,-0.8439,0.0,-0.7882,0.0,0.0,0.0,0.0,0.0,0.0,0.0,0.0,-0.7973,-0.849,-0.9349,-1.0175,-1.0284,0.0,-0.9275,-0.8633,0.0,0.0,0.0,0.0,0.0,0.0,0.0,0.0,-0.7965,-0.9821,-1.1022,-1.1481,-1.1314,-1.145,-1.152,-1.1245,-1.1026,-1.0404,-0.9372,-0.8619,-0.7968,0.0,0.0,0.0,0.0,0.0,0.0,0.0,0.0,0.0,0.0,0.0,0.0,0.0,0.0,0.0,0.0,0.0,0.0,0.0,0.0,0.0,0.0,0.0,-0.5109,0.0,0.0,0.0,0.0,0.0,0.0,0.0,0.0,0.0,-0.4739,-0.5096,-0.5539,-0.6014,-0.6379,-0.6688,-0.6991,0.0,0.0,0.0,0.0,0.0,0.0,0.0,-0.7005,-0.6818,-0.6842,-0.6842,-0.6721,-0.694,-0.7082,-0.6907,0.0,0.0,-0.5628,-0.5276,-0.511,-0.4938,-0.4997,-0.5095,-0.4998,-0.5165,-0.5433,0.0,0.0,0.0,0.0,0.0,0.0,0.0,0.0,-0.9177,-1.0059,0.0,-0.9566,0.0,0.0,0.0,0.0,0.0,-0.818,0.0,0.0,-0.8471,-0.9018,-0.9899,-1.096,-1.1149,-1.0685,-1.1217,-1.0954,-0.9948,-0.8146,0.0,0.0,0.0,0.0,0.0,0.0,-0.8606,-1.0322,-1.1234,-1.1631,-1.1652,-1.1604,-1.1652,-1.1567,-1.0953,-1.0331,-0.9671,-0.9394,-0.8808,-0.7816,-0.7452,0.0,0.0,0.0,0.0,0.0,0.0,0.0,0.0,0.0,0.0,0.0,0.0,0.0,0.0,0.0,0.0,0.0,0.0,0.0,0.0,-0.4596,0.0,0.0,0.0,0.0,0.0,0.0,0.0,0.0,0.0,0.0,-0.5194,-0.5592,-0.6034,-0.6388,0.0,0.0,0.0,0.0,-0.7313,-0.748,-0.7362,-0.7374,-0.7707,-0.7832,-0.7766,-0.7521,0.0,0.0,-0.7317,-0.7399,-0.746,-0.7285,-0.7391,-0.7311,-0.6744,-0.6437,-0.6215,-0.5729,-0.5762,-0.5738,-0.57,-0.583,-0.6074,-1.167,0.0,0.0,0.0,0.0,-1.0762,-1.0708,-1.0701,-1.1207,-1.1417,-1.1374,-1.064,0.0,0.0,0.0,0.0,0.0,0.0,-1.0004,-1.0387,-0.9142,-0.9633,-1.1578,-1.2206,-1.2304,-1.1902,-1.1549,-1.1428,-1.1539,-1.0478,-0.9493,-0.8582,0.0,0.0,0.0,0.0,-0.9771,-1.1138,-1.1902,-1.2226,-1.2241,-1.2248,-1.2131,-1.1904,-1.1275,-1.085,-1.0667,-1.036,-0.9824,-0.9069,-0.8776,0.0,0.0,0.0,0.0,0.0,0.0,0.0,0.0,0.0,0.0,0.0,0.0,0.0,0.0,0.0,0.0,0.0,0.0,0.0,-0.4966,-0.48,-0.4698,0.0,0.0,0.0,0.0,0.0,0.0,0.0,0.0,0.0,-0.6437,-0.6323,-0.64,0.0,0.0,-0.7334,-0.733,-0.7594,-0.7809,-0.7858,-0.7821,0.0,0.0,-0.7837,-0.7784,-0.7849,-0.8016,-0.8101,-0.8004,-0.8028,-0.8,-0.7821,-0.7829,-0.7745,-0.7255,-0.6927,-0.6727,-0.6526,-0.6414,-0.629,-0.623,-0.6376,-0.6515,-1.3467,-1.2351,-1.183,-1.181,-1.2138,-1.2258,-1.2093,-1.1763,-1.2049,-1.2224,-1.2372,-1.1144,-1.0635,-1.0715,-1.0601,0.0,0.0,0.0,-1.1187,-1.1429,-1.0491,-1.0783,-1.2164,-1.2975,-1.3177,-1.2815,-1.2274,-1.2144,-1.2466,-1.1977,-1.1112,-0.9959,0.0,0.0,-1.0268,-1.0106,-1.0676,-1.202,-1.2632,-1.2841,-1.2608,-1.2533,-1.2431,-1.216,-1.1728,-1.1399,-1.1267,-1.0953,-1.06,-1.0147,-0.9636,-0.8669,0.0,0.0,0.0,0.0,0.0,0.0,0.0,0.0,0.0,0.0,0.0,-0.2869,0.0,0.0,0.0,0.0,-0.3872,-0.4541,-0.5112,-0.4997,0.0,0.0,0.0,0.0,0.0,0.0,0.0,-0.6342,-0.6481,-0.6721,-0.7106,-0.7041,-0.7033,-0.7244,-0.7516,-0.7695,-0.7695,0.0,-0.815,-0.8219,-0.8292,-0.8357,-0.8426,-0.8357,-0.8329,-0.8422,-0.8536,-0.8609,-0.8613,-0.8613,-0.8568,-0.8475,-0.8442,-0.836,-0.8103,-0.7754,-0.7267,-0.6878,-0.6739,-0.6576,-0.6637,-0.6725,-0.6807,-1.4943,-1.4629,-1.3828,-1.3427,-1.334,-1.3601,-1.3257,-1.2535,-1.2201,-1.2751,-1.3776,-1.1443,-1.1165,-1.2425,-1.2164,0.0,-1.2058,-1.2318,-1.2214,-1.178,-1.2209,-1.2349,-1.2234,-1.3486,-1.3863,-1.3523,-1.3249,-1.3037,-1.297,-1.2827,-1.2534,-1.1976,-1.1876,-1.1875,-1.1963,-1.1183,-1.1427,-1.2795,-1.3233,-1.3324,-1.2847,-1.2652,-1.2562,-1.2555,-1.2219,-1.1897,-1.1611,-1.1289,-1.1093,-1.0897,-1.01,-0.9126,-0.7888,0.0,0.0,0.0,0.0,0.0,0.0,0.0,0.0,0.0,0.0,0.0,0.0,0.0,0.0,0.0,-0.4203,0.0,-0.5124,-0.5255,0.0,0.0,0.0,-0.5361,-0.5418,-0.5912,-0.6412,-0.67,0.0,0.0,-0.7525,-0.7707,-0.7833,-0.7922,-0.7967,-0.8057,-0.8057,-0.8231,-0.8418,-0.8589,-0.8739,-0.8893,-0.8995,-0.9023,-0.9015,-0.9023,-0.9096,-0.9068,-0.906,-0.9068,-0.9088,-0.9051,-0.9088,-0.9076,-0.8995,-0.8559,-0.7967,-0.6963,-0.6787,-0.6827,-0.6959,-0.6987,-0.7014,-1.6246,-1.6172,-1.5965,-1.5231,-1.4222,-1.4282,-1.4336,-1.434,-1.43,-1.3697,-1.2673,-1.3162,-1.351,-1.3654,-1.3587,-1.3561,-1.3561,-1.3634,-1.3732,-1.373,-1.3207,-1.3336,-1.392,-1.4083,-1.4021,-1.3844,-1.3701,-1.3514,-1.3361,-1.3446,-1.3494,-1.3353,-1.3426,-1.3042,-1.2022,-1.2055,-1.2262,-1.2808,-1.3297,-1.343,-1.3336,-1.3031,-1.2892,-1.2892,-1.2336,-1.1942,-1.1725,-1.1549,-1.1297,-1.0856,-1.0515,-0.9897,-0.8957,-0.7669,0.0,0.0,0.0,0.0,0.0,0.0,0.0,0.0,0.0,-0.4399,-0.3824,0.0,-0.49,0.0,-0.4919,-0.53,-0.5707,-0.5487,0.0,0.0,-0.5872,-0.5977,-0.6509,-0.6753,-0.6895,-0.7248,-0.7492,-0.7748,-0.8061,-0.826,-0.8426,-0.8548,-0.8487,-0.8434,-0.8446,-0.871,-0.8917,-0.8962,-0.9007,-0.9043,-0.9096,-0.9096,-0.9104,-0.9096,-0.91,-0.9096,-0.9096,-0.9096,-0.9096,-0.9096,-0.9096,-0.8905,-0.8633,-0.8337,-0.8117,-0.7509,-0.7387,-0.7394,-0.7431,-0.7343,-0.7275,-1.6827,-1.6707,-1.6707,-1.6233,-1.5491,-1.5491,-1.5478,-1.5295,-1.4974,-1.4374,-1.387,-1.4435,-1.4359,-1.3947,-1.4302,-1.4476,-1.4482,-1.4482,-1.4563,-1.471,-1.4206,-1.4219,-1.4601,-1.4515,-1.4287,-1.4015,-1.4096,-1.3886,-1.3561,-1.3867,-1.3957,-1.3824,-1.4145,-1.3852,-1.317,-1.2976,-1.3065,-1.3402,-1.3431,-1.3469,-1.3492,-1.3316,-1.3155,-1.3001,-1.2519,-1.2116,-1.1906,-1.1602,-1.1348,-1.1045,-1.0797,-1.0293,-0.948,-0.8629,-0.7562,0.0,0.0,0.0,0.0,0.0,0.0,0.0,0.0,0.0,0.0,0.0,-0.4982,0.0,-0.5399,-0.5856,-0.6173,-0.6092,-0.6197,-0.6509,-0.6509,-0.6643,-0.7033,-0.7216,-0.7495,-0.7687,-0.7882,-0.8101,-0.8377,-0.8568,-0.8743,-0.8922,-0.893,-0.8889,-0.884,-0.9043,-0.921,-0.921,-0.9283,-0.9332,-0.9336,-0.9332,-0.9336,-0.9336,-0.9336,-0.9336,-0.9336,-0.9336,-0.9332,-0.9332,-0.9332,-0.924,-0.8944,-0.8749,-0.856,-0.8272,-0.8083,-0.7842,-0.7628,-0.7533,-0.7472,-1.7048,-1.682,-1.6814,-1.682,-1.6814,-1.682,-1.6439,-1.5889,-1.5155,-1.5166,-1.5905,-1.5404,-1.4793,-1.4012,-1.476,-1.511,-1.5077,-1.5077,-1.5077,-1.5077,-1.5134,-1.501,-1.481,-1.4977,-1.4823,-1.4287,-1.4475,-1.4309,-1.3821,-1.4179,-1.4265,-1.4006,-1.4367,-1.451,-1.4589,-1.4037,-1.3916,-1.4279,-1.383,-1.3618,-1.3565,-1.3565,-1.3382,-1.3016,-1.2694,-1.2305,-1.1978,-1.1538,-1.131,-1.1296,-1.0934,-1.0391,-0.9557,-0.9275,-0.8326,0.0,-0.6451,0.0,0.0,0.0,0.0,0.0,0.0,0.0,0.0,-0.4751,-0.4891,-0.523,-0.5916,-0.6314,-0.6469,-0.679,-0.6948,-0.6859,-0.7106,-0.7305,-0.7334,-0.7626,-0.7894,-0.8065,-0.8243,-0.8426,-0.8617,-0.8783,-0.8958,-0.9108,-0.9267,-0.9303,-0.9214,-0.9295,-0.9388,-0.9393,-0.9522,-0.9583,-0.9596,-0.9608,-0.9608,-0.9616,-0.96,-0.9624,-0.9608,-0.9608,-0.9616,-0.9616,-0.96,-0.9612,-0.9525,-0.9324,-0.9126,-0.8803,-0.8502,-0.8234,-0.7835,-0.7648,-0.7628,-1.7468,-1.7422,-1.7415,-1.7415,-1.7422,-1.7415,-1.7038,-1.648,-1.6381,-1.6335,-1.6533,-1.6426,-1.6142,-1.5833,-1.6025,-1.5892,-1.5665,-1.5665,-1.5671,-1.5658,-1.5636,-1.5423,-1.5094,-1.5479,-1.5438,-1.4986,-1.5061,-1.5001,-1.471,-1.4736,-1.4843,-1.4937,-1.4775,-1.4738,-1.4993,0.0,0.0,0.0,-1.4591,-1.4209,-1.3901,-1.3894,-1.3609,-1.3031,-1.2557,0.0,-1.1855,-1.1418,-1.1122,-1.1108,-1.0819,0.0,0.0,0.0,0.0,0.0,0.0,0.0,0.0,0.0,0.0,0.0,-0.642,-0.5755,-0.5676,-0.604,-0.6254,-0.6185,-0.655,-0.6884,-0.6917,-0.7045,-0.7277,-0.7533,-0.7618,-0.7711,-0.7849,-0.8061,-0.826,-0.8442,-0.8613,-0.8787,-0.8966,-0.9149,-0.9263,-0.9303,-0.9462,-0.9555,-0.9522,-0.9539,-0.9575,-0.9579,-0.9608,-0.9624,-0.9624,-0.9624,-0.9624,-0.9624,-0.9624,-0.9624,-0.9624,-0.9624,-0.9624,-0.9624,-0.9624,-0.9529,-0.9335,-0.9236,-0.9137,-0.8829,-0.8627,-0.8315,-0.7963,-0.7855,-0.7773,-1.7943,0.0,-1.7809,-1.7729,0.0,-1.7589,-1.7415,-1.7128,-1.6987,-1.6847,-1.6707,-1.6707,-1.6627,-1.6486,-1.6486,-1.64,-1.6253,-1.6119,-1.6052,-1.6032,-1.5853,-1.5718,-1.5498,-1.5677,-1.5725,-1.5484,-1.5366,-1.5201,-1.5053,-1.5089,-1.5177,-1.542,-1.5205,-1.5227,-1.5495,-1.5427,-1.5293,-1.5098,-1.4989,-1.456,-1.3993,-1.3986,-1.3748,-1.3107,0.0,0.0,0.0,0.0,0.0,0.0,0.0,0.0,0.0,0.0,0.0,-0.8022,-0.7704,-0.7538,-0.7327,-0.699,-0.6892,-0.7149,-0.6852,-0.6515,-0.6159,-0.6589,-0.6786,-0.6704,-0.7086,-0.735,-0.7434,-0.7508,-0.7687,-0.7866,-0.7967,-0.8093,-0.8268,-0.8446,-0.8625,-0.8796,-0.8905,-0.9023,-0.9202,-0.9295,-0.9393,-0.9474,-0.9567,-0.9628,-0.9624,-0.9624,-0.9624,-0.9624,-0.9624,-0.9624,-0.9624,-0.9624,-0.9628,-0.9624,-0.9624,-0.9624,-0.9624,-0.9624,-0.9624,-0.9624,-0.9624,-0.9529,-0.943,-0.9331,-0.9133,-0.8829,-0.8627,-0.8333,-0.8038,-0.7977,-0.7923,-1.835,-1.813,-1.8123,-1.7976,-1.7742,-1.7742,-1.7716,-1.7649,0.0,0.0,0.0,-1.686,-1.6827,-1.678,-1.6787,-1.6754,-1.6687,-1.646,-1.6319,-1.6259,-1.5923,-1.5777,-1.5832,-1.5825,-1.5812,-1.579,-1.5584,-1.5351,-1.5124,-1.5251,-1.5487,-1.5721,-1.5623,-1.5698,-1.5806,-1.5459,-1.5094,-1.4799,-1.5057,-1.4896,-1.4066,-1.405,-1.3787,-1.3207,-1.2762,-1.2308,-1.1875,-1.1424,-1.1092,-1.1028,-1.0964,-1.0809,-1.052,-1.0267,-0.9832,-0.9008,-0.8769,-0.8274,-0.7573,-0.7521,-0.7381,-0.6979,-0.7183,-0.7163,-0.6688,-0.6956,-0.7139,-0.7139,-0.7545,-0.7817,-0.7849,-0.8008,-0.8122,-0.8154,-0.8321,-0.8495,-0.8645,-0.8779,-0.893,-0.9104,-0.9141,-0.921,-0.9376,-0.9409,-0.9453,-0.9587,-0.9624,-0.9644,-0.9661,-0.9652,-0.9624,-0.9624,-0.9628,-0.9636,-0.9669,-0.9681,-0.9685,-0.9746,-0.9709,-0.9673,-0.9673,-0.9648,-0.9628,-0.9624,-0.9624,-0.9624,-0.9628,-0.9335,-0.9133,-0.8928,-0.8627,-0.8333,-0.8137,-0.8038,-0.8031,-1.847,-1.8424,-1.8424,-1.8404,-1.8364,-1.8364,-1.8223,-1.809,-1.7655,-1.7502,-1.7462,-1.7462,-1.7321,-1.7088,-1.7088,-1.6947,-1.6707,-1.6667,-1.6513,0.0,-1.6005,-1.5853,-1.5832,-1.5825,-1.5812,-1.5778,-1.5772,-1.5745,-1.5685,-1.5742,-1.5803,-1.6022,-1.5927,-1.5812,-1.544,-1.5005,-1.4845,-1.4935,-1.4892,-1.4743,-1.4714,-1.459,-1.4066,-1.325,-1.2816,-1.2423,-1.2137,-1.1668,-1.1506,-1.1783,-1.1512,-1.0988,-1.0224,-1.0593,-1.0483,-0.9703,-1.0386,-1.0848,-1.0698,-1.0815,-1.0286,-0.9113,-0.8336,-0.7805,-0.7602,-0.7748,-0.7862,-0.7866,-0.7943,-0.8044,-0.8199,-0.8381,-0.8544,-0.8686,-0.8869,-0.8995,-0.9011,-0.9039,-0.9125,-0.9299,-0.9315,-0.9388,-0.9539,-0.9579,-0.9579,-0.9616,-0.9624,-0.9673,-0.9758,-0.9717,-0.9636,-0.9624,-0.9624,-0.9689,-0.9815,-0.9847,-0.9904,-1.0067,-0.9937,-0.9827,-0.9827,-0.9713,-0.9632,-0.9624,-0.9624,-0.9624,-0.9624,-0.9331,-0.9137,-0.9034,-0.8733,-0.8333,-0.8237,-0.8137,-0.8038,-1.8878,-1.8731,-1.8731,-1.8631,-1.8497,-1.8497,-1.841,-1.816,-1.8136,-1.7876,-1.7595,-1.7589,-1.7508,-1.7388,-1.7388,-1.7315,-1.7174,-1.7021,-1.6874,-1.674,-1.6348,-1.6019,-1.5866,-1.6066,-1.5992,-1.5838,-1.5825,-1.5825,-1.5812,-1.5792,-1.5919,-1.6171,-1.6071,-1.5949,-1.5827,-1.5345,-1.519,-1.5333,-1.5154,-1.4996,-1.4778,-1.4777,-1.4482,-1.3804,-1.3341,-1.3019,-1.2659,-1.2278,-1.2118,-1.2118,-1.1968,-1.1695,-1.1365,-1.128,-1.1091,-1.07,-1.096,-1.1085,-1.1085,-1.1117,-1.0867,-1.028,-0.9395,-0.8963,-0.9087,-0.8476,-0.8162,-0.8174,-0.8329,-0.8483,-0.8572,-0.8743,-0.8889,-0.8966,-0.9047,-0.9137,-0.9218,-0.9238,-0.9307,-0.9466,-0.9506,-0.9539,-0.9616,-0.9624,-0.9624,-0.9624,-0.9624,-0.9661,-0.9738,-0.9689,-0.9701,-0.9872,-0.9916,-0.9945,-1.0018,-1.0034,-1.0075,-1.0152,-1.0006,-0.99,-0.9876,-0.9742,-0.9644,-0.9624,-0.9624,-0.9624,-0.9628,-0.9229,-0.9031,-0.8931,-0.8535,-0.8237,-0.8137,-0.8038,-0.8038,-1.9239,-1.9018,-1.9025,-1.8898,-1.8684,-1.8736,-1.8591,-1.8466,-1.8517,-1.8353,-1.8049,-1.7835,-1.7649,-1.7589,-1.7589,-1.7582,-1.7555,-1.7355,-1.7215,-1.7128,-1.6799,-1.6427,-1.6052,-1.6306,-1.6152,-1.583,-1.5763,-1.5825,-1.5825,-1.5832,-1.6021,-1.6292,-1.6258,-1.6176,-1.6185,-1.581,-1.5639,-1.5561,-1.5347,-1.514,-1.4901,-1.4928,-1.4777,-1.4332,-1.3902,-1.353,-1.314,-1.2852,-1.2655,-1.2573,-1.2505,-1.2512,-1.2437,-1.1864,-1.1672,-1.1774,-1.1192,-1.0871,-1.092,-1.068,-1.0699,-1.0757,-1.0018,-0.9666,-0.9791,-0.9071,-0.8471,-0.8503,-0.8718,-0.8877,-0.8897,-0.9039,-0.9157,-0.9153,-0.9194,-0.9283,-0.9393,-0.9417,-0.9466,-0.9604,-0.9624,-0.9624,-0.9624,-0.9624,-0.9624,-0.9624,-0.9624,-0.964,-0.9673,-0.9685,-0.9823,-1.0034,-1.0103,-1.0038,-1.0087,-1.0087,-1.0103,-1.0144,-1.001,-0.9908,-0.986,-0.9742,-0.964,-0.9624,-0.9624,-0.9624,-0.9529,-0.9126,-0.8905,-0.8773,-0.8361,-0.7967,-0.7919,-0.7916,-0.7946,-1.9345,-1.9325,-1.9312,-1.9312,-1.9245,-1.9259,-1.9271,-1.9237,-1.8867,-1.8967,-1.9119,-1.8374,-1.7856,-1.7609,-1.7589,-1.7589,-1.7582,-1.7555,-1.7402,-1.7284,-1.7353,-1.7177,-1.6653,-1.6511,-1.6149,-1.5868,-1.5863,-1.5852,-1.5852,-1.6035,-1.6312,-1.6494,-1.6553,-1.6385,-1.6204,-1.6337,-1.618,-1.5616,-1.4998,-1.4972,-1.5278,-1.5151,-1.4821,-1.4293,-1.4068,-1.3815,-1.3488,-1.329,-1.3198,-1.3342,-1.3198,-1.3126,-1.3048,-1.227,-1.2123,-1.2857,-1.1717,-1.1031,-1.1139,-1.0489,-1.0135,-1.0159,-0.9464,-0.9026,-0.9229,-0.9132,-0.9023,-0.9023,-0.9051,-0.9072,-0.908,-0.923,-0.9328,-0.934,-0.9458,-0.9587,-0.9583,-0.9604,-0.9612,-0.962,-0.9624,-0.9624,-0.9624,-0.9624,-0.9624,-0.9624,-0.9624,-0.9669,-0.9778,-0.9807,-0.9864,-1.0018,-0.9904,-0.9795,-0.9896,-0.9916,-1.001,-1.0115,-1.001,-0.9908,-0.9851,-0.975,-0.9624,-0.9624,-0.9624,-0.9624,-0.9525,-0.9221,-0.8776,-0.8608,-0.8261,-0.7804,-0.7689,-0.7668,-0.7712,-1.9366,-1.9366,-1.9366,-1.9366,-1.9461,-1.9367,-1.9442,-1.9428,-1.9193,-1.9292,-1.9374,-1.8749,-1.8303,-1.7849,-1.7669,-1.7589,-1.7589,-1.7589,-1.7528,-1.7408,-1.7519,-1.7482,-1.7204,-1.6962,-1.6707,-1.6394,-1.6129,-1.6092,-1.6066,-1.6014,-1.6028,-1.6116,-1.6116,-1.6048,-1.5926,-1.6047,-1.5986,-1.5665,-1.5431,-1.5392,-1.5432,-1.5092,-1.4685,-1.44,-1.4296,-1.409,-1.3892,-1.381,-1.381,-1.3878,-1.3803,-1.3734,-1.3728,-1.3391,-1.3309,-1.3652,-1.2649,-1.1736,-1.1322,-1.1014,-1.0952,-1.1038,-1.0271,-0.9881,-0.9969,-0.9626,-0.9291,-0.938,-0.9311,-0.925,-0.9267,-0.9413,-0.9518,-0.9527,-0.9587,-0.9624,-0.9624,-0.9624,-0.9624,-0.9624,-0.9624,-0.9624,-0.9624,-0.9624,-0.9624,-0.9624,-0.9624,-0.9669,-0.9726,-0.9734,-0.9766,-0.9811,-0.9709,-0.9774,-0.9961,-1.0046,-1.0079,-1.0103,-1.001,-0.9892,-0.9855,-0.9742,-0.9628,-0.9628,-0.9525,-0.9529,-0.9335,-0.913,-0.8696,-0.8514,-0.8132,-0.7767,-0.7631,-0.76,-0.7604,-1.9366,-1.9366,-1.9366,-1.9366,-1.9366,-1.9366,-1.9366,-1.9366,-1.9366,-1.9381,-1.932,-1.9092,-1.8698,-1.8283,-1.7969,-1.7796,-1.7716,-1.7709,-1.7662,-1.7595,-1.7589,-1.7586,-1.7612,-1.7291,-1.715,-1.6928,-1.6632,-1.6346,-1.6266,-1.6072,-1.5912,-1.5845,-1.5825,-1.5825,-1.5812,-1.5798,-1.5797,-1.5769,-1.5777,-1.5708,-1.5535,-1.5005,-1.4702,-1.4528,-1.4439,-1.4321,-1.4088,-1.4088,-1.4088,-1.4088,-1.4088,-1.4088,-1.4088,-1.3913,-1.3568,-1.3319,-1.3034,-1.229,-1.1071,-1.1191,-1.1251,-1.0965,-1.0473,-1.0265,-1.0236,-0.9807,-0.9486,-0.9583,-0.9506,-0.9429,-0.9441,-0.9547,-0.962,-0.9624,-0.9624,-0.9624,-0.9624,-0.9624,-0.9624,-0.9624,-0.9624,-0.9624,-0.9624,-0.9624,-0.9624,-0.9624,-0.9624,-0.9624,-0.9624,-0.9632,-0.9636,-0.9624,-0.9628,-0.9726,-0.9965,-0.9973,-1.0018,-0.9998,-0.9868,-0.9803,-0.9815,-0.9594,-0.9533,-0.943,-0.943,-0.9327,-0.913,-0.8829,-0.8601,-0.8252,-0.7959,-0.7716,-0.7543,-0.7536,-0.7492,-1.9366,-1.9366,-1.9366,-1.9366,-1.9366,-1.9366,-1.9366,-1.9366,-1.9366,-1.9352,-1.9414,-1.9058,-1.8911,-1.8851,-1.8571,-1.8297,-1.8056,-1.8009,-1.7856,-1.7629,-1.7595,-1.7575,-1.7542,-1.7385,-1.7367,-1.7449,-1.6948,-1.6553,-1.6299,-1.6253,-1.6112,-1.5852,-1.5838,-1.5825,-1.5825,-1.5785,-1.5785,-1.5839,-1.5803,-1.5661,-1.5436,-1.5161,-1.496,-1.4891,-1.4576,-1.4362,-1.42,-1.4095,-1.4095,-1.4095,-1.4088,-1.4088,-1.4004,-1.3313,-1.2546,-1.1791,-1.2505,-1.2275,-1.0612,-1.0515,-1.0334,-0.9754,-0.9606,-0.9509,-0.9755,-0.9686,-0.96,-0.9624,-0.9608,-0.9592,-0.9592,-0.9608,-0.9624,-0.9624,-0.9624,-0.9624,-0.9624,-0.9624,-0.9624,-0.9624,-0.9624,-0.9624,-0.9624,-0.9624,-0.9624,-0.9624,-0.9624,-0.9624,-0.9624,-0.9624,-0.9624,-0.9624,-0.9624,-0.9636,-0.9661,-0.9734,-0.9713,-0.9713,-0.9742,-0.9661,-0.9545,-0.9434,-0.9331,-0.9133,-0.9031,-0.8928,-0.8825,-0.8601,-0.8266,-0.7997,-0.787,-0.7624,-0.757,-0.7434,-0.738,-1.9366,-1.9366,-1.9366,-1.9366,-1.9366,-1.9366,-1.9366,-1.9366,-1.9366,-1.9366,-1.9352,-1.9252,-1.9205,-1.9199,-1.9098,-1.8791,-1.8337,-1.8136,-1.7983,-1.7862,-1.7675,-1.7589,-1.7569,-1.7468,-1.7539,-1.7506,-1.7237,-1.6834,-1.6553,-1.6366,-1.6226,-1.6099,-1.5919,-1.5825,-1.5825,-1.5825,-1.5825,-1.5818,-1.5819,-1.5772,-1.5638,-1.5398,-1.5281,-1.5167,-1.4974,-1.473,-1.4649,-1.4469,-1.4369,-1.4369,-1.4195,-1.4088,-1.4102,-1.3913,-1.3399,-1.2627,-1.2388,-1.1796,-1.0644,-1.0077,-0.975,-0.9448,-0.9466,-0.9547,-0.9612,-0.9624,-0.9624,-0.9624,-0.9624,-0.9624,-0.9624,-0.9624,-0.9624,-0.9624,-0.9624,-0.9624,-0.9624,-0.9624,-0.9624,-0.9624,-0.9624,-0.9624,-0.9624,-0.9624,-0.9624,-0.9624,-0.9624,-0.9624,-0.9624,-0.9624,-0.9624,-0.9624,-0.9624,-0.9624,-0.9628,-0.9632,-0.9632,-0.9632,-0.9632,-0.9537,-0.943,-0.9232,-0.9133,-0.8931,-0.8829,-0.863,-0.8531,-0.8329,-0.8082,-0.8055,-0.7821,-0.7726,-0.7665,-0.7539,-0.7438,-1.9366,-1.9366,-1.9366,-1.9366,-1.9366,-1.9366,-1.9366,-1.9366,-1.9366,-1.9366,-1.9366,-1.9366,-1.9366,-1.9366,-1.9366,-1.9172,-1.8764,-1.847,-1.8283,-1.817,-1.7876,-1.7729,-1.7596,-1.7629,-1.7589,-1.7555,-1.7388,-1.7141,-1.686,-1.6653,-1.646,-1.6266,-1.6066,-1.5919,-1.5852,-1.5825,-1.5825,-1.5825,-1.5825,-1.5825,-1.5798,-1.5638,-1.5538,-1.5511,-1.5344,-1.5144,-1.4977,-1.477,-1.4663,-1.4636,-1.4469,-1.4369,-1.4396,-1.4556,-1.4392,-1.3704,-1.3001,-1.2129,-1.1233,-1.0378,-0.9824,-0.9445,-0.9551,-0.9624,-0.9624,-0.9624,-0.9624,-0.9624,-0.9624,-0.9624,-0.9624,-0.9624,-0.9624,-0.9624,-0.9624,-0.9624,-0.9624,-0.9624,-0.9624,-0.9624,-0.9624,-0.9624,-0.9624,-0.9624,-0.9624,-0.9624,-0.9624,-0.9624,-0.9624,-0.9624,-0.9624,-0.9624,-0.9624,-0.9624,-0.9628,-0.9628,-0.9628,-0.9628,-0.9529,-0.943,-0.9232,-0.9133,-0.8935,-0.873,-0.8531,-0.8432,-0.8333,-0.8137,-0.8035,-0.8031,-0.7967,-0.7865,-0.777,-0.7655,-0.7567,-1.9366,-1.9366,-1.9366,-1.9366,-1.9366,-1.9366,-1.9366,-1.9366,-1.9366,-1.9366,-1.9366,-1.9366,-1.9366,-1.9366,-1.9366,-1.9345,-1.9245,-1.8991,-1.8731,-1.8477,-1.8156,-1.7882,-1.7626,-1.7596,-1.7589,-1.7589,-1.7575,-1.7422,-1.7264,-1.7081,-1.6814,-1.64,-1.6273,-1.6106,-1.5845,-1.5852,-1.5825,-1.5825,-1.5825,-1.5825,-1.5825,-1.5798,-1.5785,-1.5798,-1.5765,-1.5531,-1.5037,-1.4983,-1.4963,-1.4963,-1.493,-1.504,-1.4897,-1.4943,-1.4963,-1.4637,-1.4105,-1.3298,-1.2215,-1.1332,-1.0369,-0.9792,-0.962,-0.9624,-0.9624,-0.9624,-0.9624,-0.9624,-0.9624,-0.9624,-0.9624,-0.9624,-0.9624,-0.9624,-0.9624,-0.9624,-0.9624,-0.9624,-0.9624,-0.9624,-0.9624,-0.9624,-0.9624,-0.9624,-0.9624,-0.9624,-0.9648,-0.9661,-0.9669,-0.9673,-0.9644,-0.9657,-0.9652,-0.9636,-0.9632,-0.9632,-0.9632,-0.9533,-0.9529,-0.943,-0.9031,-0.8931,-0.8733,-0.8432,-0.8333,-0.8237,-0.8137,-0.8038,-0.8038,-0.8028,-0.7997,-0.7974,-0.7879,-0.7773,-0.7706,-1.9366,-1.9366,-1.9366,-1.9366,-1.9366,-1.9366,-1.9366,-1.9366,-1.9366,-1.9366,-1.9366,-1.9366,-1.9366,-1.9366,-1.9366,-1.9366,-1.9359,-1.9259,-1.9072,-1.8744,-1.8283,-1.7941,-1.7646,-1.7616,-1.7589,-1.7589,-1.7589,-1.7542,-1.7422,-1.7255,-1.7034,-1.6847,-1.6466,-1.6239,-1.6119,-1.5939,-1.5825,-1.5825,-1.5825,-1.5825,-1.5825,-1.5825,-1.5825,-1.5825,-1.5825,-1.5732,-1.5565,-1.5371,-1.5264,-1.5264,-1.507,-1.506,-1.4997,-1.515,-1.4878,-1.4247,-1.3431,-1.2614,-1.1564,-1.0649,-1.0015,-0.9723,-0.9624,-0.9624,-0.9624,-0.9624,-0.9624,-0.9624,-0.9624,-0.9624,-0.9624,-0.9624,-0.9624,-0.9624,-0.9624,-0.9624,-0.9624,-0.9624,-0.9624,-0.9624,-0.9624,-0.9624,-0.9628,-0.9628,-0.9644,-0.9657,-0.973,-0.9803,-0.9807,-0.9807,-0.9872,-0.9957,-0.9827,-0.9693,-0.9721,-0.961,-0.9466,-0.9343,-0.9331,-0.9229,-0.8931,-0.8634,-0.8432,-0.8233,-0.8137,-0.8038,-0.8038,-0.8038,-0.8038,-0.8038,-0.8021,-0.7994,-0.7963,-0.7899,-0.7818,-1.9366,-1.9366,-1.9366,-1.9366,-1.9366,-1.9366,-1.9366,-1.9366,-1.9366,-1.9366,-1.9366,-1.9366,-1.9366,-1.9366,-1.9366,-1.9366,-1.9366,-1.9366,-1.9265,-1.9038,-1.8617,-1.8253,-1.7934,-1.7694,-1.7563,-1.7595,-1.7589,-1.7589,-1.7575,-1.7402,-1.7255,-1.7183,-1.6774,-1.6473,-1.6293,-1.5983,-1.5843,-1.5845,-1.5825,-1.5825,-1.5825,-1.5825,-1.5825,-1.5825,-1.5825,-1.5825,-1.5818,-1.5645,-1.5551,-1.5531,-1.5371,-1.5291,-1.5304,-1.5086,-1.4703,-1.3968,-1.2816,-1.1848,-1.1175,-1.0301,-0.9624,-0.9624,-0.9624,-0.9624,-0.9624,-0.9624,-0.9624,-0.9624,-0.9624,-0.9624,-0.9624,-0.9624,-0.9624,-0.9624,-0.9624,-0.9624,-0.9624,-0.9624,-0.9624,-0.9624,-0.9624,-0.9624,-0.9628,-0.9701,-0.9717,-0.9746,-0.9876,-0.9985,-0.9989,-0.9989,-1.0079,-1.0115,-1.0006,-0.9912,-0.9864,-0.9597,-0.931,-0.9168,-0.9031,-0.8829,-0.863,-0.8531,-0.8333,-0.8233,-0.8038,-0.8038,-0.8038,-0.8038,-0.8038,-0.8038,-0.8038,-0.8021,-0.7994,-0.797,-0.7913,-1.9366,-1.9366,-1.9366,-1.9366,-1.9366,-1.9366,-1.9366,-1.9366,-1.9366,-1.9366,-1.9366,-1.9366,-1.9366,-1.9366,-1.9366,-1.9366,-1.9366,-1.9366,-1.9359,-1.9265,-1.9025,-1.8738,-1.8434,-1.7856,-1.7635,-1.7675,-1.7609,-1.7589,-1.7582,-1.7549,-1.7442,-1.7215,-1.721,-1.6982,-1.646,-1.5986,-1.5796,-1.5925,-1.5852,-1.5825,-1.5825,-1.5825,-1.5825,-1.5825,-1.5825,-1.5825,-1.5818,-1.5798,-1.5798,-1.5818,-1.5765,-1.5644,-1.5507,-1.4777,-1.4364,-1.3872,-1.2242,-1.137,-1.0881,-1.0109,-0.9624,-0.9624,-0.9624,-0.9624,-0.9624,-0.9624,-0.9624,-0.9624,-0.9624,-0.9624,-0.9624,-0.9624,-0.9624,-0.9624,-0.9624,-0.9624,-0.9624,-0.9624,-0.9624,-0.9624,-0.9624,-0.9636,-0.9657,-0.9786,-0.9851,-0.9937,-1.0059,-1.0156,-1.0176,-1.018,-1.0188,-1.018,-1.0172,-0.9999,-0.9943,-0.9563,-0.9282,-0.9048,-0.8877,-0.8621,-0.846,-0.834,-0.8333,-0.8137,-0.8038,-0.8038,-0.8038,-0.8038,-0.8038,-0.8038,-0.8038,-0.8038,-0.8024,-0.8001,-0.7991,-1.9366,-1.9366,-1.9366,-1.9366,-1.9366,-1.9366,-1.9366,-1.9366,-1.9366,-1.9366,-1.9366,-1.9366,-1.9366,-1.9366,-1.9366,-1.9366,-1.9366,-1.9366,-1.9366,-1.9359,-1.9299,-1.8978,-1.8486,-1.7875,-1.7652,-1.7782,-1.7682,-1.7589,-1.7589,-1.7589,-1.7535,-1.7468,-1.7255,-1.7088,-1.6887,-1.6163,-1.5927,-1.6126,-1.5925,-1.5838,-1.5825,-1.5825,-1.5825,-1.5825,-1.5825,-1.5825,-1.5825,-1.5825,-1.5825,-1.5825,-1.5825,-1.5445,-1.4777,-1.4394,-1.3613,-1.2242,-1.156,-1.0783,-1.0207,-0.9821,-0.9624,-0.9624,-0.9624,-0.9624,-0.9624,-0.9624,-0.9624,-0.9624,-0.9624,-0.9624,-0.9624,-0.9624,-0.9624,-0.9624,-0.9644,-0.964,-0.9636,-0.9624,-0.9624,-0.9624,-0.964,-0.9705,-0.9803,-0.988,-0.9961,-1.0087,-1.0233,-1.0363,-1.0363,-1.0367,-1.0371,-1.0404,-1.0391,-1.0196,-0.9906,-0.9522,-0.9265,-0.8938,-0.8767,-0.8466,-0.8264,-0.8158,-0.8045,-0.8038,-0.8038,-0.8038,-0.8038,-0.8038,-0.8038,-0.8038,-0.8038,-0.8038,-0.8038,-0.8024,-0.8021,-1.9366,-1.9366,-1.9366,-1.9366,-1.9366,-1.9366,-1.9366,-1.9366,-1.9366,-1.9366,-1.9366,-1.9366,-1.9366,-1.9366,-1.9366,-1.9366,-1.9366,-1.9366,-1.9366,-1.9366,-1.9359,-1.9105,-1.8698,-1.8137,-1.8048,-1.7901,-1.7736,-1.7602,-1.7589,-1.7589,-1.7589,-1.7555,-1.7415,-1.7281,-1.7114,-1.684,-1.6381,-1.6293,-1.5983,-1.5761,-1.5838,-1.5825,-1.5825,-1.5825,-1.5825,-1.5825,-1.5825,-1.5825,-1.5825,-1.5825,-1.573,-1.5356,-1.4394,-1.3806,-1.2926,-1.1268,-1.0783,-1.0207,-0.9821,-0.9624,-0.9624,-0.9624,-0.9624,-0.9624,-0.9624,-0.9624,-0.9624,-0.9624,-0.9624,-0.9624,-0.9624,-0.9624,-0.9665,-0.973,-0.9738,-0.9734,-0.9734,-0.9742,-0.9778,-0.9819,-0.9855,-0.988,-0.9998,-1.0059,-1.0156,-1.0274,-1.0432,-1.0509,-1.0546,-1.0546,-1.0542,-1.0558,-1.0446,-1.0146,-0.9846,-0.9455,-0.918,-0.8955,-0.8727,-0.8428,-0.8286,-0.814,-0.8089,-0.8079,-0.8055,-0.8038,-0.8038,-0.8038,-0.8038,-0.8038,-0.8038,-0.8038,-0.8038,-0.8038,-0.8038,-1.9366,-1.9366,-1.9366,-1.9366,-1.9366,-1.9366,-1.9366,-1.9366,-1.9366,-1.9366,-1.9366,-1.9366,-1.9366,-1.9366,-1.9366,-1.9366,-1.9366,-1.9366,-1.9366,-1.9366,-1.9352,-1.9205,-1.8971,-1.8789,-1.8404,-1.813,-1.7789,-1.7642,-1.7602,-1.7589,-1.7589,-1.7575,-1.7569,-1.7442,-1.7371,-1.7367,-1.7089,-1.6493,-1.6064,-1.5906,-1.5843,-1.5865,-1.5825,-1.5825,-1.5825,-1.5825,-1.5825,-1.5825,-1.5825,-1.5825,-1.5825,-1.5153,-1.4196,-1.3125,-1.215,-1.1077,-1.0207,-0.9723,-0.9624,-0.9624,-0.9624,-0.9624,-0.9624,-0.9624,-0.9624,-0.9624,-0.9624,-0.9624,-0.9624,-0.9624,-0.9632,-0.964,-0.973,-0.9835,-0.9884,-0.9916,-0.9933,-0.9925,-0.9981,-1.0128,-1.0148,-1.0164,-1.0229,-1.0318,-1.0436,-1.044,-1.0566,-1.0603,-1.0631,-1.0522,-1.0526,-1.0433,-1.0311,-1.0073,-0.9671,-0.9381,-0.9212,-0.8955,-0.8745,-0.857,-0.8431,-0.8299,-0.8194,-0.8136,-0.8092,-0.8058,-0.8038,-0.8038,-0.8038,-0.8038,-0.8038,-0.8038,-0.8038,-0.8038,-0.8038,-1.9366,-1.9366,-1.9366,-1.9366,-1.9366,-1.9366,-1.9366,-1.9366,-1.9366,-1.9366,-1.9366,-1.9366,-1.9366,-1.9366,-1.9366,-1.9366,-1.9366,-1.9366,-1.9366,-1.9366,-1.9366,-1.9345,-1.9327,-1.9219,-1.8921,-1.8377,-1.809,-1.7822,-1.7649,-1.7589,-1.7589,-1.7589,-1.7582,-1.7549,-1.758,-1.7502,-1.7456,-1.6894,-1.6203,-1.6051,-1.6036,-1.5945,-1.5845,-1.5832,-1.5825,-1.5825,-1.5825,-1.5825,-1.5825,-1.5825,-1.5635,-1.4765,-1.3409,-1.2829,-1.176,-1.0498,-0.9817,-0.9624,-0.9624,-0.9624,-0.9624,-0.9624,-0.9624,-0.9624,-0.9624,-0.9624,-0.9624,-0.9624,-0.9624,-0.9628,-0.9657,-0.9758,-0.9855,-0.9933,-1.0034,-1.0156,-1.0253,-1.0184,-1.0144,-1.0168,-1.0193,-1.0217,-1.0351,-1.04,-1.0505,-1.0607,-1.0655,-1.0684,-1.0692,-1.0586,-1.0476,-1.0472,-1.0135,-0.9892,-0.9647,-0.9374,-0.9124,-0.897,-0.8858,-0.874,-0.8598,-0.8435,-0.8326,-0.8214,-0.8116,-0.8085,-0.8058,-0.8038,-0.8038,-0.8038,-0.8038,-0.8038,-0.8038,-0.8038,-0.8038,-1.9366,-1.9366,-1.9366,-1.9366,-1.9366,-1.9366,-1.9366,-1.9366,-1.9366,-1.9366,-1.9366,-1.9366,-1.9366,-1.9366,-1.9366,-1.9366,-1.9366,-1.9366,-1.9366,-1.9366,-1.9366,-1.9366,-1.9352,-1.932,-1.9058,-1.8517,-1.8183,-1.7889,-1.7662,-1.7589,-1.7589,-1.7589,-1.7589,-1.7582,-1.7582,-1.7651,-1.7405,-1.723,-1.686,-1.6567,-1.6286,-1.6132,-1.5939,-1.5858,-1.5825,-1.5825,-1.5825,-1.5255,-1.5159,-1.4962,-1.4573,-1.389,-1.2823,-1.2242,-1.1179,-1.0015,-0.9624,-0.9624,-0.9624,-0.9624,-0.9624,-0.9624,-0.9624,-0.9624,-0.9624,-0.9624,-0.9624,-0.9624,-0.9636,-0.9657,-0.9746,-0.9912,-1.0022,-1.0144,-1.0225,-1.0363,-1.0481,-1.04,-1.0331,-1.0379,-1.0432,-1.0469,-1.0526,-1.0526,-1.0558,-1.066,-1.0664,-1.0692,-1.0692,-1.0582,-1.0472,-1.0363,-1.0036,-0.9812,-0.9592,-0.9354,-0.902,-0.8992,-0.8869,-0.8859,-0.8794,-0.8618,-0.8445,-0.8319,-0.8191,-0.8113,-0.8082,-0.8062,-0.8038,-0.8038,-0.8038,-0.8038,-0.8038,-0.8038,-0.8038,-1.9366,-1.9366,-1.9366,-1.9366,-1.9366,-1.9366,-1.9366,-1.9366,-1.9366,-1.9366,-1.9366,-1.9366,-1.9366,-1.9366,-1.9366,-1.9366,-1.9366,-1.9366,-1.9366,-1.9366,-1.9366,-1.9366,-1.9345,-1.9225,-1.8971,-1.8497,-1.827,-1.7969,-1.7675,-1.7589,-1.7589,-1.7589,-1.7589,-1.7589,-1.7582,-1.7569,-1.7468,-1.7268,-1.7353,-1.7238,-1.6612,-1.6444,-1.6099,-1.5879,-1.5445,-1.5445,-1.5255,-1.458,-1.4004,-1.4004,-1.3028,-1.2533,-1.2242,-1.1755,-1.069,-0.9723,-0.9624,-0.9624,-0.9624,-0.9624,-0.9624,-0.9624,-0.9624,-0.9624,-0.9624,-0.9624,-0.9624,-0.9644,-0.9665,-0.9742,-0.988,-1.0083,-1.0253,-1.0379,-1.044,-1.0542,-1.0619,-1.0558,-1.055,-1.0615,-1.0603,-1.0611,-1.0635,-1.0647,-1.0676,-1.0692,-1.0692,-1.0692,-1.0692,-1.0582,-1.0472,-1.0253,-0.9926,-0.9489,-0.9268,-0.9265,-0.8937,-0.8937,-0.8937,-0.893,-0.8916,-0.8804,-0.8615,-0.8401,-0.8272,-0.8187,-0.8102,-0.8055,-0.8038,-0.8038,-0.8038,-0.8038,-0.8038,-0.8038,-0.8038,-1.9366,-1.9366,-1.9366,-1.9366,-1.9366,-1.9366,-1.9366,-1.9366,-1.9366,-1.9366,-1.9366,-1.9366,-1.9366,-1.9366,-1.9366,-1.9366,-1.9366,-1.9366,-1.9366,-1.9366,-1.9366,-1.9359,-1.9285,-1.899,-1.8579,-1.8571,-1.8364,-1.8076,-1.7695,-1.7589,-1.7589,-1.7589,-1.7589,-1.7589,-1.7589,-1.7582,-1.7562,-1.7448,-1.7529,-1.7429,-1.7225,-1.6605,-1.6036,-1.5681,-1.5064,-1.4682,-1.4292,-1.3607,-1.3022,-1.2926,-1.195,-1.156,-1.1365,-1.1175,-1.0596,-0.992,-0.9624,-0.9624,-0.9624,-0.9624,-0.9624,-0.9624,-0.9624,-0.9624,-0.9624,-0.9628,-0.964,-0.9689,-0.977,-0.9864,-0.9888,-1.0197,-1.0367,-1.0469,-1.0554,-1.0647,-1.0672,-1.066,-1.0635,-1.0684,-1.0692,-1.0692,-1.0692,-1.0692,-1.0692,-1.0692,-1.0692,-1.0692,-1.0582,-1.0472,-1.0366,-1.0147,-0.9816,-0.9379,-0.9051,-0.9047,-0.8937,-0.8937,-0.8937,-0.8937,-0.893,-0.893,-0.8788,-0.8547,-0.8353,-0.8238,-0.8153,-0.8075,-0.8038,-0.8038,-0.8038,-0.8038,-0.8038,-0.8038,-0.8038,-1.9225,-1.9366,-1.9366,-1.9366,-1.9366,-1.9366,-1.9366,-1.9366,-1.9366,-1.9366,-1.9366,-1.9366,-1.9366,-1.9366,-1.9366,-1.9366,-1.9366,-1.9366,-1.9366,-1.9366,-1.9366,-1.9259,-1.9165,-1.8717,-1.8407,-1.8253,-1.823,-1.8043,-1.7622,-1.7589,-1.7589,-1.7589,-1.7589,-1.7589,-1.7589,-1.7589,-1.7589,-1.7654,-1.756,-1.7633,-1.7572,-1.6799,-1.5959,-1.5051,-1.4586,-1.41,-1.3312,-1.2441,-1.195,-1.176,-1.0988,-1.0498,-1.04,-1.0404,-1.0207,-0.9723,-0.9624,-0.9624,-0.9624,-0.9624,-0.9624,-0.9624,-0.9624,-0.9624,-0.9624,-0.9632,-0.9681,-0.9782,-0.9925,-1.0071,-1.0176,-1.0408,-1.0538,-1.0578,-1.0643,-1.068,-1.0692,-1.0692,-1.0692,-1.0692,-1.0692,-1.0692,-1.0692,-1.0692,-1.0692,-1.0692,-1.0692,-1.0582,-1.0582,-1.0363,-1.0257,-0.9926,-0.9596,-0.9268,-0.8937,-0.8937,-0.8937,-0.8937,-0.8937,-0.8937,-0.8937,-0.8933,-0.8838,-0.8655,-0.8486,-0.8336,-0.8204,-0.8126,-0.8085,-0.8041,-0.8038,-0.8038,-0.8038,-0.8038,-0.8038,-1.9011,-1.9279,-1.9279,-1.9305,-1.9359,-1.9366,-1.9366,-1.9366,-1.9366,-1.9366,-1.9366,-1.9366,-1.9366,-1.9366,-1.9366,-1.9366,-1.9366,-1.9366,-1.9366,-1.9366,-1.9359,-1.9212,-1.8991,-1.8546,-1.819,-1.8156,-1.7963,-1.7829,-1.7635,-1.7589,-1.7589,-1.7589,-1.7589,-1.7589,-1.7589,-1.7589,-1.7589,-1.7589,-1.7582,-1.7553,-1.7319,-1.676,-1.5732,-1.4479,-1.413,-1.3414,-1.2436,-1.1468,-1.0984,-1.069,-1.0207,-0.9624,-0.9624,-0.9624,-0.9624,-0.9624,-0.9624,-0.9624,-0.9624,-0.9624,-0.9624,-0.9624,-0.9624,-0.9644,-0.9709,-0.9762,-0.9819,-0.9941,-1.0107,-1.0253,-1.0375,-1.0574,-1.0664,-1.068,-1.068,-1.0692,-1.0692,-1.0692,-1.0692,-1.0692,-1.0692,-1.0692,-1.0692,-1.0692,-1.0692,-1.0692,-1.0582,-1.0472,-1.0363,-1.0253,-1.0036,-0.9706,-0.9489,-0.9158,-0.9047,-0.8937,-0.8937,-0.8937,-0.8937,-0.8937,-0.8937,-0.8937,-0.8832,-0.8747,-0.8635,-0.8486,-0.8333,-0.8184,-0.8126,-0.8085,-0.8055,-0.8038,-0.8038,-0.8038,-0.8038,-1.8711,-1.8971,-1.8978,-1.9125,-1.9339,-1.9352,-1.9366,-1.9366,-1.9366,-1.9366,-1.9366,-1.9366,-1.9366,-1.9366,-1.9366,-1.9366,-1.9366,-1.9366,-1.9366,-1.9366,-1.9448,-1.9293,-1.9151,-1.8144,-1.7994,-1.8003,-1.7769,-1.7642,-1.7589,-1.7589,-1.7589,-1.7589,-1.7589,-1.7589,-1.7589,-1.7589,-1.7589,-1.7589,-1.7589,-1.7448,-1.7264,-1.682,-1.5812,-1.4636,-1.3459,-1.2452,-1.1477,-1.0498,-1.0015,-0.9916,-0.9723,-0.9624,-0.9624,-0.9624,-0.9624,-0.9624,-0.9624,-0.9624,-0.9624,-0.9624,-0.9624,-0.9624,-0.9624,-0.9709,-0.9811,-0.9965,-1.0059,-1.0119,-1.0286,-1.04,-1.0477,-1.0599,-1.0668,-1.0692,-1.0692,-1.0692,-1.0692,-1.0692,-1.0692,-1.0692,-1.0692,-1.0692,-1.0696,-1.0692,-1.0692,-1.0582,-1.0472,-1.0363,-1.0143,-0.9926,-0.9816,-0.9489,-0.9268,-0.9047,-0.8937,-0.8937,-0.8937,-0.8937,-0.8937,-0.8937,-0.8937,-0.8937,-0.8937,-0.8849,-0.874,-0.8587,-0.8384,-0.8252,-0.8177,-0.8119,-0.8079,-0.8055,-0.8038,-0.8038,-0.8038,-1.8257,-1.8671,-1.8677,-1.8851,-1.9105,-1.9112,-1.9212,-1.9345,-1.9366,-1.9366,-1.9366,-1.9366,-1.9366,-1.9366,-1.9366,-1.9366,-1.9366,-1.9366,-1.9366,-1.9428,-1.9334,-1.9232,-1.8908,-1.813,-1.7718,-1.7829,-1.7675,-1.7622,-1.7589,-1.7589,-1.7589,-1.7589,-1.7589,-1.7589,-1.7589,-1.7589,-1.7589,-1.7589,-1.7569,-1.7435,-1.7085,-1.6369,-1.5303,-1.391,-1.2589,-1.1495,-1.0529,-0.9916,-0.9624,-0.9624,-0.9624,-0.9624,-0.9624,-0.9624,-0.9624,-0.9624,-0.9624,-0.9624,-0.9624,-0.9624,-0.9624,-0.9632,-0.9644,-0.9705,-0.9872,-1.0063,-1.0233,-1.0314,-1.0379,-1.0469,-1.0554,-1.0643,-1.0672,-1.0692,-1.0692,-1.0692,-1.0692,-1.0692,-1.0692,-1.0692,-1.0692,-1.0582,-1.0586,-1.0582,-1.0472,-1.0366,-1.0257,-1.0147,-0.9816,-0.9379,-0.9268,-0.9161,-0.9047,-0.8937,-0.8937,-0.8937,-0.8937,-0.8937,-0.8937,-0.8937,-0.8937,-0.8937,-0.8937,-0.8937,-0.8869,-0.8682,-0.8448,-0.8316,-0.8238,-0.8167,-0.8099,-0.8069,-0.8038,-0.8038,-0.8038,-1.7849,-1.8263,-1.835,-1.8544,-1.8818,-1.8891,-1.9052,-1.9374,-1.9461,-1.9366,-1.9366,-1.9366,-1.9366,-1.9366,-1.9366,-1.9366,-1.9366,-1.9366,-1.9366,-1.9394,-1.9327,-1.9169,-1.8648,-1.7965,-1.7655,-1.7589,-1.7609,-1.7589,-1.7589,-1.7589,-1.7589,-1.7589,-1.7589,-1.7589,-1.7589,-1.7589,-1.7589,-1.7582,-1.6797,-1.6584,-1.6541,-1.5597,-1.4316,-1.3041,-1.1942,-1.082,-0.9909,-0.9636,-0.9624,-0.9624,-0.9624,-0.9624,-0.9624,-0.9624,-0.9624,-0.9624,-0.9624,-0.9624,-0.9624,-0.9624,-0.9624,-0.9652,-0.9762,-0.9888,-1.0046,-1.0193,-1.0331,-1.0493,-1.0505,-1.0582,-1.0655,-1.0688,-1.0688,-1.0692,-1.0692,-1.0692,-1.0692,-1.0692,-1.0692,-1.0692,-1.0582,-1.0476,-1.0472,-1.0363,-1.0363,-1.0147,-1.0036,-0.982,-0.9489,-0.9047,-0.9047,-0.894,-0.894,-0.8937,-0.8937,-0.8937,-0.8937,-0.8937,-0.8937,-0.8937,-0.8937,-0.8937,-0.8937,-0.8937,-0.8937,-0.8801,-0.8581,-0.8435,-0.8292,-0.817,-0.8069,-0.8055,-0.8038,-0.8038,-0.8038,-1.7609,-1.7662,-1.7963,-1.825,-1.8537,-1.8818,-1.9051,-1.9367,-1.9361,-1.9319,-1.9325,-1.9352,-1.9332,-1.9366,-1.9366,-1.9366,-1.9366,-1.9366,-1.9366,-1.9394,-1.932,-1.9009,-1.8574,-1.8034,-1.7622,-1.7629,-1.7589,-1.7589,-1.7589,-1.7589,-1.7589,-1.7589,-1.7589,-1.7589,-1.7589,-1.7589,-1.7246,-1.6797,-1.5671,-1.5246,-1.5288,-1.4667,-1.3351,-1.2506,-1.1713,-1.0878,-0.9961,-0.9734,-0.9661,-0.9661,-0.9636,-0.9624,-0.9624,-0.9624,-0.9624,-0.9624,-0.9624,-0.9624,-0.9624,-0.9628,-0.9632,-0.9721,-0.9908,-1.0152,-1.0286,-1.0521,-1.0651,-1.0639,-1.0623,-1.0647,-1.0684,-1.0692,-1.0692,-1.0692,-1.0692,-1.0692,-1.0692,-1.0692,-1.0692,-1.0692,-1.0476,-1.0366,-1.0147,-1.0036,-1.0033,-0.9816,-0.9599,-0.9489,-0.9268,-0.8937,-0.8937,-0.8937,-0.8937,-0.8937,-0.8937,-0.8937,-0.8937,-0.8937,-0.8937,-0.8937,-0.8937,-0.8937,-0.8937,-0.8937,-0.8927,-0.8825,-0.8716,-0.8533,-0.8347,-0.8147,-0.8041,-0.8038,-0.8038,-0.8038,-0.8038,-1.7589,-1.7595,-1.7716,-1.7936,-1.8223,-1.8337,-1.8746,-1.9291,-1.903,-1.8938,-1.9098,-1.9098,-1.9199,-1.9319,-1.9366,-1.9366,-1.9366,-1.9366,-1.9366,-1.9449,-1.9312,-1.9013,-1.848,-1.7935,-1.7576,-1.7602,-1.7589,-1.7589,-1.7589,-1.7589,-1.7589,-1.7589,-1.7589,-1.7589,-1.7589,-1.747,-1.6903,-1.5665,-1.4781,-1.4473,-1.4308,-1.3633,-1.2666,-1.2197,-1.119,-1.0672,-1.0154,-0.988,-0.9811,-0.9754,-0.9681,-0.9648,-0.9628,-0.9624,-0.9624,-0.9624,-0.9624,-0.9632,-0.964,-0.9644,-0.9669,-0.9851,-1.0107,-1.0363,-1.0452,-1.0599,-1.0676,-1.0688,-1.0692,-1.0692,-1.0692,-1.0692,-1.0692,-1.0692,-1.0692,-1.0692,-1.0692,-1.0692,-1.0582,-1.0366,-1.0257,-1.0147,-0.993,-0.9599,-0.9599,-0.9489,-0.9268,-0.9047,-0.8937,-0.8937,-0.8937,-0.8937,-0.8937,-0.8937,-0.8937,-0.8937,-0.8937,-0.8937,-0.8937,-0.8937,-0.8937,-0.8937,-0.8937,-0.8937,-0.892,-0.8838,-0.873,-0.8584,-0.8408,-0.8214,-0.8099,-0.8038,-0.8038,-0.8038,-0.7839,-1.7589,-1.7589,-1.7589,-1.7702,-1.7909,-1.8003,-1.8285,-1.8727,-1.8719,-1.8591,-1.8672,-1.8798,-1.8958,-1.9172,-1.9225,-1.9305,-1.9339,-1.9366,-1.9366,-1.9408,-1.9217,-1.8925,-1.8413,-1.7969,-1.7615,-1.7589,-1.7589,-1.7589,-1.7589,-1.7589,-1.7589,-1.7589,-1.7589,-1.7589,-1.7589,-1.747,-1.6679,-1.5441,-1.356,-1.4035,-1.411,-1.3259,-1.2798,-1.253,-1.1709,-1.1093,-1.0736,-1.0376,-0.9933,-0.986,-0.9778,-0.9689,-0.9648,-0.9624,-0.9628,-0.9624,-0.9632,-0.9644,-0.9693,-0.9717,-0.9815,-1.0071,-1.0249,-1.0428,-1.053,-1.0627,-1.0684,-1.0692,-1.0692,-1.0692,-1.0692,-1.0692,-1.0692,-1.0692,-1.0692,-1.0692,-1.0582,-1.0472,-1.0366,-1.0147,-1.0036,-0.982,-0.9706,-0.9379,-0.9268,-0.9268,-0.9158,-0.9047,-0.8937,-0.8937,-0.8937,-0.8937,-0.8937,-0.8937,-0.8937,-0.8937,-0.8937,-0.8937,-0.8937,-0.8937,-0.8937,-0.8937,-0.8937,-0.8937,-0.891,-0.8855,-0.8737,-0.8584,-0.8438,-0.8289,-0.817,-0.8038,-0.8038,-0.7939,-0.764,-1.7589,-1.7589,-1.7589,-1.7595,-1.7655,-1.7916,-1.7921,-1.7961,-1.8426,-1.845,-1.8242,-1.8373,-1.8657,-1.8891,-1.8965,-1.9105,-1.9279,-1.9339,-1.9366,-1.9347,-1.9036,-1.8786,-1.84,-1.7949,-1.7589,-1.7589,-1.7589,-1.7589,-1.7589,-1.7589,-1.7589,-1.7589,-1.7589,-1.7589,-1.7589,-1.7589,-1.7582,-1.6791,-1.3118,-1.3826,-1.4319,-1.3491,-1.3244,-1.2984,-1.2452,-1.1833,-1.1349,-1.0666,-1.0111,-1.0002,-0.9892,-0.9786,-0.9685,-0.9644,-0.9628,-0.9624,-0.964,-0.9726,-0.9864,-0.988,-1.0059,-1.0294,-1.0428,-1.0517,-1.0635,-1.0692,-1.0692,-1.0692,-1.0692,-1.0692,-1.0692,-1.0692,-1.0692,-1.0692,-1.0692,-1.0692,-1.0582,-1.0472,-1.0366,-1.0147,-0.982,-0.9489,-0.9268,-0.9158,-0.9047,-0.8937,-0.8937,-0.8937,-0.8937,-0.8937,-0.8937,-0.8937,-0.8937,-0.8937,-0.8937,-0.8937,-0.8937,-0.8937,-0.8937,-0.8937,-0.8937,-0.8937,-0.8937,-0.8937,-0.8913,-0.8876,-0.8737,-0.8581,-0.8404,-0.8228,-0.8133,-0.8038,-0.8038,-0.7739,-0.7338,-1.7589,-1.7589,-1.7589,-1.7589,-1.7602,-1.7689,-1.7629,-1.7643,-1.7856,-1.7888,-1.7919,-1.8074,-1.8357,-1.8604,-1.8824,-1.8951,-1.9072,-1.9325,-1.9366,-1.9272,-1.8982,-1.8689,-1.842,-1.7923,-1.7595,-1.7589,-1.7589,-1.7589,-1.7589,-1.7589,-1.7589,-1.7589,-1.7589,-1.7589,-1.7589,-1.7477,-1.7246,-1.6268,-1.5293,-1.5334,-1.4787,-1.3922,-1.3383,-1.3166,-1.2656,-1.2084,-1.1436,-1.0728,-1.0294,-1.0176,-1.0063,-0.9872,-0.9778,-0.9734,-0.9644,-0.9673,-0.9717,-0.9949,-1.0148,-1.0262,-1.0294,-1.0436,-1.0538,-1.0611,-1.0688,-1.0692,-1.0692,-1.0692,-1.0692,-1.0692,-1.0692,-1.0692,-1.0692,-1.0692,-1.0692,-1.0692,-1.0582,-1.0582,-1.0586,-1.0366,-1.004,-0.9599,-0.9379,-0.9158,-0.8937,-0.8937,-0.8937,-0.8937,-0.8937,-0.8937,-0.8937,-0.8937,-0.8937,-0.8937,-0.8937,-0.8937,-0.8937,-0.8937,-0.8937,-0.8937,-0.8937,-0.8937,-0.8937,-0.8937,-0.892,-0.8889,-0.8686,-0.8486,-0.8303,-0.815,-0.7875,-0.7739,-0.7736,-0.7338,-0.6736,-1.7488,-1.7582,-1.7589,-1.7589,-1.7589,-1.7589,-1.7589,-1.7589,-1.7589,-1.7583,-1.7622,-1.7775,-1.805,-1.8317,-1.8517,-1.8724,-1.8778,-1.8945,-1.9058,-1.8998,-1.8702,-1.8494,-1.8272,-1.7983,-1.7635,-1.7589,-1.7589,-1.7589,-1.7589,-1.7589,-1.7589,-1.7589,-1.7589,-1.7589,-1.7589,-1.747,-1.7246,-1.6717,-1.6649,-1.658,-1.5672,-1.4674,-1.3917,-1.3599,-1.294,-1.2082,-1.1411,-1.0908,-1.0489,-1.0371,-1.0188,-0.9985,-0.9929,-0.9831,-0.9762,-0.9831,-0.9994,-1.0197,-1.0355,-1.0497,-1.0505,-1.0542,-1.0643,-1.0684,-1.0692,-1.0692,-1.0692,-1.0692,-1.0692,-1.0692,-1.0692,-1.0692,-1.0692,-1.0692,-1.0692,-1.0692,-1.0582,-1.0582,-1.0366,-1.0147,-1.004,-0.9706,-0.9375,-0.9158,-0.8937,-0.8937,-0.8937,-0.8937,-0.8937,-0.8937,-0.8937,-0.8937,-0.8937,-0.8937,-0.8937,-0.8937,-0.8937,-0.8937,-0.8937,-0.8937,-0.8937,-0.8937,-0.8937,-0.892,-0.8862,-0.8764,-0.8574,-0.8387,-0.8235,-0.7925,-0.7559,-0.7437,-0.7437,-0.6836,-0.6134,-1.7308,-1.7549,-1.7562,-1.7562,-1.7582,-1.7589,-1.7589,-1.7589,-1.7589,-1.7595,-1.7602,-1.7622,-1.7776,-1.7996,-1.807,-1.8243,-1.8477,-1.8531,-1.8591,-1.8497,-1.8283,-1.8285,-1.8245,-1.7882,-1.7622,-1.7589,-1.7589,-1.7589,-1.7589,-1.7589,-1.7589,-1.7589,-1.7589,-1.7589,-1.7589,-1.7602,-1.7483,-1.7397,-1.6743,-1.6762,-1.608,-1.4995,-1.4454,-1.3922,-1.3275,-1.2304,-1.1651,-1.1197,-1.0687,-1.0452,-1.0278,-1.0205,-1.0111,-0.9989,-1.0042,-1.0152,-1.0322,-1.0391,-1.0481,-1.0607,-1.0643,-1.0643,-1.0672,-1.0692,-1.0692,-1.0692,-1.0692,-1.0692,-1.0692,-1.0692,-1.0692,-1.0692,-1.0692,-1.0692,-1.0692,-1.0582,-1.0363,-1.0257,-1.0036,-0.982,-0.9599,-0.9379,-0.9158,-0.9047,-0.8937,-0.8937,-0.8937,-0.8937,-0.8937,-0.8937,-0.8937,-0.8937,-0.8937,-0.8937,-0.8937,-0.8937,-0.8937,-0.8937,-0.8937,-0.8937,-0.8937,-0.8937,-0.8937,-0.8896,-0.8781,-0.8638,-0.8452,-0.8313,-0.8096,-0.7708,-0.7144,-0.6936,-0.6936,-0.6032,-0.5231,-1.7001,-1.7268,-1.7275,-1.7388,-1.7575,-1.7589,-1.7589,-1.7589,-1.7589,-1.7589,-1.7589,-1.7589,-1.7655,-1.7729,-1.7943,-1.8083,-1.8223,-1.837,-1.8477,-1.8364,-1.8123,-1.8198,-1.8171,-1.7862,-1.7622,-1.7589,-1.7589,-1.7589,-1.7589,-1.7589,-1.7589,-1.7589,-1.7589,-1.7589,-1.7503,-1.755,-1.7523,-1.7054,-1.6062,-1.5949,-1.5855,-1.4776,-1.4239,-1.3383,-1.2847,-1.1982,-1.1341,-1.1017,-1.0639,-1.0595,-1.044,-1.0359,-1.0347,-1.0197,-1.016,-1.0327,-1.042,-1.0481,-1.0599,-1.0664,-1.0692,-1.0692,-1.0692,-1.0692,-1.0692,-1.0692,-1.0692,-1.0692,-1.0692,-1.0692,-1.0692,-1.0692,-1.0692,-1.0692,-1.0692,-1.0582,-1.0363,-1.0253,-1.0036,-0.971,-0.9489,-0.9268,-0.9047,-0.8937,-0.8937,-0.8937,-0.8937,-0.8937,-0.8937,-0.8937,-0.8937,-0.8937,-0.8937,-0.8937,-0.8937,-0.8937,-0.8937,-0.8937,-0.8937,-0.8937,-0.8937,-0.8937,-0.8937,-0.8852,-0.8703,-0.8523,-0.833,-0.8113,-0.7717,-0.7083,-0.6537,-0.6437,-0.6237,-0.5331,-0.4429,-1.6707,-1.6961,-1.6974,-1.7141,-1.7402,-1.7535,-1.7589,-1.7589,-1.7589,-1.7589,-1.7589,-1.7589,-1.7589,-1.7615,-1.7769,-1.7862,-1.7876,-1.7983,-1.8076,-1.8023,-1.7976,-1.7996,-1.7889,-1.7815,-1.7615,-1.7589,-1.7589,-1.7589,-1.7589,-1.7589,-1.7589,-1.7589,-1.7589,-1.7259,-1.7179,-1.7231,-1.6906,-1.598,-1.5068,-1.4736,-1.4432,-1.4024,-1.3058,-1.2413,-1.2091,-1.1341,-1.0798,-1.0692,-1.0692,-1.0668,-1.0526,-1.0481,-1.0501,-1.0432,-1.0391,-1.053,-1.055,-1.0595,-1.0664,-1.068,-1.0692,-1.0692,-1.0692,-1.0692,-1.0692,-1.0692,-1.0692,-1.0692,-1.0692,-1.0692,-1.0692,-1.0692,-1.0692,-1.0692,-1.0692,-1.0582,-1.0472,-1.0363,-1.0036,-0.971,-0.9379,-0.9272,-0.9051,-0.8937,-0.8937,-0.8937,-0.8937,-0.8937,-0.8937,-0.8937,-0.8937,-0.8937,-0.8937,-0.8937,-0.8937,-0.8937,-0.8937,-0.8937,-0.8937,-0.8937,-0.8937,-0.891,-0.8886,-0.876,-0.8598,-0.8418,-0.8136,-0.7529,-0.7051,-0.6434,-0.5632,-0.5031,-0.473,-0.4227,-0.3425,-1.6406,-1.6673,-1.6693,-1.6901,-1.7168,-1.7428,-1.7549,-1.7589,-1.7589,-1.7589,-1.7589,-1.7589,-1.7589,-1.7595,-1.7649,-1.7649,-1.7662,-1.7716,-1.7749,-1.7609,-1.7675,-1.7662,-1.7655,-1.7589,-1.7589,-1.7589,-1.7589,-1.7589,-1.7589,-1.7589,-1.7589,-1.7589,-1.7589,-1.7153,-1.6418,-1.6468,-1.5922,-1.4363,-1.3798,-1.3475,-1.348,-1.295,-1.22,-1.1982,-1.1446,-1.0692,-1.0692,-1.0692,-1.0692,-1.0635,-1.0595,-1.0558,-1.0611,-1.0651,-1.066,-1.066,-1.0651,-1.0664,-1.0684,-1.0692,-1.0692,-1.0692,-1.0692,-1.0692,-1.0692,-1.0692,-1.0692,-1.0692,-1.0692,-1.0692,-1.0692,-1.0692,-1.0692,-1.0582,-1.0582,-1.0363,-1.0036,-0.9926,-0.9706,-0.9379,-0.9158,-0.9051,-0.9047,-0.8937,-0.8937,-0.8937,-0.8937,-0.8937,-0.8937,-0.8937,-0.8937,-0.8937,-0.8937,-0.8937,-0.8937,-0.8937,-0.8937,-0.8937,-0.8937,-0.8937,-0.8937,-0.8889,-0.8825,-0.8679,-0.8523,-0.8127,-0.7762,-0.7178,-0.6434,-0.5429,-0.4628,-0.3626,-0.3123,-0.3022,-0.2722,-1.6112,-1.6393,-1.6613,-1.6881,-1.7237,-1.7221,-1.7382,-1.7582,-1.7589,-1.7575,-1.7589,-1.7589,-1.7589,-1.7589,-1.7589,-1.7589,-1.7589,-1.7589,-1.7589,-1.7589,-1.7589,-1.7589,-1.7589,-1.7589,-1.7589,-1.7589,-1.7589,-1.7589,-1.7589,-1.7589,-1.7589,-1.7582,-1.7477,-1.6829,-1.5755,-1.569,-1.4498,-1.2847,-1.2309,-1.2304,-1.263,-1.1878,-1.1122,-1.1122,-1.0692,-1.0692,-1.0692,-1.0692,-1.0692,-1.0672,-1.066,-1.066,-1.0688,-1.0692,-1.0692,-1.0692,-1.0692,-1.0692,-1.0692,-1.0692,-1.0692,-1.0692,-1.0692,-1.0692,-1.0692,-1.0692,-1.0692,-1.0692,-1.0692,-1.0692,-1.0692,-1.0688,-1.0578,-1.0472,-1.0363,-1.0036,-0.971,-0.9489,-0.9268,-0.9158,-0.8937,-0.8937,-0.8937,-0.8937,-0.8937,-0.8937,-0.8937,-0.8937,-0.8937,-0.8937,-0.8937,-0.8937,-0.8937,-0.8937,-0.8937,-0.8937,-0.8937,-0.8937,-0.8937,-0.8937,-0.8937,-0.8872,-0.8794,-0.8618,-0.8448,-0.7866,-0.7336,-0.6665,-0.5832,-0.4728,-0.3827,-0.2923,-0.2321,-0.222,-0.2019,-1.5925,-1.6106,-1.6393,-1.6607,-1.676,-1.6894,-1.723,-1.7583,-1.7506,-1.7462,-1.7575,-1.7589,-1.7582,-1.7582,-1.7589,-1.7589,-1.7589,-1.7589,-1.7589,-1.7589,-1.7589,-1.7589,-1.7589,-1.7589,-1.7589,-1.7589,-1.7589,-1.7589,-1.7589,-1.7589,-1.7589,-1.7477,-1.7153,-1.6293,-1.5215,-1.4272,-1.331,-1.1664,-1.1017,-1.1122,-1.166,-1.1122,-1.0692,-1.0692,-1.0692,-1.0692,-1.0692,-1.0692,-1.0692,-1.0692,-1.0684,-1.068,-1.0692,-1.0692,-1.0692,-1.0692,-1.0692,-1.0692,-1.0692,-1.0692,-1.0692,-1.0692,-1.0692,-1.0692,-1.0692,-1.0692,-1.0692,-1.0692,-1.0692,-1.0692,-1.0692,-1.0582,-1.0472,-1.0363,-1.0143,-0.9816,-0.9489,-0.9268,-0.9158,-0.9047,-0.8937,-0.8937,-0.8937,-0.8937,-0.8937,-0.8937,-0.8937,-0.8937,-0.8937,-0.8937,-0.8937,-0.8937,-0.8937,-0.8937,-0.8937,-0.8937,-0.8937,-0.8937,-0.8937,-0.8937,-0.893,-0.8855,-0.8757,-0.8471,-0.7991,-0.7331,-0.6721,-0.5851,-0.5029,-0.3925,-0.3024,-0.222,-0.1818,-0.1617,-0.1617,-1.5832,-1.5872,-1.6106,-1.6246,-1.6306,-1.654,-1.6935,-1.7401,-1.721,-1.7365,-1.7593,-1.7607,-1.7535,-1.7582,-1.7589,-1.7589,-1.7589,-1.7589,-1.7589,-1.7589,-1.7589,-1.7589,-1.7589,-1.7589,-1.7589,-1.7589,-1.7589,-1.7589,-1.7589,-1.7582,-1.7477,-1.7259,-1.6399,-1.5215,-1.4379,-1.3769,-1.3143,-1.1573,-1.0692,-1.0692,-1.0802,-1.0692,-1.0692,-1.0692,-1.0692,-1.0692,-1.0692,-1.0692,-1.0692,-1.0692,-1.0692,-1.0692,-1.0692,-1.0692,-1.0692,-1.0692,-1.0692,-1.0692,-1.0692,-1.0692,-1.0692,-1.0692,-1.0692,-1.0692,-1.0692,-1.0692,-1.0692,-1.0582,-1.0582,-1.0582,-1.0582,-1.0363,-1.0253,-1.0147,-0.9816,-0.9596,-0.9379,-0.9047,-0.9047,-0.8937,-0.8937,-0.8937,-0.8937,-0.8937,-0.8937,-0.8937,-0.8937,-0.8937,-0.8937,-0.8937,-0.8937,-0.8937,-0.8937,-0.8937,-0.8937,-0.8937,-0.8937,-0.8937,-0.8937,-0.8937,-0.8913,-0.8832,-0.8494,-0.8002,-0.7535,-0.6686,-0.5592,-0.4634,-0.3725,-0.3022,-0.2521,-0.1919,-0.1818,-0.1617,-0.1617,-1.5825,-1.5838,-1.5892,-1.6046,-1.6259,-1.6339,-1.6526,-1.6874,-1.68,-1.7076,-1.7407,-1.7365,-1.7341,-1.7582,-1.7589,-1.7589,-1.7589,-1.7589,-1.7589,-1.7589,-1.7589,-1.7589,-1.7589,-1.7589,-1.7589,-1.7589,-1.7589,-1.7589,-1.7477,-1.747,-1.7041,-1.6293,-1.6074,-1.4894,-1.3181,-1.29,-1.2816,-1.1249,-1.0692,-1.0692,-1.0692,-1.0692,-1.0692,-1.0692,-1.0692,-1.0692,-1.0692,-1.0692,-1.0692,-1.0692,-1.0692,-1.0692,-1.0692,-1.0692,-1.0692,-1.0692,-1.0692,-1.0692,-1.0692,-1.0692,-1.0692,-1.0692,-1.0692,-1.0688,-1.0692,-1.0692,-1.0582,-1.0363,-1.0363,-1.0363,-1.0253,-1.0033,-0.9926,-0.9599,-0.9379,-0.9268,-0.9047,-0.8937,-0.8937,-0.8937,-0.8937,-0.8937,-0.8937,-0.8937,-0.8937,-0.8937,-0.8937,-0.8937,-0.8937,-0.8937,-0.8937,-0.8937,-0.8937,-0.8937,-0.8937,-0.8937,-0.8937,-0.8937,-0.8937,-0.8937,-0.8896,-0.8794,-0.8441,-0.7657,-0.6785,-0.5846,-0.477,-0.3624,-0.2923,-0.2321,-0.2019,-0.1617,-0.1617,-0.1617,-0.1617]},{"header":{"parameterUnit":"m.s-1","parameterCategory":1,"la1":31.0,"la2":29.5877,"lo1":-88.7671,"lo2":-86.6584,"dy":0.0162,"dx":0.0185,"nx":115,"ny":88,"refTime":"2026-03-19T00:00:00:Z","depth":0,"parameterNumber":3,"parameterNumberName":"V-component_of_WINDS"},"data":[0.0,0.0,0.0,0.0,0.0,0.0,0.0,0.0,0.0,0.0,0.0,0.0,0.0,0.0,0.0,0.0,0.0,0.0,0.0,0.0,0.0,0.0,0.0,0.0,0.0,0.0,0.0,0.0,0.0,0.0,0.0,0.0,0.0,0.0,0.0,0.0,0.0,0.0,0.0,0.0,0.0,0.0,0.0,0.0,0.0,0.0,0.0,0.0,0.0,0.0,0.0,0.0,0.0,0.0,0.0,0.0,0.0,0.0,0.0,0.0,0.0,0.0,0.0,0.0,0.0,0.0,0.0,0.0,0.0,0.0,0.0,0.0,0.0,0.0,0.0,0.0,0.0,0.0,0.0,0.0,0.0,0.0,0.0,0.0,0.0,0.0,0.0,0.0,0.0,0.0,0.0,0.0,0.0,0.0,0.0,0.0,0.0,0.0,0.0,0.0,0.0,0.0,0.0,0.0,0.0,0.0,0.0,0.0,0.0,0.0,0.0,0.0,0.0,0.0,0.0,0.0,0.0,0.0,0.0,0.0,0.0,0.0,0.0,0.0,0.0,0.0,0.0,0.0,0.0,0.0,0.0,0.0,0.0,0.0,0.0,0.0,0.0,0.0,0.0,0.0,0.0,0.0,0.0,0.0,0.0,0.0,0.0,0.0,0.0,0.0,0.0,0.0,0.0,0.0,0.0,0.0,0.0,0.0,0.0,0.0,0.0,0.0,0.0,0.0,0.0,0.0,0.0,0.0,0.0,0.0,0.0,0.0,0.0,0.0,0.0,0.0,0.0,0.0,0.0,0.0,0.0,0.0,0.0,0.0,0.0,0.0,0.0,0.0,0.0,0.0,0.0,0.0,0.0,0.0,0.0,0.0,0.0,0.0,0.0,0.0,0.0,0.0,0.0,0.0,0.0,0.0,0.0,0.0,0.0,0.0,0.0,0.0,0.0,0.0,0.0,0.0,0.0,0.0,0.0,0.0,0.0,0.0,0.0,0.0,0.0,0.0,0.0,0.0,0.0,0.0,0.0,0.0,0.0,0.0,0.0,0.0,0.0,0.0,0.0,0.0,0.0,0.0,0.0,0.0,0.0,0.0,0.0,0.0,0.0,0.0,0.0,0.0,0.0,0.0,0.0,0.0,0.0,0.0,0.0,0.0,0.0,0.0,0.0,0.0,0.0,0.0,0.0,0.0,0.0,0.0,0.0,0.0,0.0,0.0,0.0,0.0,0.0,0.0,0.0,0.0,0.0,0.0,0.0,0.0,0.0,0.0,0.0,0.0,0.0,0.0,0.0,0.0,0.0,0.0,0.0,0.0,0.0,0.0,0.0,0.0,0.0,0.0,0.0,0.0,0.0,0.0,0.0,0.0,0.0,0.0,0.0,0.0,0.0,0.0,0.0,0.0,0.0,0.0,0.0,0.0,0.0,0.0,0.0,0.0,0.0,0.0,0.0,0.0,0.0,0.0,0.0,0.0,0.0,0.0,0.0,0.0,0.0,0.0,0.0,0.0,0.0,0.0,0.0,0.0,0.0,0.0,0.0,0.0,0.0,0.0,0.0,0.0,0.0,0.0,0.0,0.0,0.0,0.0,0.0,0.0,0.0,0.0,0.0,0.0,0.0,0.0,0.0,0.0,0.0,0.0,0.0,0.0,0.0,0.0,0.0,0.0,0.0,0.0,0.0,0.0,0.0,0.0,0.0,0.0,0.0,0.0,0.0,0.0,0.0,0.0,0.0,0.0,0.0,0.0,0.0,0.0,0.0,0.0,0.0,0.0,0.0,0.0,0.0,0.0,0.0,0.0,0.0,0.0,0.0,0.0,0.0,0.0,0.0,0.0,0.0,0.0,0.0,0.0,0.0,0.0,0.0,0.0,0.0,0.0,0.0,0.0,0.0,0.0,0.0,0.0,0.0,0.0,0.0,0.0,0.0,0.0,0.0,0.0,0.0,0.0,0.0,0.0,0.0,0.0,0.0,0.0,0.0,0.0,0.0,0.0,0.0,0.0,0.0,0.0,0.0,0.0,0.0,0.0,0.0,0.0,0.0,0.0,0.0,0.0,0.0,0.0,0.0,0.0,0.0,0.0,0.0,0.0,0.0,0.0,0.0,0.0,0.0,0.0,0.0,0.0,0.0,0.0,0.0,0.0,0.0,0.0,0.0,0.0,0.0,0.0,0.0,0.0,0.0,0.0,0.0,0.0,0.0,0.0,0.0,0.0,0.0,0.0,0.0,0.0,0.0,0.0,0.0,0.0,0.0,0.0,0.0,0.0,0.0,0.0,0.0,0.0,0.0,0.0,0.0,0.0,0.0,0.0,0.0,0.0,0.0,0.0,0.0,0.0,0.0,0.0,0.0,0.0,0.0,0.0,0.0,0.0,0.0,0.0,0.0,0.0,0.0,0.0,0.0,0.0,0.0,0.0,0.0,0.0,0.0,0.0,0.0,0.0,0.0,0.0,0.0,0.0,0.0,0.0,0.0,0.0,0.0,0.0,0.0,0.0,0.0,0.0,0.0,0.0,0.0,0.0,0.0,0.0,0.0,0.0,0.0,0.0,0.0,0.0,0.0,0.0,0.0,0.0,0.0,0.0,0.0,0.0,0.0,0.0,0.0,0.0,0.0,0.0,0.0,0.0,0.0,0.0,0.0,0.0,0.0,0.0,0.0,0.0,0.0,0.0,0.0,0.0,0.0,0.0,0.0,0.0,0.0,0.0,0.0,0.0,0.0,0.0,0.0,0.0,0.0,0.0,0.0,0.0,0.0,0.0,0.0,0.0,0.0,0.0,0.0,0.0,0.0,0.0,0.0,0.0,0.0,0.0,0.0,0.0,0.0,0.0,0.0,0.0,0.0,0.0,0.0,0.0,0.0,0.0,0.0,0.0,0.0,0.0,0.0,0.0,0.0,0.0,0.0,0.0,0.0,0.0,0.0,0.0,0.0,0.0,0.0,0.0,0.0,0.0,0.0,0.0,0.0,0.0,0.0,0.0,0.0,0.0,0.0,0.0,0.0,0.0,0.0,0.0,0.0,0.0,0.0,0.0,0.0,0.0,0.0,0.0,0.0,0.0,0.0,0.0,0.0,0.0,0.0,0.0,0.0,0.0,0.0,0.0,0.0,0.0,0.0,0.0,0.0,0.0,0.0,0.0,0.0,0.0,0.0,0.0,0.0,0.0,0.0,0.0,0.0,0.0,0.0,0.0,0.0,0.0,0.0,0.0,0.0,0.0,0.0,0.0,0.0,0.0,0.0,0.0,0.0,0.0,0.0,0.0,0.0,0.0,0.0,0.0,0.0,0.0,0.0,0.0,0.0,0.0,0.0,0.0,0.0,0.0,0.0,0.0,0.0,0.0,0.0,0.0,0.0,0.0,0.0,0.0,0.0,0.0,0.0,0.0,0.0,0.0,0.0,0.0,0.0,0.0,0.0,0.0,0.0,0.0,0.0,0.0,0.0,0.0,0.0,0.0,0.0,0.0,0.0,0.0,0.0,0.0,0.0,0.0,0.0,0.0,0.0,0.0,0.0,0.0,0.0,0.0,0.0,0.0,0.0,0.0,0.0,0.0,0.0,0.0,0.0,0.0,0.0,0.0,0.0,0.0,0.0,0.0,0.0,0.0,0.0,0.0,0.0,0.0,0.0,0.0,0.0,0.0,0.0,0.0,0.0,0.0,0.0,0.0,0.0,0.0,0.0,0.0,0.0,0.0,0.0,0.0,0.0,0.0,0.0,0.0,0.0,0.0,0.0,0.0,0.0,0.0,0.0,0.0,0.0,0.0,0.0,0.0,0.0,0.0,0.0,0.0,0.0,0.0,0.0,0.0,0.0,0.0,0.0,0.0,0.0,0.0,0.0,0.0,0.0,0.0,0.0,0.0,0.0,0.0,0.0,0.0,0.0,0.0,0.0,0.0,0.0,0.0,0.0,0.0,0.0,0.0,0.0,0.0,0.0,0.0,0.0,0.0,0.0,0.0,0.0,0.0,0.0,0.0,0.0,0.0,0.0,0.0,0.0,0.0,0.0,0.0,0.0,0.0,0.0,0.0,0.0,0.0,0.0,0.0,0.0,0.0,0.0,0.0,0.0,0.0,0.0,0.0,0.0,0.0,0.0,0.0,0.0,0.0,0.0,0.0,0.0,0.0,0.0,0.0,0.0,0.0,0.0,0.0,0.0,0.0,0.0,0.0,0.0,0.0,0.0,0.0,0.0,0.0,0.0,0.0,0.0,0.0,0.0,0.0,0.0,0.0,0.0,0.0,0.0,0.0,0.0,0.0,0.0,0.0,-1.2407,0.0,0.0,0.0,0.0,0.0,0.0,0.0,0.0,0.0,0.0,0.0,0.0,0.0,0.0,0.0,0.0,0.0,0.0,0.0,0.0,0.0,0.0,0.0,0.0,0.0,0.0,0.0,0.0,0.0,0.0,0.0,0.0,0.0,0.0,0.0,0.0,0.0,0.0,0.0,0.0,0.0,0.0,0.0,0.0,0.0,0.0,0.0,0.0,0.0,0.0,0.0,0.0,0.0,0.0,0.0,0.0,0.0,0.0,0.0,0.0,0.0,0.0,0.0,0.0,0.0,0.0,0.0,0.0,0.0,0.0,0.0,0.0,0.0,0.0,0.0,0.0,0.0,0.0,0.0,0.0,0.0,0.0,0.0,0.0,0.0,0.0,0.0,0.0,0.0,0.0,0.0,0.0,0.0,0.0,0.0,0.0,0.0,0.0,0.0,0.0,0.0,0.0,0.0,0.0,0.0,0.0,0.0,0.0,0.0,0.0,-1.2604,-1.2506,-1.2372,-1.2372,-1.2471,0.0,0.0,0.0,0.0,0.0,0.0,0.0,0.0,0.0,0.0,0.0,0.0,0.0,0.0,0.0,0.0,0.0,0.0,0.0,0.0,0.0,0.0,0.0,0.0,0.0,0.0,0.0,0.0,0.0,0.0,0.0,0.0,0.0,0.0,0.0,0.0,0.0,0.0,0.0,0.0,0.0,0.0,0.0,0.0,0.0,0.0,0.0,0.0,0.0,0.0,0.0,0.0,0.0,0.0,0.0,0.0,0.0,0.0,0.0,0.0,0.0,0.0,0.0,0.0,0.0,0.0,0.0,0.0,0.0,0.0,0.0,0.0,0.0,0.0,0.0,0.0,0.0,0.0,0.0,0.0,0.0,0.0,0.0,0.0,0.0,0.0,0.0,0.0,0.0,0.0,0.0,0.0,0.0,0.0,0.0,0.0,0.0,0.0,0.0,0.0,0.0,0.0,0.0,0.0,0.0,0.0,0.0,0.0,0.0,0.0,0.0,0.0,-1.2844,-1.2824,-1.2824,0.0,0.0,0.0,0.0,0.0,0.0,0.0,0.0,0.0,0.0,0.0,0.0,0.0,0.0,0.0,0.0,0.0,0.0,0.0,0.0,0.0,0.0,0.0,0.0,0.0,0.0,0.0,0.0,0.0,0.0,0.0,0.0,0.0,0.0,0.0,0.0,0.0,0.0,0.0,0.0,0.0,0.0,0.0,0.0,0.0,0.0,0.0,0.0,0.0,0.0,0.0,0.0,0.0,0.0,0.0,0.0,0.0,0.0,0.0,0.0,0.0,0.0,0.0,0.0,0.0,0.0,0.0,0.0,0.0,0.0,0.0,0.0,0.0,0.0,0.0,0.0,0.0,0.0,0.0,0.0,0.0,0.0,0.0,0.0,0.0,0.0,0.0,0.0,0.0,0.0,0.0,0.0,0.0,0.0,0.0,0.0,0.0,0.0,0.0,0.0,0.0,0.0,0.0,0.0,0.0,0.0,0.0,0.0,0.0,0.0,-1.338,-1.4021,-1.3864,0.0,-1.3784,0.0,0.0,0.0,0.0,0.0,0.0,0.0,0.0,0.0,0.0,0.0,0.0,0.0,0.0,0.0,0.0,0.0,0.0,0.0,0.0,0.0,0.0,0.0,0.0,0.0,0.0,0.0,0.0,0.0,0.0,0.0,0.0,0.0,0.0,0.0,0.0,0.0,0.0,0.0,0.0,0.0,0.0,0.0,0.0,0.0,0.0,0.0,0.0,0.0,0.0,0.0,0.0,0.0,0.0,0.0,0.0,0.0,0.0,0.0,0.0,0.0,0.0,0.0,0.0,0.0,0.0,0.0,0.0,0.0,0.0,0.0,0.0,0.0,0.0,0.0,0.0,0.0,0.0,0.0,0.0,0.0,0.0,0.0,0.0,0.0,0.0,0.0,0.0,0.0,0.0,0.0,0.0,0.0,0.0,0.0,0.0,0.0,0.0,0.0,0.0,0.0,0.0,0.0,0.0,0.0,0.0,0.0,0.0,0.0,0.0,-1.3878,-1.4192,-1.4133,-1.4078,0.0,0.0,0.0,0.0,0.0,0.0,0.0,0.0,0.0,0.0,0.0,0.0,0.0,0.0,0.0,0.0,0.0,0.0,0.0,0.0,0.0,0.0,0.0,0.0,0.0,0.0,0.0,0.0,0.0,0.0,0.0,0.0,0.0,0.0,0.0,0.0,0.0,0.0,0.0,0.0,0.0,0.0,0.0,0.0,0.0,0.0,0.0,0.0,0.0,0.0,0.0,0.0,0.0,0.0,0.0,0.0,0.0,0.0,0.0,0.0,0.0,0.0,0.0,0.0,0.0,0.0,0.0,0.0,0.0,0.0,0.0,0.0,0.0,0.0,0.0,0.0,0.0,0.0,0.0,0.0,0.0,0.0,0.0,0.0,0.0,0.0,0.0,0.0,0.0,0.0,0.0,0.0,0.0,0.0,0.0,0.0,0.0,0.0,0.0,0.0,0.0,0.0,0.0,0.0,0.0,0.0,0.0,0.0,0.0,0.0,-1.3731,0.0,-1.4476,-1.451,-1.4311,-1.3911,0.0,0.0,0.0,0.0,0.0,0.0,0.0,0.0,0.0,0.0,0.0,0.0,0.0,0.0,0.0,0.0,0.0,0.0,0.0,0.0,0.0,0.0,0.0,0.0,0.0,0.0,0.0,0.0,0.0,0.0,0.0,0.0,0.0,0.0,0.0,0.0,0.0,0.0,0.0,0.0,0.0,0.0,0.0,0.0,0.0,0.0,0.0,0.0,0.0,0.0,0.0,0.0,0.0,0.0,0.0,0.0,0.0,0.0,0.0,0.0,0.0,0.0,0.0,0.0,0.0,0.0,0.0,0.0,0.0,0.0,0.0,0.0,0.0,0.0,0.0,0.0,0.0,0.0,0.0,0.0,0.0,0.0,0.0,0.0,0.0,0.0,0.0,0.0,0.0,0.0,0.0,0.0,0.0,0.0,0.0,0.0,0.0,0.0,0.0,0.0,0.0,0.0,0.0,0.0,0.0,0.0,0.0,0.0,0.0,-1.3483,-1.3814,-1.5209,-1.5263,-1.4579,0.0,0.0,0.0,0.0,0.0,0.0,0.0,0.0,0.0,0.0,0.0,0.0,0.0,0.0,0.0,0.0,0.0,0.0,0.0,0.0,0.0,0.0,0.0,0.0,0.0,0.0,0.0,0.0,0.0,0.0,0.0,0.0,0.0,0.0,0.0,0.0,0.0,0.0,0.0,0.0,0.0,0.0,0.0,0.0,0.0,0.0,0.0,0.0,0.0,0.0,0.0,0.0,0.0,0.0,0.0,0.0,0.0,0.0,0.0,0.0,0.0,0.0,0.0,0.0,0.0,0.0,0.0,0.0,0.0,0.0,0.0,0.0,0.0,0.0,0.0,0.0,0.0,0.0,0.0,0.0,0.0,0.0,0.0,0.0,0.0,0.0,0.0,0.0,0.0,0.0,0.0,0.0,0.0,0.0,0.0,0.0,0.0,0.0,0.0,0.0,0.0,0.0,0.0,0.0,0.0,0.0,0.0,0.0,0.0,-1.2091,-1.229,-1.3549,-1.5806,-1.4181,-1.3367,0.0,0.0,0.0,0.0,0.0,0.0,0.0,0.0,0.0,0.0,0.0,0.0,0.0,0.0,0.0,0.0,0.0,0.0,0.0,0.0,0.0,0.0,0.0,0.0,0.0,0.0,0.0,0.0,0.0,0.0,0.0,0.0,0.0,0.0,0.0,0.0,0.0,0.0,0.0,0.0,0.0,0.0,0.0,0.0,0.0,0.0,0.0,0.0,0.0,0.0,0.0,0.0,0.0,0.0,0.0,0.0,0.0,0.0,0.0,0.0,0.0,0.0,0.0,0.0,0.0,0.0,0.0,0.0,0.0,0.0,0.0,0.0,0.0,0.0,0.0,0.0,0.0,0.0,0.0,0.0,0.0,0.0,0.0,0.0,0.0,0.0,0.0,0.0,0.0,0.0,0.0,0.0,0.0,0.0,0.0,0.0,0.0,0.0,0.0,0.0,0.0,0.0,0.0,0.0,0.0,0.0,0.0,0.0,0.0,-1.1689,0.0,-1.4181,0.0,-1.3785,-1.2755,0.0,0.0,0.0,0.0,0.0,0.0,0.0,0.0,0.0,0.0,0.0,0.0,0.0,0.0,0.0,0.0,0.0,0.0,0.0,0.0,0.0,0.0,0.0,0.0,0.0,0.0,0.0,0.0,0.0,0.0,0.0,0.0,0.0,0.0,0.0,0.0,0.0,0.0,0.0,0.0,0.0,0.0,0.0,0.0,0.0,0.0,0.0,0.0,0.0,0.0,0.0,0.0,0.0,0.0,0.0,0.0,0.0,0.0,0.0,0.0,0.0,0.0,0.0,0.0,0.0,0.0,0.0,0.0,0.0,0.0,0.0,0.0,0.0,0.0,0.0,0.0,0.0,0.0,0.0,0.0,0.0,0.0,0.0,0.0,0.0,0.0,0.0,0.0,0.0,0.0,0.0,0.0,0.0,0.0,0.0,0.0,0.0,0.0,0.0,0.0,0.0,0.0,0.0,0.0,0.0,0.0,0.0,0.0,-1.1825,-1.3193,-1.5154,-1.5579,-1.4327,-1.4243,-1.2891,0.0,0.0,0.0,0.0,0.0,0.0,0.0,0.0,0.0,0.0,0.0,0.0,0.0,0.0,0.0,0.0,0.0,0.0,0.0,0.0,0.0,0.0,0.0,0.0,0.0,0.0,0.0,0.0,0.0,0.0,0.0,0.0,0.0,0.0,0.0,0.0,0.0,0.0,0.0,0.0,0.0,0.0,0.0,0.0,0.0,0.0,0.0,0.0,0.0,0.0,0.0,0.0,0.0,0.0,0.0,0.0,0.0,0.0,0.0,0.0,0.0,0.0,0.0,0.0,0.0,0.0,0.0,0.0,0.0,0.0,0.0,0.0,0.0,0.0,0.0,0.0,0.0,0.0,0.0,0.0,0.0,0.0,0.0,0.0,0.0,0.0,0.0,0.0,0.0,0.0,0.0,0.0,0.0,0.0,0.0,0.0,0.0,0.0,0.0,0.0,0.0,0.0,0.0,0.0,0.0,0.0,0.0,0.0,0.0,-1.3295,-1.404,-1.5193,-1.6526,-1.4329,-1.3358,0.0,0.0,0.0,0.0,0.0,0.0,0.0,0.0,0.0,0.0,0.0,0.0,0.0,0.0,0.0,0.0,0.0,0.0,0.0,0.0,0.0,0.0,0.0,0.0,0.0,0.0,0.0,0.0,0.0,0.0,0.0,0.0,0.0,0.0,0.0,0.0,0.0,0.0,0.0,0.0,0.0,0.0,0.0,0.0,0.0,0.0,0.0,0.0,0.0,0.0,0.0,0.0,0.0,0.0,0.0,0.0,0.0,0.0,0.0,0.0,0.0,0.0,0.0,0.0,0.0,0.0,0.0,0.0,0.0,0.0,0.0,0.0,0.0,0.0,0.0,0.0,0.0,0.0,0.0,0.0,0.0,0.0,0.0,0.0,0.0,0.0,0.0,0.0,0.0,0.0,0.0,0.0,0.0,0.0,0.0,0.0,0.0,0.0,0.0,0.0,0.0,0.0,0.0,0.0,0.0,0.0,0.0,0.0,0.0,-1.5245,-1.5262,-1.5844,-1.7058,-1.4659,-1.3792,-1.462,0.0,0.0,0.0,0.0,0.0,0.0,0.0,0.0,0.0,0.0,0.0,0.0,0.0,0.0,0.0,0.0,0.0,0.0,0.0,0.0,0.0,0.0,0.0,0.0,0.0,0.0,0.0,0.0,0.0,0.0,0.0,0.0,0.0,0.0,0.0,0.0,0.0,0.0,0.0,0.0,0.0,0.0,0.0,0.0,0.0,0.0,0.0,0.0,0.0,0.0,0.0,0.0,0.0,0.0,0.0,0.0,0.0,0.0,0.0,0.0,0.0,0.0,0.0,0.0,0.0,0.0,0.0,0.0,0.0,0.0,0.0,0.0,0.0,0.0,0.0,0.0,0.0,0.0,0.0,0.0,0.0,0.0,0.0,0.0,0.0,0.0,0.0,0.0,0.0,0.0,0.0,0.0,0.0,0.0,0.0,0.0,0.0,0.0,0.0,0.0,0.0,0.0,0.0,0.0,0.0,0.0,0.0,0.0,-1.8547,-1.838,-1.7619,-1.6285,-1.5471,-1.4373,0.0,0.0,0.0,0.0,0.0,0.0,0.0,0.0,0.0,0.0,0.0,0.0,0.0,0.0,0.0,0.0,0.0,0.0,0.0,0.0,0.0,0.0,0.0,0.0,0.0,0.0,0.0,0.0,0.0,0.0,0.0,0.0,0.0,0.0,0.0,0.0,0.0,0.0,0.0,0.0,0.0,0.0,0.0,0.0,0.0,0.0,0.0,0.0,0.0,0.0,0.0,0.0,0.0,0.0,0.0,0.0,0.0,0.0,0.0,0.0,0.0,0.0,0.0,0.0,0.0,0.0,0.0,0.0,0.0,0.0,0.0,0.0,0.0,0.0,0.0,0.0,0.0,0.0,0.0,0.0,0.0,0.0,0.0,0.0,0.0,0.0,0.0,0.0,0.0,0.0,0.0,0.0,0.0,0.0,0.0,0.0,0.0,0.0,0.0,0.0,0.0,0.0,0.0,0.0,0.0,0.0,0.0,0.0,0.0,-1.9612,-2.02,-2.0167,-1.9535,-1.8311,-1.7276,0.0,0.0,0.0,0.0,0.0,0.0,0.0,0.0,0.0,0.0,0.0,0.0,0.0,0.0,0.0,0.0,0.0,0.0,0.0,0.0,0.0,0.0,0.0,0.0,0.0,0.0,0.0,0.0,0.0,0.0,0.0,0.0,0.0,0.0,0.0,0.0,0.0,0.0,0.0,0.0,0.0,0.0,0.0,0.0,0.0,0.0,0.0,0.0,0.0,0.0,0.0,0.0,0.0,0.0,0.0,0.0,0.0,0.0,0.0,0.0,0.0,0.0,0.0,0.0,0.0,0.0,0.0,0.0,0.0,0.0,0.0,0.0,0.0,0.0,0.0,0.0,0.0,0.0,0.0,0.0,0.0,0.0,0.0,0.0,0.0,0.0,0.0,0.0,0.0,0.0,0.0,0.0,0.0,0.0,0.0,0.0,0.0,0.0,0.0,0.0,0.0,0.0,0.0,0.0,0.0,0.0,0.0,0.0,-1.9266,-2.109,-2.1576,-2.1729,-2.154,-2.0426,-1.9164,0.0,0.0,0.0,0.0,0.0,0.0,0.0,0.0,0.0,0.0,0.0,0.0,0.0,0.0,0.0,0.0,0.0,0.0,0.0,0.0,0.0,0.0,0.0,0.0,0.0,0.0,0.0,0.0,0.0,0.0,0.0,0.0,0.0,0.0,0.0,0.0,0.0,0.0,0.0,0.0,0.0,0.0,0.0,0.0,0.0,0.0,0.0,0.0,0.0,0.0,0.0,0.0,0.0,0.0,0.0,0.0,0.0,0.0,0.0,0.0,0.0,0.0,0.0,0.0,0.0,0.0,0.0,0.0,0.0,0.0,0.0,0.0,0.0,0.0,0.0,0.0,0.0,0.0,0.0,0.0,0.0,0.0,0.0,0.0,0.0,0.0,0.0,0.0,0.0,0.0,0.0,0.0,0.0,0.0,0.0,0.0,0.0,0.0,0.0,0.0,0.0,0.0,0.0,0.0,0.0,0.0,0.0,0.0,-2.0235,-2.2409,-2.2589,-2.2623,-2.2589,-2.1846,-2.0335,0.0,0.0,0.0,0.0,0.0,0.0,0.0,0.0,0.0,0.0,0.0,0.0,0.0,0.0,0.0,0.0,0.0,0.0,0.0,0.0,0.0,0.0,0.0,0.0,0.0,0.0,0.0,0.0,0.0,0.0,0.0,0.0,0.0,0.0,0.0,0.0,0.0,0.0,0.0,0.0,0.0,0.0,0.0,0.0,0.0,0.0,0.0,0.0,0.0,0.0,0.0,0.0,0.0,0.0,0.0,0.0,0.0,0.0,0.0,0.0,0.0,0.0,0.0,0.0,0.0,0.0,0.0,0.0,0.0,0.0,0.0,0.0,0.0,0.0,0.0,0.0,0.0,0.0,0.0,0.0,0.0,0.0,0.0,0.0,0.0,0.0,0.0,0.0,0.0,0.0,0.0,0.0,0.0,0.0,0.0,0.0,0.0,0.0,0.0,0.0,0.0,0.0,0.0,0.0,0.0,0.0,0.0,0.0,-2.057,-2.171,-2.2906,-2.3268,-2.2687,-2.2409,-2.1164,0.0,0.0,0.0,0.0,0.0,0.0,0.0,0.0,0.0,0.0,0.0,0.0,0.0,0.0,0.0,0.0,0.0,0.0,0.0,0.0,0.0,0.0,0.0,0.0,0.0,0.0,0.0,0.0,0.0,0.0,0.0,0.0,0.0,0.0,0.0,0.0,0.0,0.0,0.0,0.0,0.0,0.0,0.0,0.0,0.0,0.0,0.0,0.0,-1.2485,0.0,0.0,0.0,0.0,0.0,0.0,0.0,0.0,0.0,0.0,0.0,0.0,0.0,0.0,0.0,0.0,0.0,0.0,0.0,0.0,0.0,0.0,0.0,0.0,0.0,0.0,0.0,0.0,0.0,0.0,0.0,0.0,0.0,0.0,0.0,0.0,0.0,0.0,0.0,0.0,0.0,0.0,0.0,0.0,0.0,0.0,0.0,0.0,0.0,0.0,0.0,0.0,0.0,0.0,0.0,0.0,0.0,0.0,0.0,-2.1812,-2.2582,-2.3361,-2.3614,-2.3234,-2.3157,-2.2034,0.0,0.0,0.0,0.0,0.0,0.0,0.0,0.0,0.0,0.0,0.0,0.0,0.0,0.0,0.0,0.0,0.0,0.0,0.0,0.0,0.0,0.0,0.0,0.0,0.0,0.0,0.0,0.0,0.0,0.0,0.0,0.0,0.0,0.0,0.0,0.0,0.0,0.0,0.0,0.0,0.0,0.0,0.0,0.0,0.0,0.0,0.0,0.0,0.0,0.0,0.0,0.0,0.0,0.0,0.0,0.0,0.0,0.0,0.0,0.0,0.0,0.0,0.0,0.0,0.0,0.0,0.0,0.0,0.0,0.0,0.0,0.0,0.0,0.0,0.0,0.0,0.0,0.0,0.0,0.0,0.0,0.0,0.0,0.0,0.0,0.0,0.0,0.0,0.0,0.0,0.0,0.0,0.0,0.0,0.0,0.0,0.0,0.0,0.0,0.0,0.0,0.0,0.0,0.0,0.0,0.0,0.0,-2.0953,-2.2749,-2.3596,-2.3741,-2.3795,-2.3795,-2.3795,-2.2763,-2.0572,0.0,0.0,0.0,0.0,0.0,0.0,0.0,0.0,0.0,0.0,0.0,0.0,0.0,0.0,0.0,0.0,0.0,0.0,0.0,0.0,0.0,0.0,0.0,0.0,0.0,0.0,0.0,0.0,0.0,0.0,0.0,0.0,0.0,0.0,0.0,0.0,0.0,0.0,-1.2325,-1.4483,0.0,0.0,0.0,0.0,0.0,0.0,0.0,0.0,-1.4653,0.0,0.0,0.0,0.0,0.0,0.0,0.0,0.0,0.0,0.0,0.0,0.0,0.0,0.0,0.0,0.0,0.0,0.0,0.0,0.0,0.0,0.0,0.0,0.0,0.0,0.0,0.0,0.0,0.0,0.0,0.0,0.0,0.0,0.0,0.0,0.0,0.0,0.0,0.0,0.0,0.0,0.0,0.0,0.0,0.0,0.0,0.0,0.0,0.0,0.0,0.0,0.0,0.0,0.0,0.0,0.0,-1.9847,-2.0416,-2.1419,-2.2833,-2.3487,-2.3795,-2.3795,-2.3795,-2.3017,-2.1369,0.0,0.0,0.0,0.0,0.0,0.0,0.0,0.0,0.0,0.0,0.0,0.0,0.0,0.0,0.0,0.0,0.0,0.0,0.0,0.0,0.0,0.0,0.0,0.0,0.0,0.0,0.0,0.0,0.0,0.0,0.0,0.0,0.0,0.0,0.0,0.0,0.0,0.0,0.0,-1.65,-1.7624,0.0,0.0,0.0,0.0,0.0,0.0,0.0,0.0,-1.4389,0.0,0.0,0.0,0.0,0.0,0.0,0.0,0.0,0.0,0.0,0.0,0.0,0.0,0.0,0.0,0.0,0.0,0.0,0.0,0.0,0.0,0.0,0.0,0.0,0.0,0.0,0.0,0.0,0.0,0.0,0.0,0.0,0.0,0.0,0.0,0.0,0.0,0.0,0.0,0.0,0.0,0.0,0.0,0.0,0.0,0.0,0.0,0.0,0.0,0.0,0.0,0.0,0.0,0.0,0.0,-1.9522,-2.0904,-2.2106,-2.3252,-2.3614,-2.3795,-2.3795,-2.3433,-2.2691,0.0,0.0,0.0,0.0,0.0,0.0,0.0,0.0,0.0,0.0,0.0,0.0,0.0,0.0,0.0,0.0,0.0,0.0,0.0,0.0,0.0,0.0,0.0,0.0,0.0,0.0,0.0,0.0,0.0,0.0,0.0,0.0,0.0,0.0,0.0,0.0,0.0,0.0,0.0,0.0,-1.7603,-1.8489,-1.8085,0.0,0.0,0.0,0.0,0.0,0.0,-1.6864,-1.6386,0.0,0.0,0.0,0.0,0.0,0.0,0.0,0.0,0.0,0.0,0.0,0.0,0.0,0.0,0.0,0.0,0.0,0.0,0.0,0.0,0.0,0.0,0.0,0.0,0.0,0.0,0.0,0.0,0.0,0.0,0.0,0.0,0.0,0.0,0.0,0.0,0.0,0.0,0.0,0.0,0.0,0.0,0.0,0.0,0.0,0.0,0.0,0.0,0.0,0.0,0.0,0.0,0.0,0.0,0.0,-1.9049,-2.1162,-2.2728,-2.3741,-2.3795,-2.3795,-2.3795,-2.3397,-2.2654,0.0,0.0,0.0,0.0,0.0,0.0,0.0,0.0,0.0,0.0,0.0,0.0,0.0,0.0,0.0,0.0,0.0,0.0,0.0,0.0,0.0,0.0,0.0,0.0,0.0,0.0,0.0,0.0,0.0,0.0,0.0,0.0,0.0,0.0,0.0,0.0,0.0,0.0,0.0,0.0,0.0,-1.9481,-1.8783,-1.9191,0.0,0.0,0.0,0.0,-1.9797,-1.9512,0.0,0.0,0.0,0.0,0.0,0.0,0.0,0.0,0.0,0.0,0.0,0.0,0.0,0.0,0.0,0.0,0.0,0.0,0.0,0.0,0.0,0.0,0.0,0.0,0.0,0.0,0.0,0.0,0.0,0.0,0.0,0.0,0.0,0.0,0.0,0.0,0.0,0.0,0.0,0.0,0.0,0.0,0.0,0.0,0.0,0.0,0.0,0.0,0.0,0.0,0.0,0.0,0.0,0.0,0.0,0.0,-1.896,-2.0073,-2.1625,-2.3666,-2.3795,-2.3795,-2.3813,-2.4411,-2.3705,0.0,0.0,0.0,0.0,0.0,0.0,0.0,0.0,0.0,0.0,0.0,0.0,0.0,0.0,0.0,0.0,0.0,0.0,0.0,0.0,0.0,0.0,0.0,0.0,0.0,0.0,0.0,0.0,0.0,0.0,0.0,0.0,0.0,0.0,0.0,0.0,0.0,0.0,0.0,0.0,0.0,-2.1228,-2.0736,-2.05,-2.0391,0.0,0.0,-2.1618,-2.1826,-2.2531,0.0,0.0,0.0,0.0,0.0,0.0,0.0,0.0,0.0,0.0,0.0,0.0,0.0,0.0,0.0,0.0,0.0,0.0,0.0,0.0,0.0,0.0,0.0,0.0,0.0,0.0,0.0,0.0,0.0,0.0,0.0,0.0,0.0,0.0,0.0,0.0,0.0,0.0,0.0,0.0,0.0,0.0,0.0,0.0,0.0,0.0,0.0,0.0,0.0,0.0,0.0,0.0,0.0,0.0,0.0,-1.5526,-1.8996,-2.0344,-2.1899,-2.3723,-2.3795,-2.3795,-2.3795,-2.3741,-2.2799,0.0,0.0,0.0,0.0,0.0,0.0,0.0,0.0,0.0,0.0,0.0,0.0,0.0,0.0,0.0,0.0,0.0,0.0,0.0,0.0,0.0,0.0,0.0,0.0,0.0,0.0,0.0,0.0,0.0,0.0,0.0,0.0,0.0,0.0,0.0,0.0,0.0,0.0,0.0,0.0,0.0,0.0,-2.1596,-2.1936,0.0,0.0,0.0,-2.3716,-2.4283,0.0,0.0,0.0,0.0,0.0,0.0,0.0,0.0,0.0,0.0,0.0,0.0,0.0,0.0,0.0,0.0,0.0,0.0,0.0,0.0,0.0,0.0,0.0,0.0,0.0,0.0,0.0,0.0,0.0,0.0,0.0,0.0,0.0,0.0,0.0,0.0,0.0,0.0,0.0,0.0,0.0,0.0,0.0,0.0,0.0,0.0,0.0,0.0,0.0,0.0,0.0,0.0,0.0,0.0,0.0,0.0,0.0,-1.934,-2.1173,-2.2733,-2.4049,-2.4302,-2.4284,-2.4085,-2.3379,0.0,0.0,0.0,0.0,0.0,0.0,0.0,0.0,0.0,0.0,0.0,0.0,0.0,0.0,0.0,0.0,0.0,0.0,0.0,0.0,0.0,0.0,0.0,0.0,0.0,0.0,0.0,-0.6954,0.0,0.0,0.0,0.0,0.0,0.0,0.0,0.0,0.0,0.0,0.0,0.0,0.0,0.0,-2.2764,-2.2801,-2.3727,-2.4463,0.0,0.0,-2.5865,-2.6363,-2.6246,-2.5542,0.0,0.0,0.0,0.0,0.0,0.0,0.0,0.0,0.0,0.0,0.0,0.0,0.0,0.0,0.0,0.0,0.0,0.0,0.0,0.0,0.0,0.0,0.0,0.0,0.0,0.0,0.0,0.0,0.0,0.0,0.0,0.0,0.0,0.0,0.0,0.0,0.0,0.0,0.0,0.0,0.0,0.0,0.0,0.0,0.0,0.0,0.0,0.0,0.0,0.0,0.0,0.0,0.0,0.0,0.0,-2.0173,-2.2482,-2.4042,-2.4878,-2.5642,-2.5679,-2.4936,-2.4139,-2.2998,0.0,0.0,0.0,0.0,0.0,0.0,0.0,0.0,0.0,0.0,0.0,0.0,0.0,0.0,0.0,0.0,0.0,0.0,0.0,0.0,0.0,0.0,0.0,0.0,0.0,0.0,0.0,0.0,0.0,0.0,0.0,0.0,0.0,0.0,0.0,0.0,0.0,0.0,0.0,0.0,0.0,-2.4643,-2.4948,-2.6105,-2.7066,0.0,0.0,-2.824,-2.7681,-2.884,-2.849,-2.4538,0.0,0.0,0.0,0.0,0.0,0.0,0.0,0.0,0.0,0.0,0.0,0.0,0.0,0.0,0.0,0.0,0.0,0.0,0.0,0.0,0.0,0.0,0.0,0.0,0.0,0.0,0.0,0.0,0.0,0.0,0.0,0.0,0.0,0.0,0.0,0.0,0.0,0.0,0.0,0.0,0.0,0.0,0.0,0.0,0.0,0.0,0.0,0.0,0.0,0.0,0.0,0.0,0.0,-1.7578,-2.0282,-2.2608,-2.4185,-2.4986,-2.5787,-2.5823,-2.5009,-2.4701,-2.3361,0.0,0.0,0.0,0.0,0.0,0.0,0.0,0.0,0.0,0.0,0.0,0.0,0.0,0.0,0.0,0.0,0.0,0.0,0.0,0.0,0.0,0.0,0.0,0.0,0.0,0.0,0.0,0.0,-1.1905,-1.2383,-1.1939,0.0,0.0,0.0,0.0,0.0,0.0,0.0,0.0,0.0,0.0,-2.5576,-2.7143,-2.7433,0.0,0.0,-2.9456,-2.9537,-2.9287,-2.9325,-2.8332,-2.5199,-2.4263,0.0,0.0,0.0,0.0,0.0,0.0,0.0,0.0,0.0,0.0,0.0,0.0,0.0,0.0,0.0,0.0,0.0,0.0,0.0,0.0,0.0,0.0,0.0,0.0,0.0,0.0,0.0,0.0,0.0,0.0,0.0,0.0,0.0,0.0,0.0,0.0,0.0,0.0,0.0,0.0,0.0,0.0,0.0,0.0,0.0,0.0,0.0,0.0,0.0,0.0,0.0,0.0,-1.8353,-2.0988,-2.3336,-2.4905,-2.5697,-2.6512,-2.653,-2.5751,-2.5244,-2.3741,0.0,0.0,0.0,0.0,0.0,0.0,0.0,0.0,0.0,0.0,0.0,0.0,0.0,0.0,0.0,0.0,0.0,0.0,0.0,0.0,0.0,0.0,0.0,0.0,0.0,0.0,0.0,0.0,-1.4202,-1.4209,-1.3476,0.0,0.0,0.0,0.0,0.0,0.0,0.0,0.0,0.0,0.0,-2.6626,-2.8493,-2.8793,-2.9268,-3.0414,-3.0357,-3.03,-3.0548,-3.007,-2.8809,-2.6357,0.0,0.0,0.0,0.0,0.0,0.0,0.0,0.0,0.0,0.0,0.0,0.0,0.0,0.0,0.0,0.0,0.0,0.0,0.0,0.0,0.0,0.0,0.0,0.0,0.0,0.0,0.0,0.0,0.0,0.0,-1.432,0.0,0.0,0.0,0.0,0.0,0.0,0.0,0.0,0.0,0.0,0.0,0.0,0.0,0.0,0.0,0.0,0.0,0.0,0.0,0.0,0.0,0.0,-1.9482,-2.2618,-2.4932,-2.6506,-2.7308,-2.8117,-2.8098,-2.7327,-2.5842,-2.4266,-2.2654,0.0,0.0,0.0,0.0,0.0,0.0,0.0,0.0,0.0,0.0,0.0,0.0,0.0,0.0,0.0,0.0,0.0,0.0,0.0,0.0,0.0,0.0,0.0,0.0,0.0,0.0,-1.4691,-1.4804,-1.4493,0.0,0.0,0.0,0.0,0.0,0.0,0.0,0.0,0.0,0.0,-2.6065,-2.7969,-2.8853,-3.0357,-3.1389,-3.1503,-3.0796,-3.0529,-3.135,-3.1389,-3.051,0.0,0.0,0.0,0.0,0.0,0.0,0.0,0.0,0.0,0.0,0.0,0.0,0.0,0.0,0.0,0.0,0.0,0.0,0.0,0.0,0.0,0.0,0.0,0.0,0.0,0.0,0.0,-1.9666,-1.8869,0.0,0.0,0.0,0.0,0.0,0.0,0.0,0.0,0.0,0.0,0.0,-2.2391,-2.3343,0.0,0.0,0.0,0.0,0.0,0.0,0.0,0.0,0.0,0.0,0.0,0.0,-2.1313,-2.3436,-2.5786,-2.7121,-2.7417,-2.8171,-2.8207,-2.7411,-2.6892,-2.5371,-2.2761,0.0,0.0,0.0,0.0,0.0,0.0,0.0,0.0,0.0,0.0,0.0,0.0,0.0,0.0,0.0,0.0,0.0,0.0,0.0,0.0,0.0,0.0,0.0,0.0,0.0,-1.5329,0.0,0.0,0.0,0.0,0.0,0.0,0.0,0.0,0.0,0.0,0.0,-2.3556,-2.6097,-2.8122,-2.986,-3.1221,-3.1909,-3.2516,0.0,0.0,0.0,0.0,0.0,0.0,0.0,0.0,0.0,0.0,0.0,0.0,0.0,0.0,-2.7879,-2.3422,-2.2421,-2.2173,-2.1914,0.0,0.0,0.0,0.0,0.0,0.0,0.0,0.0,0.0,0.0,0.0,0.0,0.0,0.0,-2.2722,0.0,-2.1366,0.0,0.0,0.0,0.0,0.0,0.0,0.0,0.0,-2.4538,-2.5375,-2.5862,-2.668,-2.6617,0.0,-2.4974,-2.34,0.0,0.0,0.0,0.0,0.0,0.0,0.0,0.0,-2.2809,-2.4617,-2.6447,-2.7547,-2.7827,-2.8341,-2.8334,-2.7834,-2.729,-2.5751,-2.3198,-2.1332,-1.9847,0.0,0.0,0.0,0.0,0.0,0.0,0.0,0.0,0.0,0.0,0.0,0.0,0.0,0.0,0.0,0.0,0.0,0.0,0.0,0.0,0.0,0.0,0.0,-1.7247,0.0,0.0,0.0,0.0,0.0,0.0,0.0,0.0,0.0,-2.2295,-2.3976,-2.6058,-2.8294,-3.0013,-3.1465,-3.2539,0.0,0.0,0.0,0.0,0.0,0.0,0.0,-3.2955,-3.2076,-3.2191,-3.2191,-3.1618,-3.2649,-3.3318,-3.2497,0.0,0.0,-2.7058,-2.5933,-2.5688,-2.5403,-2.6963,-2.8176,-2.7638,-2.9294,-3.0814,0.0,0.0,0.0,0.0,0.0,0.0,0.0,0.0,-2.5737,-2.5699,0.0,-2.4759,0.0,0.0,0.0,0.0,0.0,-2.4099,0.0,0.0,-2.8147,-2.9267,-2.9373,-2.991,-2.982,-2.9159,-2.9606,-2.8724,-2.6432,-2.1934,0.0,0.0,0.0,0.0,0.0,0.0,-2.3971,-2.6204,-2.7121,-2.7908,-2.8659,-2.8721,-2.8659,-2.863,-2.7109,-2.557,-2.4088,-2.3252,-2.2077,-2.0494,-1.8917,0.0,0.0,0.0,0.0,0.0,0.0,0.0,0.0,0.0,0.0,0.0,0.0,0.0,0.0,0.0,0.0,0.0,0.0,0.0,0.0,-1.8963,0.0,0.0,0.0,0.0,0.0,0.0,0.0,0.0,0.0,0.0,-2.4435,-2.6307,-2.8389,-3.0051,0.0,0.0,0.0,0.0,-3.4407,-3.519,-3.4636,-3.4694,-3.626,-3.6453,-3.6148,-3.5381,0.0,0.0,-3.4426,-3.4808,-3.5095,-3.4273,-3.477,-3.4767,-3.3149,-3.1996,-3.1243,-3.0541,-3.1092,-3.1731,-3.1917,-3.3064,-3.4449,-3.2063,0.0,0.0,0.0,0.0,-2.9567,-3.0664,-3.2214,-3.1648,-3.0741,-2.963,-2.8842,0.0,0.0,0.0,0.0,0.0,0.0,-2.8055,-2.9742,-3.0617,-3.1509,-3.247,-3.2218,-3.1846,-3.1415,-3.0483,-2.9965,-2.9671,-2.7296,-2.4411,-2.1242,0.0,0.0,0.0,0.0,-2.6664,-2.7919,-2.9274,-3.0071,-3.0296,-3.0314,-3.0025,-2.9463,-2.7906,-2.6856,-2.6403,-2.5642,-2.4469,-2.2877,-2.1859,0.0,0.0,0.0,0.0,0.0,0.0,0.0,0.0,0.0,0.0,0.0,0.0,0.0,0.0,0.0,0.0,0.0,0.0,0.0,-1.806,-1.8731,-1.938,0.0,0.0,0.0,0.0,0.0,0.0,0.0,0.0,0.0,-2.9961,-2.9746,-3.0109,0.0,0.0,-3.4503,-3.4483,-3.5725,-3.6738,-3.6967,-3.6795,0.0,0.0,-3.6871,-3.6623,-3.6929,-3.7712,-3.8113,-3.7655,-3.7769,-3.7636,-3.6795,-3.6833,-3.6831,-3.6473,-3.5224,-3.4208,-3.3969,-3.4606,-3.5224,-3.5334,-3.6161,-3.6949,-3.7,-3.3935,-3.2504,-3.2449,-3.3348,-3.3678,-3.4629,-3.5936,-3.5243,-3.452,-3.3762,-3.2828,-3.133,-2.9439,-2.9127,0.0,0.0,0.0,-3.1158,-3.2957,-3.3022,-3.3687,-3.4832,-3.4475,-3.4105,-3.3826,-3.261,-3.2054,-3.2056,-3.08,-2.8391,-2.4962,0.0,0.0,-2.5574,-2.7394,-2.8745,-2.9564,-3.0495,-3.1,-3.1011,-3.1021,-3.0767,-3.0287,-2.9029,-2.8214,-2.7888,-2.7109,-2.6072,-2.4802,-2.3702,-2.2007,0.0,0.0,0.0,0.0,0.0,0.0,0.0,0.0,0.0,0.0,0.0,-1.2808,0.0,0.0,0.0,0.0,-1.6605,-1.8916,-2.0505,-2.1016,0.0,0.0,0.0,0.0,0.0,0.0,0.0,-2.9522,-3.0491,-3.1618,-3.3433,-3.3127,-3.3089,-3.4082,-3.5362,-3.6203,-3.6203,0.0,-3.8343,-3.8667,-3.9011,-3.9317,-3.9642,-3.9317,-3.9183,-3.9623,-4.0157,-4.0501,-4.052,-4.052,-4.031,-3.9871,-3.9718,-3.9755,-3.9828,-3.8982,-3.7824,-3.6665,-3.681,-3.7296,-3.7642,-3.8142,-3.8604,-4.1056,-4.0194,-3.7991,-3.689,-3.6652,-3.7367,-3.7698,-3.7738,-3.7273,-3.7295,-3.7594,-3.6572,-3.541,-3.4137,-3.3421,0.0,-3.3128,-3.3844,-3.4731,-3.5725,-3.5457,-3.5863,-3.683,-3.6556,-3.6352,-3.6168,-3.5436,-3.4639,-3.3788,-3.2984,-3.1819,-3.0402,-2.958,-2.9391,-2.9797,-2.9911,-3.0362,-3.1083,-3.1175,-3.12,-3.1209,-3.112,-3.1093,-3.1075,-3.0242,-2.9445,-2.8739,-2.7942,-2.7115,-2.6309,-2.4842,-2.3317,-2.1821,0.0,0.0,0.0,0.0,0.0,0.0,0.0,0.0,0.0,0.0,0.0,0.0,0.0,0.0,0.0,-1.9773,0.0,-2.385,-2.4721,0.0,0.0,0.0,-2.5497,-2.5765,-2.7816,-2.9846,-3.1522,0.0,0.0,-3.54,-3.626,-3.6852,-3.6873,-3.7483,-3.7903,-3.7903,-3.8725,-3.9603,-4.0406,-4.1113,-4.1839,-4.2316,-4.245,-4.2412,-4.245,-4.2794,-4.266,-4.2622,-4.266,-4.2756,-4.2584,-4.2756,-4.2698,-4.2775,-4.2546,-4.1965,-3.8992,-3.8488,-3.8719,-3.9469,-3.9623,-3.9777,-4.4635,-4.4433,-4.3864,-4.1846,-3.9074,-3.9239,-3.9656,-4.0215,-4.0105,-3.9778,-3.9296,-3.9053,-3.8416,-3.7514,-3.7331,-3.7257,-3.7257,-3.7459,-3.7985,-3.8773,-3.8356,-3.8456,-3.9038,-3.7918,-3.7253,-3.7028,-3.6163,-3.567,-3.5499,-3.5257,-3.4925,-3.4561,-3.4302,-3.269,-2.9942,-3.1,-3.1737,-3.19,-3.2502,-3.2828,-3.2803,-3.2252,-3.1908,-3.1908,-3.0532,-2.9743,-2.9577,-2.8764,-2.796,-2.7211,-2.6191,-2.4965,-2.3487,-2.107,0.0,0.0,0.0,0.0,0.0,0.0,0.0,0.0,0.0,-1.7482,-1.4525,0.0,-2.0215,0.0,-2.2656,-2.4412,-2.4721,-2.501,0.0,0.0,-2.7625,-2.8122,-3.0624,-3.1431,-3.2439,-3.4101,-3.5248,-3.6451,-3.7922,-3.8858,-3.9642,-4.0215,-3.9928,-3.968,-3.9737,-4.0979,-4.1953,-4.2163,-4.2374,-4.2545,-4.2794,-4.2794,-4.2832,-4.2794,-4.2813,-4.2794,-4.2794,-4.2794,-4.2794,-4.2794,-4.2794,-4.2814,-4.291,-4.2889,-4.2752,-4.205,-4.1893,-4.1931,-4.2143,-4.1643,-4.1258,-4.6232,-4.5902,-4.5902,-4.4599,-4.2561,-4.2561,-4.2815,-4.3192,-4.258,-4.2044,-4.1452,-4.0762,-4.027,-3.9939,-3.9834,-3.9772,-3.979,-3.979,-4.001,-4.0414,-4.0117,-4.0154,-4.0391,-3.9612,-3.8988,-3.8505,-3.7955,-3.7387,-3.6758,-3.6602,-3.6358,-3.6012,-3.5908,-3.4721,-3.2596,-3.3367,-3.3814,-3.3807,-3.388,-3.376,-3.3393,-3.2958,-3.256,-3.218,-3.0985,-3.0178,-2.9842,-2.908,-2.8445,-2.804,-2.7235,-2.6299,-2.5189,-2.3234,-2.1502,0.0,0.0,0.0,0.0,0.0,0.0,0.0,0.0,0.0,0.0,0.0,-2.1581,0.0,-2.513,-2.6969,-2.7279,-2.8057,-2.9153,-3.0624,-3.0624,-3.1255,-3.3089,-3.3949,-3.4887,-3.6165,-3.7082,-3.8113,-3.9412,-4.031,-4.1132,-4.1972,-4.2011,-4.182,-4.159,-4.2545,-4.3329,-4.3329,-4.3673,-4.3902,-4.3921,-4.3902,-4.3921,-4.3921,-4.3921,-4.3921,-4.3921,-4.3921,-4.3902,-4.3902,-4.3902,-4.3941,-4.3963,-4.3982,-4.4039,-4.4094,-4.4149,-4.3915,-4.3258,-4.272,-4.2374,-4.6838,-4.6214,-4.6195,-4.6214,-4.6195,-4.6214,-4.6102,-4.5819,-4.4646,-4.4044,-4.3699,-4.2323,-4.1774,-4.1878,-4.1682,-4.1515,-4.1423,-4.1423,-4.1423,-4.1423,-4.1299,-4.124,-4.125,-4.1148,-4.0726,-4.0068,-4.0042,-3.9313,-3.7973,-3.7674,-3.7161,-3.6486,-3.624,-3.6141,-3.6109,-3.6097,-3.6018,-3.5792,-3.5109,-3.4352,-3.3574,-3.3574,-3.3121,-3.2216,-3.1419,-3.0649,-2.9834,-2.9105,-2.8712,-2.8676,-2.7936,-2.7246,-2.6618,-2.4974,-2.3511,0.0,-2.1433,0.0,0.0,0.0,0.0,0.0,0.0,0.0,0.0,-2.2352,-2.3261,-2.4606,-2.7536,-2.9707,-3.0433,-3.1943,-3.2688,-3.2267,-3.3433,-3.4369,-3.4503,-3.5878,-3.7139,-3.7941,-3.8782,-3.9642,-4.054,-4.1323,-4.2144,-4.2851,-4.3596,-4.3768,-4.3348,-4.373,-4.4169,-4.4188,-4.48,-4.5086,-4.5144,-4.5201,-4.5201,-4.5239,-4.5163,-4.5277,-4.5201,-4.5201,-4.5239,-4.5239,-4.5163,-4.522,-4.5298,-4.532,-4.5361,-4.5285,-4.5323,-4.4975,-4.3876,-4.3374,-4.3258,-4.7994,-4.7865,-4.7847,-4.7847,-4.7865,-4.7847,-4.7132,-4.5901,-4.5625,-4.5496,-4.5424,-4.5131,-4.4652,-4.4099,-4.403,-4.3663,-4.3039,-4.3039,-4.3057,-4.302,-4.2383,-4.2087,-4.204,-4.14,-4.1019,-4.0895,-4.0826,-4.0661,-4.0414,-3.9676,-3.9177,-3.8911,-3.8241,-3.7899,-3.782,0.0,0.0,0.0,-3.5666,-3.5168,-3.4407,-3.4389,-3.3683,-3.2252,-3.1474,0.0,-2.9904,-2.9173,-2.8785,-2.8749,-2.8002,0.0,0.0,0.0,0.0,0.0,0.0,0.0,0.0,0.0,0.0,0.0,-2.7001,-2.6231,-2.4588,-2.7529,-2.9421,-2.9096,-3.0815,-3.2042,-3.2195,-3.3146,-3.4235,-3.5439,-3.584,-3.6279,-3.6929,-3.7922,-3.8858,-3.9718,-4.052,-4.1342,-4.2183,-4.3042,-4.3577,-4.3768,-4.4513,-4.4953,-4.48,-4.4876,-4.5048,-4.5067,-4.5201,-4.5277,-4.5277,-4.5277,-4.5277,-4.5277,-4.5277,-4.5277,-4.5277,-4.5277,-4.5277,-4.5277,-4.5277,-4.5317,-4.5378,-4.5398,-4.5418,-4.5419,-4.5438,-4.5417,-4.5163,-4.4547,-4.4085,-4.9297,0.0,-4.893,-4.871,0.0,-4.8324,-4.7847,-4.7058,-4.6673,-4.6287,-4.5902,-4.5902,-4.5681,-4.5296,-4.5296,-4.5057,-4.4654,-4.4287,-4.4103,-4.4048,-4.3261,-4.2894,-4.2871,-4.2493,-4.2059,-4.169,-4.165,-4.1482,-4.1079,-4.0628,-4.0324,-4.0169,-3.9352,-3.8904,-3.8839,-3.8425,-3.7615,-3.645,-3.641,-3.6037,-3.5296,-3.4836,-3.4027,-3.2853,0.0,0.0,0.0,0.0,0.0,0.0,0.0,0.0,0.0,0.0,0.0,-2.6447,-2.6866,-2.6954,-2.6648,-2.7525,-2.8434,-2.9216,-3.059,-3.0324,-2.7782,-3.0348,-3.1923,-3.1541,-3.3337,-3.4579,-3.4601,-3.5324,-3.6165,-3.7005,-3.7483,-3.8075,-3.8897,-3.9737,-4.0578,-4.138,-4.1896,-4.245,-4.3291,-4.373,-4.4188,-4.4571,-4.501,-4.5297,-4.5277,-4.5277,-4.5277,-4.5277,-4.5277,-4.5277,-4.5277,-4.5277,-4.5297,-4.5277,-4.5277,-4.5277,-4.5277,-4.5277,-4.5277,-4.5277,-4.5277,-4.5317,-4.5338,-4.5359,-4.5399,-4.5419,-4.5438,-4.5513,-4.5586,-4.524,-4.4932,-5.0417,-4.9811,-4.9793,-4.9389,-4.8746,-4.8746,-4.8673,-4.8489,0.0,0.0,0.0,-4.6324,-4.6232,-4.6104,-4.6122,-4.603,-4.5847,-4.5223,-4.4837,-4.4672,-4.4046,-4.3642,-4.3497,-4.3479,-4.3151,-4.2514,-4.2527,-4.2176,-4.1552,-4.1339,-4.1147,-4.0953,-4.0175,-3.9599,-3.9367,-3.8749,-3.8074,-3.733,-3.7268,-3.687,-3.617,-3.5442,-3.4558,-3.3528,-3.2192,-3.1048,-3.0148,-2.9569,-2.9278,-2.9302,-2.9326,-2.93,-2.9301,-3.0032,-3.0485,-3.0657,-3.1619,-3.1994,-3.1545,-3.1939,-3.1971,-3.1482,-3.3436,-3.37,-3.1465,-3.2726,-3.3586,-3.3586,-3.5496,-3.6776,-3.6929,-3.7674,-3.8209,-3.8362,-3.9145,-3.9966,-4.0673,-4.1304,-4.2011,-4.2832,-4.3004,-4.3329,-4.4112,-4.4265,-4.4475,-4.5105,-4.5277,-4.5373,-4.5449,-4.5411,-4.5277,-4.5277,-4.5297,-4.5335,-4.5488,-4.5545,-4.5564,-4.5851,-4.5679,-4.5507,-4.5507,-4.5392,-4.5297,-4.5277,-4.5277,-4.5277,-4.5297,-4.5378,-4.5399,-4.54,-4.5438,-4.5513,-4.5568,-4.5586,-4.5547,-5.0747,-5.0618,-5.0618,-5.0563,-5.0453,-5.0453,-5.0068,-4.9368,-4.8508,-4.8086,-4.7976,-4.7976,-4.759,-4.6948,-4.6948,-4.6562,-4.5902,-4.5792,-4.5369,0.0,-4.4577,-4.4154,-4.3497,-4.3479,-4.3442,-4.3351,-4.3332,-4.3259,-4.3094,-4.2386,-4.1988,-4.1738,-4.0957,-4.0142,-3.9449,-3.9345,-3.8925,-3.8158,-3.8049,-3.7667,-3.688,-3.6803,-3.5708,-3.3637,-3.3386,-3.2575,-3.101,-3.1002,-3.0979,-3.0896,-3.0998,-3.0814,-3.0335,-3.0332,-3.0019,-2.9644,-3.0816,-3.1505,-3.1515,-3.3533,-3.5289,-3.6215,-3.6842,-3.6719,-3.5763,-3.6451,-3.6986,-3.7005,-3.7368,-3.7846,-3.8572,-3.9431,-4.0196,-4.0864,-4.1724,-4.2316,-4.2393,-4.2526,-4.2928,-4.3749,-4.3825,-4.4169,-4.4876,-4.5067,-4.5067,-4.5239,-4.5277,-4.5507,-4.5908,-4.5717,-4.5335,-4.5277,-4.5277,-4.5583,-4.6175,-4.6328,-4.6596,-4.736,-4.6748,-4.6233,-4.6233,-4.5698,-4.5316,-4.5277,-4.5277,-4.5277,-4.5277,-4.5359,-4.5418,-4.5419,-4.5458,-4.5513,-4.555,-4.5568,-4.5586,-5.1867,-5.1463,-5.1463,-5.1187,-5.082,-5.082,-5.0582,-5.0236,-4.9829,-4.9114,-4.8343,-4.8324,-4.8104,-4.7774,-4.7774,-4.7572,-4.7186,-4.6764,-4.6361,-4.5993,-4.5533,-4.4925,-4.4191,-4.414,-4.3938,-4.3516,-4.3479,-4.3479,-4.3442,-4.3096,-4.2862,-4.2684,-4.1865,-4.1012,-4.0179,-3.9717,-3.9316,-3.8925,-3.847,-3.8071,-3.7758,-3.7275,-3.6531,-3.5496,-3.4754,-3.3915,-3.3195,-3.2838,-3.2627,-3.2627,-3.2661,-3.2573,-3.2318,-3.2761,-3.2908,-3.2688,-3.3733,-3.437,-3.437,-3.5528,-3.6686,-3.7706,-3.8036,-3.8441,-3.8974,-3.8632,-3.84,-3.8457,-3.9183,-3.9909,-4.0329,-4.1132,-4.182,-4.2183,-4.2565,-4.2985,-4.3367,-4.3463,-4.3787,-4.4532,-4.4723,-4.4876,-4.5239,-4.5277,-4.5277,-4.5277,-4.5277,-4.5449,-4.5812,-4.5583,-4.564,-4.6443,-4.6653,-4.6787,-4.7131,-4.7207,-4.7398,-4.7761,-4.7073,-4.6577,-4.6462,-4.5831,-4.5373,-4.5277,-4.5277,-4.5277,-4.5297,-4.536,-4.54,-4.5419,-4.5495,-4.555,-4.5568,-4.5586,-4.5586,-5.2858,-5.2252,-5.227,-5.1922,-5.1334,-5.1128,-5.1077,-5.1081,-5.0875,-5.0083,-4.8925,-4.8671,-4.8489,-4.8324,-4.8324,-4.8306,-4.8233,-4.7682,-4.7297,-4.7058,-4.6471,-4.5754,-4.5017,-4.48,-4.4378,-4.3789,-4.3605,-4.3479,-4.3479,-4.3497,-4.3428,-4.3286,-4.263,-4.1866,-4.1087,-4.0395,-3.9958,-3.9758,-3.8961,-3.8434,-3.8318,-3.7657,-3.7275,-3.7093,-3.5982,-3.5246,-3.5143,-3.4604,-3.4303,-3.4312,-3.4357,-3.4376,-3.4403,-3.5203,-3.5658,-3.5706,-3.6608,-3.7296,-3.7464,-3.7554,-3.7934,-3.879,-3.9088,-3.988,-4.1176,-4.05,-3.9852,-4.0005,-4.1017,-4.1762,-4.1858,-4.2526,-4.308,-4.3061,-4.3252,-4.3673,-4.4188,-4.4303,-4.4532,-4.5182,-4.5277,-4.5277,-4.5277,-4.5277,-4.5277,-4.5277,-4.5277,-4.5354,-4.5507,-4.5564,-4.6214,-4.7207,-4.7532,-4.7226,-4.7455,-4.7455,-4.7532,-4.7723,-4.7092,-4.6615,-4.6385,-4.5831,-4.5354,-4.5277,-4.5277,-4.5277,-4.5317,-4.5361,-4.5285,-4.5132,-4.5111,-4.5182,-4.4913,-4.4893,-4.5066,-5.3151,-5.3096,-5.3059,-5.3059,-5.2876,-5.2205,-5.1888,-5.1797,-5.1142,-5.073,-5.0464,-4.9805,-4.9058,-4.8379,-4.8324,-4.8324,-4.8306,-4.8233,-4.781,-4.7167,-4.7038,-4.6561,-4.5755,-4.5058,-4.4671,-4.4502,-4.3881,-4.3552,-4.3552,-4.3465,-4.334,-4.3251,-4.3123,-4.2686,-4.1939,-4.1741,-4.1341,-4.068,-3.9849,-3.9002,-3.8295,-3.8219,-3.7867,-3.7234,-3.7131,-3.6705,-3.6076,-3.6025,-3.6017,-3.5923,-3.6017,-3.6064,-3.6093,-3.6406,-3.6496,-3.6306,-3.7448,-3.8469,-3.9169,-3.949,-3.9905,-4.0745,-4.0992,-4.157,-4.2506,-4.2507,-4.245,-4.245,-4.2584,-4.2679,-4.2717,-4.3424,-4.3883,-4.394,-4.4494,-4.5105,-4.5086,-4.5182,-4.522,-4.5258,-4.5277,-4.5277,-4.5277,-4.5277,-4.5277,-4.5277,-4.5277,-4.5488,-4.6003,-4.6137,-4.6405,-4.7131,-4.6596,-4.608,-4.6557,-4.6653,-4.7092,-4.7589,-4.7092,-4.6615,-4.6347,-4.587,-4.5277,-4.5277,-4.5277,-4.5277,-4.5298,-4.5321,-4.5151,-4.4806,-4.4573,-4.4259,-4.3605,-4.3489,-4.3739,-5.3206,-5.3206,-5.3206,-5.3206,-5.3109,-5.2852,-5.27,-5.2663,-5.2375,-5.1943,-5.1475,-5.1165,-5.0288,-4.904,-4.8545,-4.8324,-4.8324,-4.8324,-4.8159,-4.7829,-4.7809,-4.7386,-4.6635,-4.6287,-4.5902,-4.535,-4.4616,-4.4213,-4.414,-4.3701,-4.3446,-4.3393,-4.3393,-4.321,-4.288,-4.2355,-4.1918,-4.1622,-4.0729,-4.0096,-3.9683,-3.8809,-3.8255,-3.8008,-3.7985,-3.7937,-3.7656,-3.7686,-3.7686,-3.7619,-3.7668,-3.7734,-3.7716,-3.7816,-3.7845,-3.7764,-3.8359,-3.8995,-3.9483,-4.0056,-4.0519,-4.0839,-4.1582,-4.2379,-4.318,-4.3418,-4.3711,-4.4131,-4.3806,-4.352,-4.3596,-4.4284,-4.4781,-4.4819,-4.5105,-4.5277,-4.5277,-4.5277,-4.5277,-4.5277,-4.5277,-4.5277,-4.5277,-4.5277,-4.5277,-4.5277,-4.5277,-4.5488,-4.5755,-4.5793,-4.5946,-4.6156,-4.5679,-4.5984,-4.6863,-4.7264,-4.7417,-4.7532,-4.7092,-4.6538,-4.6366,-4.5831,-4.5297,-4.5297,-4.5298,-4.5317,-4.5378,-4.538,-4.5266,-4.4843,-4.4418,-4.4047,-4.3278,-4.3104,-4.3124,-5.3206,-5.3206,-5.3206,-5.3206,-5.3206,-5.3206,-5.3206,-5.3206,-5.3206,-5.2889,-5.237,-5.21,-5.1371,-5.0233,-4.937,-4.8893,-4.8673,-4.8655,-4.8526,-4.8343,-4.8324,-4.7992,-4.7421,-4.7186,-4.68,-4.6195,-4.5388,-4.4911,-4.469,-4.4158,-4.3718,-4.3534,-4.3479,-4.3479,-4.3442,-4.2823,-4.2532,-4.2459,-4.1643,-4.1188,-4.1003,-3.9867,-3.9063,-3.8857,-3.8619,-3.8559,-3.8707,-3.8707,-3.8707,-3.8707,-3.8707,-3.8707,-3.8707,-3.875,-3.8851,-3.8958,-3.9239,-3.9581,-3.9919,-4.0696,-4.1267,-4.1647,-4.2397,-4.3171,-4.39,-4.4238,-4.4628,-4.5086,-4.4723,-4.436,-4.4418,-4.4914,-4.5258,-4.5277,-4.5277,-4.5277,-4.5277,-4.5277,-4.5277,-4.5277,-4.5277,-4.5277,-4.5277,-4.5277,-4.5277,-4.5277,-4.5277,-4.5277,-4.5277,-4.5316,-4.5335,-4.5277,-4.5297,-4.5755,-4.6882,-4.692,-4.7131,-4.7035,-4.6424,-4.6118,-4.6175,-4.5623,-4.5337,-4.5338,-4.5338,-4.5339,-4.538,-4.5419,-4.5304,-4.5071,-4.4568,-4.3758,-4.2777,-4.2739,-4.2489,-5.3206,-5.3206,-5.3206,-5.3206,-5.3206,-5.3206,-5.3206,-5.3206,-5.3206,-5.317,-5.2981,-5.2362,-5.1958,-5.1793,-5.1022,-5.027,-4.9609,-4.9481,-4.9058,-4.8434,-4.8343,-4.8288,-4.8196,-4.7442,-4.7074,-4.6981,-4.625,-4.548,-4.4782,-4.4654,-4.4268,-4.3552,-4.3516,-4.3479,-4.3479,-4.3369,-4.3369,-4.3224,-4.2551,-4.2166,-4.2124,-4.1372,-4.0551,-3.9827,-3.8985,-3.8669,-3.875,-3.8726,-3.8726,-3.8726,-3.8707,-3.8707,-3.8738,-3.8939,-3.9193,-3.9488,-3.9964,-4.0464,-4.1033,-4.1783,-4.2633,-4.355,-4.3783,-4.4263,-4.493,-4.5084,-4.5163,-4.5277,-4.5201,-4.5125,-4.5125,-4.5201,-4.5277,-4.5277,-4.5277,-4.5277,-4.5277,-4.5277,-4.5277,-4.5277,-4.5277,-4.5277,-4.5277,-4.5277,-4.5277,-4.5277,-4.5277,-4.5277,-4.5277,-4.5277,-4.5277,-4.5277,-4.5277,-4.5335,-4.5449,-4.5793,-4.5698,-4.5698,-4.5831,-4.5449,-4.5394,-4.5357,-4.5359,-4.5399,-4.54,-4.54,-4.54,-4.5304,-4.5148,-4.478,-4.4068,-4.3239,-4.2931,-4.2162,-4.1854,-5.3206,-5.3206,-5.3206,-5.3206,-5.3206,-5.3206,-5.3206,-5.3206,-5.3206,-5.3206,-5.317,-5.2894,-5.2766,-5.2747,-5.2472,-5.1628,-5.038,-4.9829,-4.9407,-4.9077,-4.8563,-4.8324,-4.8269,-4.7994,-4.7864,-4.7772,-4.7039,-4.625,-4.548,-4.4966,-4.458,-4.4232,-4.3736,-4.3479,-4.3479,-4.3479,-4.3479,-4.3461,-4.3169,-4.3041,-4.2965,-4.2304,-4.1702,-4.139,-4.0588,-4.0198,-4.0249,-3.9753,-3.9478,-3.9478,-3.9001,-3.8707,-3.8744,-3.9289,-3.9756,-4.0049,-4.0838,-4.148,-4.1912,-4.2794,-4.3531,-4.3977,-4.4532,-4.4914,-4.522,-4.5277,-4.5277,-4.5277,-4.5277,-4.5277,-4.5277,-4.5277,-4.5277,-4.5277,-4.5277,-4.5277,-4.5277,-4.5277,-4.5277,-4.5277,-4.5277,-4.5277,-4.5277,-4.5277,-4.5277,-4.5277,-4.5277,-4.5277,-4.5277,-4.5277,-4.5277,-4.5277,-4.5277,-4.5277,-4.5297,-4.5316,-4.5316,-4.5316,-4.5316,-4.5356,-4.5338,-4.5379,-4.5399,-4.5419,-4.5419,-4.5457,-4.5476,-4.5494,-4.526,-4.5107,-4.4355,-4.3816,-4.347,-4.2758,-4.2181,-5.3206,-5.3206,-5.3206,-5.3206,-5.3206,-5.3206,-5.3206,-5.3206,-5.3206,-5.3206,-5.3206,-5.3206,-5.3206,-5.3206,-5.3206,-5.2674,-5.1555,-5.0747,-5.0233,-4.9921,-4.9114,-4.871,-4.8675,-4.8434,-4.8324,-4.8233,-4.7774,-4.7095,-4.6324,-4.5755,-4.5223,-4.469,-4.414,-4.3736,-4.3552,-4.3479,-4.3479,-4.3479,-4.3479,-4.3479,-4.3406,-4.2965,-4.269,-4.2616,-4.2158,-4.1607,-4.1148,-4.0579,-4.0286,-4.0212,-3.9753,-3.9478,-3.9551,-3.9992,-4.0362,-4.0663,-4.1549,-4.2299,-4.2667,-4.3646,-4.4315,-4.4437,-4.4934,-4.5277,-4.5277,-4.5277,-4.5277,-4.5277,-4.5277,-4.5277,-4.5277,-4.5277,-4.5277,-4.5277,-4.5277,-4.5277,-4.5277,-4.5277,-4.5277,-4.5277,-4.5277,-4.5277,-4.5277,-4.5277,-4.5277,-4.5277,-4.5277,-4.5277,-4.5277,-4.5277,-4.5277,-4.5277,-4.5277,-4.5277,-4.5297,-4.5297,-4.5297,-4.5297,-4.5317,-4.5338,-4.5379,-4.5399,-4.5438,-4.5438,-4.5476,-4.5495,-4.5513,-4.5568,-4.5566,-4.5547,-4.5182,-4.4605,-4.4066,-4.3412,-4.2912,-5.3206,-5.3206,-5.3206,-5.3206,-5.3206,-5.3206,-5.3206,-5.3206,-5.3206,-5.3206,-5.3206,-5.3206,-5.3206,-5.3206,-5.3206,-5.3151,-5.2876,-5.2179,-5.1463,-5.0765,-4.9884,-4.9465,-4.9432,-4.8675,-4.8324,-4.8324,-4.8288,-4.7865,-4.7112,-4.6929,-4.6195,-4.5057,-4.4709,-4.425,-4.3534,-4.3552,-4.3479,-4.3479,-4.3479,-4.3479,-4.3479,-4.3406,-4.3369,-4.3406,-4.3314,-4.2671,-4.1313,-4.1167,-4.1111,-4.1111,-4.102,-4.1042,-4.0928,-4.1056,-4.1111,-4.1333,-4.2156,-4.2827,-4.331,-4.4215,-4.4912,-4.5101,-4.5258,-4.5277,-4.5277,-4.5277,-4.5277,-4.5277,-4.5277,-4.5277,-4.5277,-4.5277,-4.5277,-4.5277,-4.5277,-4.5277,-4.5277,-4.5277,-4.5277,-4.5277,-4.5277,-4.5277,-4.5277,-4.5277,-4.5277,-4.5277,-4.5392,-4.5449,-4.5488,-4.5507,-4.5373,-4.543,-4.5411,-4.5335,-4.5316,-4.5316,-4.5316,-4.5337,-4.5317,-4.5338,-4.54,-4.5419,-4.5458,-4.5495,-4.5513,-4.555,-4.5568,-4.5586,-4.5586,-4.5528,-4.5355,-4.522,-4.4682,-4.4085,-4.3701,-5.3206,-5.3206,-5.3206,-5.3206,-5.3206,-5.3206,-5.3206,-5.3206,-5.3206,-5.3206,-5.3206,-5.3206,-5.3206,-5.3206,-5.3206,-5.3206,-5.3188,-5.2913,-5.2399,-5.1499,-5.0233,-4.963,-4.9487,-4.873,-4.8324,-4.8324,-4.8324,-4.8196,-4.7865,-4.7407,-4.6801,-4.6287,-4.5241,-4.4617,-4.4287,-4.3791,-4.3479,-4.3479,-4.3479,-4.3479,-4.3479,-4.3479,-4.3479,-4.3479,-4.3479,-4.3222,-4.2763,-4.2231,-4.1937,-4.1937,-4.1405,-4.1097,-4.1203,-4.1625,-4.2014,-4.2273,-4.3256,-4.3989,-4.4317,-4.4786,-4.5173,-4.5256,-4.5277,-4.5277,-4.5277,-4.5277,-4.5277,-4.5277,-4.5277,-4.5277,-4.5277,-4.5277,-4.5277,-4.5277,-4.5277,-4.5277,-4.5277,-4.5277,-4.5277,-4.5277,-4.5277,-4.5277,-4.5297,-4.5297,-4.5373,-4.543,-4.5774,-4.6118,-4.6137,-4.6137,-4.6443,-4.6844,-4.6233,-4.5602,-4.5736,-4.57,-4.551,-4.5416,-4.5359,-4.536,-4.5419,-4.5477,-4.5495,-4.5531,-4.5568,-4.5586,-4.5586,-4.5586,-4.5586,-4.5586,-4.549,-4.5336,-4.5163,-4.4797,-4.4335,-5.3206,-5.3206,-5.3206,-5.3206,-5.3206,-5.3206,-5.3206,-5.3206,-5.3206,-5.3206,-5.3206,-5.3206,-5.3206,-5.3206,-5.3206,-5.3206,-5.3206,-5.3206,-5.2931,-5.2307,-5.1151,-5.0493,-5.0296,-4.9283,-4.8583,-4.8343,-4.8324,-4.8324,-4.8288,-4.781,-4.7407,-4.6892,-4.6085,-4.5259,-4.4764,-4.4211,-4.3826,-4.3534,-4.3479,-4.3479,-4.3479,-4.3479,-4.3479,-4.3479,-4.3479,-4.3479,-4.3461,-4.2983,-4.2727,-4.2671,-4.2231,-4.2011,-4.2047,-4.2603,-4.3005,-4.3311,-4.3971,-4.4606,-4.4819,-4.5068,-4.5277,-4.5277,-4.5277,-4.5277,-4.5277,-4.5277,-4.5277,-4.5277,-4.5277,-4.5277,-4.5277,-4.5277,-4.5277,-4.5277,-4.5277,-4.5277,-4.5277,-4.5277,-4.5277,-4.5277,-4.5277,-4.5277,-4.5297,-4.564,-4.5717,-4.5851,-4.6462,-4.6978,-4.6997,-4.6997,-4.7417,-4.7589,-4.7073,-4.6634,-4.6405,-4.6141,-4.5762,-4.5571,-4.54,-4.5419,-4.5457,-4.5476,-4.5513,-4.5531,-4.5586,-4.5586,-4.5586,-4.5586,-4.5586,-4.5586,-4.5586,-4.549,-4.5336,-4.5201,-4.4874,-5.3206,-5.3206,-5.3206,-5.3206,-5.3206,-5.3206,-5.3206,-5.3206,-5.3206,-5.3206,-5.3206,-5.3206,-5.3206,-5.3206,-5.3206,-5.3206,-5.3206,-5.3206,-5.3188,-5.2931,-5.227,-5.1834,-5.1342,-5.0076,-4.9118,-4.8563,-4.8379,-4.8324,-4.8306,-4.8214,-4.7921,-4.7297,-4.6965,-4.6342,-4.5223,-4.4833,-4.4299,-4.3754,-4.3552,-4.3479,-4.3479,-4.3479,-4.3479,-4.3479,-4.3479,-4.3479,-4.3461,-4.3406,-4.3406,-4.3461,-4.3314,-4.3275,-4.349,-4.3846,-4.3881,-4.3998,-4.4519,-4.477,-4.4891,-4.5132,-4.5277,-4.5277,-4.5277,-4.5277,-4.5277,-4.5277,-4.5277,-4.5277,-4.5277,-4.5277,-4.5277,-4.5277,-4.5277,-4.5277,-4.5277,-4.5277,-4.5277,-4.5277,-4.5277,-4.5277,-4.5277,-4.5335,-4.543,-4.6042,-4.6347,-4.6748,-4.7322,-4.778,-4.7876,-4.7895,-4.7933,-4.7895,-4.7857,-4.7554,-4.7286,-4.7006,-4.6664,-4.655,-4.6206,-4.5956,-4.5648,-4.5551,-4.5513,-4.5568,-4.5586,-4.5586,-4.5586,-4.5586,-4.5586,-4.5586,-4.5586,-4.5586,-4.5509,-4.5374,-4.5316,-5.3206,-5.3206,-5.3206,-5.3206,-5.3206,-5.3206,-5.3206,-5.3206,-5.3206,-5.3206,-5.3206,-5.3206,-5.3206,-5.3206,-5.3206,-5.3206,-5.3206,-5.3206,-5.3206,-5.3188,-5.3023,-5.2142,-5.1136,-5.0131,-4.9505,-4.9189,-4.8581,-4.8324,-4.8324,-4.8324,-4.8177,-4.7994,-4.7407,-4.6948,-4.6397,-4.5329,-4.4667,-4.4305,-4.3754,-4.3516,-4.3479,-4.3479,-4.3479,-4.3479,-4.3479,-4.3479,-4.3479,-4.3479,-4.3479,-4.3479,-4.3479,-4.3615,-4.3846,-4.3974,-4.4181,-4.4519,-4.4701,-4.4915,-4.5109,-4.5235,-4.5277,-4.5277,-4.5277,-4.5277,-4.5277,-4.5277,-4.5277,-4.5277,-4.5277,-4.5277,-4.5277,-4.5277,-4.5277,-4.5277,-4.5373,-4.5354,-4.5335,-4.5277,-4.5277,-4.5277,-4.5354,-4.566,-4.6118,-4.6481,-4.6863,-4.7455,-4.8143,-4.8754,-4.8754,-4.8774,-4.8793,-4.8945,-4.8888,-4.849,-4.8152,-4.7871,-4.7662,-4.7645,-4.73,-4.6819,-4.6279,-4.5683,-4.5624,-4.5586,-4.5586,-4.5586,-4.5586,-4.5586,-4.5586,-4.5586,-4.5586,-4.5586,-4.5586,-4.5509,-4.549,-5.3206,-5.3206,-5.3206,-5.3206,-5.3206,-5.3206,-5.3206,-5.3206,-5.3206,-5.3206,-5.3206,-5.3206,-5.3206,-5.3206,-5.3206,-5.3206,-5.3206,-5.3206,-5.3206,-5.3206,-5.3188,-5.2491,-5.1371,-5.0515,-4.9924,-4.952,-4.8728,-4.8361,-4.8324,-4.8324,-4.8324,-4.8233,-4.7847,-4.748,-4.7021,-4.6269,-4.5314,-4.4764,-4.4211,-4.3897,-4.3516,-4.3479,-4.3479,-4.3479,-4.3479,-4.3479,-4.3479,-4.3479,-4.3479,-4.3479,-4.3513,-4.3667,-4.3974,-4.4121,-4.4346,-4.4776,-4.4915,-4.5109,-4.5235,-4.5277,-4.5277,-4.5277,-4.5277,-4.5277,-4.5277,-4.5277,-4.5277,-4.5277,-4.5277,-4.5277,-4.5277,-4.5277,-4.5468,-4.5774,-4.5812,-4.5793,-4.5793,-4.5831,-4.6003,-4.6194,-4.6366,-4.6481,-4.7035,-4.7322,-4.778,-4.8334,-4.9079,-4.9442,-4.9614,-4.9614,-4.9595,-4.9671,-4.9675,-4.9319,-4.8941,-4.864,-4.8355,-4.8318,-4.826,-4.7798,-4.699,-4.6163,-4.5874,-4.5817,-4.5682,-4.5586,-4.5586,-4.5586,-4.5586,-4.5586,-4.5586,-4.5586,-4.5586,-4.5586,-4.5586,-5.3206,-5.3206,-5.3206,-5.3206,-5.3206,-5.3206,-5.3206,-5.3206,-5.3206,-5.3206,-5.3206,-5.3206,-5.3206,-5.3206,-5.3206,-5.3206,-5.3206,-5.3206,-5.3206,-5.3206,-5.317,-5.2766,-5.2123,-5.1275,-5.0563,-4.9811,-4.8875,-4.8471,-4.8361,-4.8324,-4.8324,-4.8288,-4.8269,-4.7921,-4.7406,-4.7074,-4.6323,-4.5314,-4.4743,-4.4301,-4.3826,-4.3589,-4.3479,-4.3479,-4.3479,-4.3479,-4.3479,-4.3479,-4.3479,-4.3479,-4.3479,-4.3697,-4.4017,-4.4308,-4.4565,-4.4843,-4.5109,-4.5256,-4.5277,-4.5277,-4.5277,-4.5277,-4.5277,-4.5277,-4.5277,-4.5277,-4.5277,-4.5277,-4.5277,-4.5277,-4.5316,-4.5354,-4.5774,-4.6271,-4.65,-4.6653,-4.6729,-4.6691,-4.6959,-4.7646,-4.7742,-4.7818,-4.8124,-4.8544,-4.9098,-4.9117,-4.971,-4.9882,-5.0015,-5.0038,-5.0058,-5.0157,-5.0122,-5.0071,-4.9752,-4.941,-4.9104,-4.8913,-4.8971,-4.8606,-4.7817,-4.7067,-4.6471,-4.6144,-4.5893,-4.5701,-4.5586,-4.5586,-4.5586,-4.5586,-4.5586,-4.5586,-4.5586,-4.5586,-4.5586,-5.3206,-5.3206,-5.3206,-5.3206,-5.3206,-5.3206,-5.3206,-5.3206,-5.3206,-5.3206,-5.3206,-5.3206,-5.3206,-5.3206,-5.3206,-5.3206,-5.3206,-5.3206,-5.3206,-5.3206,-5.3206,-5.3151,-5.2742,-5.2095,-5.1289,-5.049,-4.9701,-4.8967,-4.8489,-4.8324,-4.8324,-4.8324,-4.8306,-4.8214,-4.7974,-4.7441,-4.7,-4.6416,-4.544,-4.4706,-4.4358,-4.3809,-4.3534,-4.3497,-4.3479,-4.3479,-4.3479,-4.3479,-4.3479,-4.3479,-4.3548,-4.3809,-4.4202,-4.4374,-4.4669,-4.5023,-4.5216,-4.5277,-4.5277,-4.5277,-4.5277,-4.5277,-4.5277,-4.5277,-4.5277,-4.5277,-4.5277,-4.5277,-4.5277,-4.5297,-4.543,-4.5908,-4.6366,-4.6729,-4.7207,-4.778,-4.8239,-4.7914,-4.7723,-4.7837,-4.7952,-4.8067,-4.8697,-4.8926,-4.9423,-4.9901,-5.013,-5.0264,-5.0302,-5.0344,-5.0367,-5.0348,-5.0377,-5.0306,-5.0214,-4.9968,-4.9836,-4.9606,-4.9606,-4.9567,-4.8759,-4.7836,-4.7221,-4.6586,-4.6028,-4.5855,-4.5701,-4.5586,-4.5586,-4.5586,-4.5586,-4.5586,-4.5586,-4.5586,-4.5586,-5.3206,-5.3206,-5.3206,-5.3206,-5.3206,-5.3206,-5.3206,-5.3206,-5.3206,-5.3206,-5.3206,-5.3206,-5.3206,-5.3206,-5.3206,-5.3206,-5.3206,-5.3206,-5.3206,-5.3206,-5.3206,-5.3206,-5.317,-5.2724,-5.2009,-5.0875,-4.9958,-4.915,-4.8526,-4.8324,-4.8324,-4.8324,-4.8324,-4.8306,-4.8306,-4.7844,-4.7497,-4.702,-4.6324,-4.5516,-4.4745,-4.4323,-4.3791,-4.3571,-4.3479,-4.3479,-4.3479,-4.3682,-4.3716,-4.3763,-4.3873,-4.4053,-4.4355,-4.4519,-4.4838,-4.5173,-4.5277,-4.5277,-4.5277,-4.5277,-4.5277,-4.5277,-4.5277,-4.5277,-4.5277,-4.5277,-4.5277,-4.5277,-4.5335,-4.543,-4.5851,-4.6634,-4.715,-4.7723,-4.8105,-4.8754,-4.9308,-4.8926,-4.8602,-4.8831,-4.9079,-4.9251,-4.9519,-4.9519,-4.9671,-5.0149,-5.0168,-5.0302,-5.0302,-5.0325,-5.0348,-5.0371,-5.0457,-5.0481,-5.0523,-5.0469,-5.0509,-5.0356,-5.0298,-5.024,-4.9875,-4.8875,-4.7894,-4.7182,-4.6451,-4.6009,-4.5836,-4.572,-4.5586,-4.5586,-4.5586,-4.5586,-4.5586,-4.5586,-4.5586,-5.3206,-5.3206,-5.3206,-5.3206,-5.3206,-5.3206,-5.3206,-5.3206,-5.3206,-5.3206,-5.3206,-5.3206,-5.3206,-5.3206,-5.3206,-5.3206,-5.3206,-5.3206,-5.3206,-5.3206,-5.3206,-5.3206,-5.3151,-5.2821,-5.2123,-5.082,-5.0196,-4.937,-4.8563,-4.8324,-4.8324,-4.8324,-4.8324,-4.8324,-4.8306,-4.8269,-4.7994,-4.7443,-4.7038,-4.6414,-4.5333,-4.4875,-4.4232,-4.3626,-4.3615,-4.3615,-4.3682,-4.3892,-4.4079,-4.4079,-4.4336,-4.4438,-4.4519,-4.465,-4.4957,-4.5256,-4.5277,-4.5277,-4.5277,-4.5277,-4.5277,-4.5277,-4.5277,-4.5277,-4.5277,-4.5277,-4.5277,-4.5373,-4.5468,-4.5831,-4.6481,-4.7436,-4.8239,-4.8831,-4.9117,-4.9595,-4.9958,-4.9671,-4.9633,-4.9939,-4.9882,-4.992,-5.0034,-5.0092,-5.0225,-5.0302,-5.0302,-5.0302,-5.0302,-5.0325,-5.0348,-5.0393,-5.0478,-5.0582,-5.0623,-5.0604,-5.0683,-5.0683,-5.0683,-5.0644,-5.0567,-4.9933,-4.8856,-4.7644,-4.6913,-4.6432,-4.5951,-4.5682,-4.5586,-4.5586,-4.5586,-4.5586,-4.5586,-4.5586,-4.5586,-5.3206,-5.3206,-5.3206,-5.3206,-5.3206,-5.3206,-5.3206,-5.3206,-5.3206,-5.3206,-5.3206,-5.3206,-5.3206,-5.3206,-5.3206,-5.3206,-5.3206,-5.3206,-5.3206,-5.3206,-5.3206,-5.3188,-5.2986,-5.2532,-5.1746,-5.1022,-5.0453,-4.9664,-4.8618,-4.8324,-4.8324,-4.8324,-4.8324,-4.8324,-4.8324,-4.8306,-4.8251,-4.7939,-4.7514,-4.6927,-4.6377,-4.5315,-4.4358,-4.3676,-4.3749,-4.3878,-4.3986,-4.4162,-4.4318,-4.4346,-4.4599,-4.4701,-4.4751,-4.4819,-4.5,-4.5213,-4.5277,-4.5277,-4.5277,-4.5277,-4.5277,-4.5277,-4.5277,-4.5277,-4.5277,-4.5297,-4.5354,-4.5583,-4.5965,-4.6405,-4.6519,-4.7971,-4.8774,-4.9251,-4.9652,-5.0092,-5.0206,-5.0149,-5.0034,-5.0264,-5.0302,-5.0302,-5.0302,-5.0302,-5.0302,-5.0302,-5.0302,-5.0302,-5.0325,-5.0348,-5.039,-5.0435,-5.05,-5.0603,-5.0682,-5.0663,-5.0683,-5.0683,-5.0683,-5.0683,-5.0644,-5.0644,-4.9837,-4.8471,-4.7375,-4.6721,-4.624,-4.5797,-4.5586,-4.5586,-4.5586,-4.5586,-4.5586,-4.5586,-4.5586,-5.2821,-5.3206,-5.3206,-5.3206,-5.3206,-5.3206,-5.3206,-5.3206,-5.3206,-5.3206,-5.3206,-5.3206,-5.3206,-5.3206,-5.3206,-5.3206,-5.3206,-5.3206,-5.3206,-5.3206,-5.3206,-5.2913,-5.2656,-5.2132,-5.1268,-5.0493,-5.0086,-4.9572,-4.8416,-4.8324,-4.8324,-4.8324,-4.8324,-4.8324,-4.8324,-4.8324,-4.8324,-4.8176,-4.7919,-4.7476,-4.6998,-4.5535,-4.4448,-4.4022,-4.391,-4.4048,-4.4231,-4.4484,-4.4599,-4.4669,-4.4905,-4.5023,-4.5045,-4.5065,-4.5109,-4.5256,-4.5277,-4.5277,-4.5277,-4.5277,-4.5277,-4.5277,-4.5277,-4.5277,-4.5277,-4.5316,-4.5545,-4.6023,-4.6691,-4.7379,-4.7876,-4.8965,-4.9576,-4.9767,-5.0073,-5.0245,-5.0302,-5.0302,-5.0302,-5.0302,-5.0302,-5.0302,-5.0302,-5.0302,-5.0302,-5.0302,-5.0302,-5.0325,-5.0325,-5.0371,-5.0412,-5.0478,-5.0542,-5.0623,-5.0683,-5.0683,-5.0683,-5.0683,-5.0683,-5.0683,-5.0683,-5.0664,-5.0125,-4.9086,-4.8125,-4.7278,-4.6528,-4.6086,-4.5855,-4.5605,-4.5586,-4.5586,-4.5586,-4.5586,-4.5586,-5.2234,-5.2968,-5.2968,-5.3041,-5.3188,-5.3206,-5.3206,-5.3206,-5.3206,-5.3206,-5.3206,-5.3206,-5.3206,-5.3206,-5.3206,-5.3206,-5.3206,-5.3206,-5.3206,-5.3206,-5.3188,-5.2784,-5.2179,-5.1654,-5.1014,-4.9884,-4.9352,-4.8985,-4.8453,-4.8324,-4.8324,-4.8324,-4.8324,-4.8324,-4.8324,-4.8324,-4.8324,-4.8324,-4.8306,-4.7901,-4.6946,-4.5737,-4.4736,-4.4233,-4.4141,-4.4221,-4.4465,-4.4745,-4.4887,-4.4957,-4.5109,-4.5277,-4.5277,-4.5277,-4.5277,-4.5277,-4.5277,-4.5277,-4.5277,-4.5277,-4.5277,-4.5277,-4.5277,-4.5373,-4.5679,-4.5927,-4.6194,-4.6768,-4.7551,-4.8239,-4.8812,-4.9748,-5.0168,-5.0245,-5.0245,-5.0302,-5.0302,-5.0302,-5.0302,-5.0302,-5.0302,-5.0302,-5.0302,-5.0302,-5.0302,-5.0302,-5.0325,-5.0348,-5.0371,-5.0393,-5.0457,-5.0521,-5.0582,-5.0643,-5.0663,-5.0683,-5.0683,-5.0683,-5.0683,-5.0683,-5.0683,-5.0683,-5.0087,-4.9606,-4.8971,-4.8125,-4.7259,-4.6413,-4.6086,-4.5855,-4.5682,-4.5586,-4.5586,-4.5586,-4.5586,-5.1408,-5.2123,-5.2142,-5.2546,-5.3133,-5.317,-5.3206,-5.3206,-5.3206,-5.3206,-5.3206,-5.3206,-5.3206,-5.3206,-5.3206,-5.3206,-5.3206,-5.3206,-5.3206,-5.3206,-5.3072,-5.265,-5.1912,-5.1238,-5.0462,-4.9462,-4.882,-4.8471,-4.8324,-4.8324,-4.8324,-4.8324,-4.8324,-4.8324,-4.8324,-4.8324,-4.8324,-4.8324,-4.8324,-4.7939,-4.7112,-4.6214,-4.5598,-4.5045,-4.4718,-4.4522,-4.4783,-4.5023,-4.5173,-4.5194,-4.5256,-4.5277,-4.5277,-4.5277,-4.5277,-4.5277,-4.5277,-4.5277,-4.5277,-4.5277,-4.5277,-4.5277,-4.5277,-4.5679,-4.6156,-4.6882,-4.7322,-4.7608,-4.8391,-4.8926,-4.9289,-4.9862,-5.0187,-5.0302,-5.0302,-5.0302,-5.0302,-5.0302,-5.0302,-5.0302,-5.0302,-5.0302,-5.0321,-5.0302,-5.0302,-5.0325,-5.0348,-5.0371,-5.0416,-5.0478,-5.05,-5.0582,-5.0623,-5.0663,-5.0683,-5.0683,-5.0683,-5.0683,-5.0683,-5.0683,-5.0683,-5.0683,-5.0683,-5.0183,-4.9567,-4.8702,-4.7548,-4.6797,-4.6374,-4.6047,-4.5817,-4.5682,-4.5586,-4.5586,-4.5586,-5.016,-5.1298,-5.1316,-5.1793,-5.2491,-5.2509,-5.2784,-5.3151,-5.3206,-5.3206,-5.3206,-5.3206,-5.3206,-5.3206,-5.3206,-5.3206,-5.3206,-5.3206,-5.3206,-5.3017,-5.276,-5.2132,-5.1252,-5.0496,-4.9689,-4.8985,-4.8563,-4.8416,-4.8324,-4.8324,-4.8324,-4.8324,-4.8324,-4.8324,-4.8324,-4.8324,-4.8324,-4.8324,-4.8269,-4.7902,-4.7261,-4.6872,-4.6409,-4.5499,-4.5396,-4.5262,-4.5156,-4.5194,-4.5277,-4.5277,-4.5277,-4.5277,-4.5277,-4.5277,-4.5277,-4.5277,-4.5277,-4.5277,-4.5277,-4.5277,-4.5277,-4.5316,-4.5373,-4.566,-4.6443,-4.7341,-4.8143,-4.8525,-4.8831,-4.9251,-4.9652,-5.0073,-5.0206,-5.0302,-5.0302,-5.0302,-5.0302,-5.0302,-5.0302,-5.0302,-5.0302,-5.0325,-5.0344,-5.0325,-5.0348,-5.039,-5.0412,-5.0435,-5.05,-5.0603,-5.0623,-5.0663,-5.0663,-5.0683,-5.0683,-5.0683,-5.0683,-5.0683,-5.0683,-5.0683,-5.0683,-5.0683,-5.0683,-5.0683,-5.0298,-4.924,-4.7913,-4.7163,-4.6721,-4.6317,-4.5932,-4.5759,-4.5586,-4.5586,-4.5586,-4.904,-5.0178,-5.0417,-5.0949,-5.1701,-5.1903,-5.2344,-5.2871,-5.3109,-5.3206,-5.3206,-5.3206,-5.3206,-5.3206,-5.3206,-5.3206,-5.3206,-5.3206,-5.3206,-5.2926,-5.2388,-5.1614,-5.089,-5.0037,-4.9173,-4.8324,-4.8379,-4.8324,-4.8324,-4.8324,-4.8324,-4.8324,-4.8324,-4.8324,-4.8324,-4.8324,-4.8324,-4.8306,-4.844,-4.8162,-4.7702,-4.7649,-4.7193,-4.6629,-4.6176,-4.595,-4.5636,-4.5335,-4.5277,-4.5277,-4.5277,-4.5277,-4.5277,-4.5277,-4.5277,-4.5277,-4.5277,-4.5277,-4.5277,-4.5277,-4.5277,-4.5411,-4.5927,-4.6519,-4.7264,-4.7952,-4.8602,-4.9366,-4.9423,-4.9786,-5.013,-5.0283,-5.0283,-5.0302,-5.0302,-5.0302,-5.0302,-5.0302,-5.0302,-5.0302,-5.0325,-5.0367,-5.0348,-5.0371,-5.0371,-5.0435,-5.0457,-5.0519,-5.0582,-5.0663,-5.0663,-5.0702,-5.0702,-5.0683,-5.0683,-5.0683,-5.0683,-5.0683,-5.0683,-5.0683,-5.0683,-5.0683,-5.0683,-5.0683,-5.0683,-4.9913,-4.8663,-4.7836,-4.7028,-4.6336,-4.5759,-4.5682,-4.5586,-4.5586,-4.5586,-4.8379,-4.8526,-4.9352,-5.0141,-5.093,-5.1701,-5.199,-5.2145,-5.2834,-5.3078,-5.3096,-5.317,-5.3115,-5.3206,-5.3206,-5.3206,-5.3206,-5.3206,-5.3206,-5.2926,-5.237,-5.1527,-5.0688,-4.9887,-4.9081,-4.8434,-4.8324,-4.8324,-4.8324,-4.8324,-4.8324,-4.8324,-4.8324,-4.8324,-4.8324,-4.8324,-4.8365,-4.844,-4.859,-4.8725,-4.8487,-4.8352,-4.8144,-4.7926,-4.698,-4.6197,-4.6364,-4.5793,-4.5449,-4.5449,-4.5335,-4.5277,-4.5277,-4.5277,-4.5277,-4.5277,-4.5277,-4.5277,-4.5277,-4.5297,-4.5316,-4.5736,-4.6615,-4.7761,-4.8391,-4.95,-5.0111,-5.0054,-4.9977,-5.0092,-5.0264,-5.0302,-5.0302,-5.0302,-5.0302,-5.0302,-5.0302,-5.0302,-5.0302,-5.0302,-5.0367,-5.039,-5.0435,-5.0457,-5.0438,-5.05,-5.0562,-5.0582,-5.0623,-5.0683,-5.0683,-5.0683,-5.0683,-5.0683,-5.0683,-5.0683,-5.0683,-5.0683,-5.0683,-5.0683,-5.0683,-5.0683,-5.0683,-5.0683,-5.0625,-5.0048,-4.9433,-4.8394,-4.7336,-4.6201,-4.5605,-4.5586,-4.5586,-4.5586,-4.5586,-4.8324,-4.8343,-4.8673,-4.9279,-5.0068,-5.038,-5.0812,-5.1255,-5.1582,-5.2032,-5.2472,-5.2472,-5.2747,-5.3078,-5.3206,-5.3206,-5.3206,-5.3206,-5.3206,-5.2718,-5.1998,-5.1193,-5.0431,-4.9612,-4.862,-4.8361,-4.8324,-4.8324,-4.8324,-4.8324,-4.8324,-4.8324,-4.8324,-4.8324,-4.8324,-4.8326,-4.8403,-4.8571,-4.8725,-4.8858,-4.909,-4.916,-4.8975,-4.8469,-4.8471,-4.7647,-4.7261,-4.6481,-4.6156,-4.5889,-4.5545,-4.5392,-4.5297,-4.5277,-4.5277,-4.5277,-4.5277,-4.5316,-4.5354,-4.5373,-4.5488,-4.6347,-4.7551,-4.8754,-4.9175,-4.9862,-5.0225,-5.0283,-5.0302,-5.0302,-5.0302,-5.0302,-5.0302,-5.0302,-5.0302,-5.0302,-5.0302,-5.0302,-5.0325,-5.039,-5.0412,-5.0435,-5.0498,-5.0562,-5.0562,-5.0582,-5.0623,-5.0663,-5.0683,-5.0683,-5.0683,-5.0683,-5.0683,-5.0683,-5.0683,-5.0683,-5.0683,-5.0683,-5.0683,-5.0683,-5.0683,-5.0683,-5.0683,-5.0683,-5.0587,-5.0125,-4.951,-4.8682,-4.7682,-4.6586,-4.5932,-4.5586,-4.5586,-4.5586,-4.562,-4.8324,-4.8324,-4.8324,-4.8636,-4.9205,-4.9462,-4.99,-5.0424,-5.0739,-5.1077,-5.165,-5.1646,-5.2087,-5.2674,-5.2821,-5.3041,-5.3133,-5.3206,-5.3206,-5.2608,-5.1742,-5.0955,-5.0248,-4.937,-4.8398,-4.8324,-4.8324,-4.8324,-4.8324,-4.8324,-4.8324,-4.8324,-4.8324,-4.8324,-4.8324,-4.8326,-4.8439,-4.8602,-4.8897,-4.8945,-4.9208,-4.9485,-4.9485,-4.8889,-4.877,-4.8533,-4.7933,-4.7293,-4.6729,-4.6385,-4.6003,-4.5583,-4.5392,-4.5277,-4.5297,-4.5277,-4.5316,-4.5373,-4.5602,-4.5717,-4.6175,-4.7379,-4.822,-4.906,-4.9538,-4.9996,-5.0264,-5.0302,-5.0302,-5.0302,-5.0302,-5.0302,-5.0302,-5.0302,-5.0302,-5.0302,-5.0325,-5.0348,-5.039,-5.0435,-5.0457,-5.0519,-5.0521,-5.0603,-5.0623,-5.0623,-5.0643,-5.0663,-5.0683,-5.0683,-5.0683,-5.0683,-5.0683,-5.0683,-5.0683,-5.0683,-5.0683,-5.0683,-5.0683,-5.0683,-5.0683,-5.0683,-5.0683,-5.0683,-5.0529,-5.0221,-4.9548,-4.8682,-4.7855,-4.7009,-4.6336,-4.5586,-4.5586,-4.5603,-4.5654,-4.8324,-4.8324,-4.8324,-4.8343,-4.8508,-4.9224,-4.9575,-4.9685,-5.0285,-5.0692,-5.0809,-5.0824,-5.1261,-5.1903,-5.2105,-5.2491,-5.2968,-5.3133,-5.3206,-5.2797,-5.16,-5.0922,-5.0211,-4.9315,-4.8324,-4.8324,-4.8324,-4.8324,-4.8324,-4.8324,-4.8324,-4.8324,-4.8324,-4.8324,-4.8324,-4.8324,-4.8306,-4.8421,-4.8956,-4.9025,-4.9127,-4.9483,-4.9428,-4.9315,-4.9029,-4.8821,-4.8675,-4.8109,-4.757,-4.7054,-4.6538,-4.6042,-4.5564,-4.5373,-4.5297,-4.5277,-4.5354,-4.5755,-4.6405,-4.6481,-4.7322,-4.843,-4.906,-4.948,-5.0034,-5.0302,-5.0302,-5.0302,-5.0302,-5.0302,-5.0302,-5.0302,-5.0302,-5.0302,-5.0302,-5.0302,-5.0325,-5.0348,-5.039,-5.0435,-5.0519,-5.0582,-5.0623,-5.0643,-5.0663,-5.0683,-5.0683,-5.0683,-5.0683,-5.0683,-5.0683,-5.0683,-5.0683,-5.0683,-5.0683,-5.0683,-5.0683,-5.0683,-5.0683,-5.0683,-5.0683,-5.0683,-5.0683,-5.0683,-5.0548,-5.0337,-4.9548,-4.8663,-4.7663,-4.6663,-4.6124,-4.5586,-4.5586,-4.5637,-4.5684,-4.8324,-4.8324,-4.8324,-4.8324,-4.8361,-4.86,-4.8767,-4.8803,-4.9058,-4.9483,-4.9908,-4.9997,-5.0435,-5.1114,-5.172,-5.2068,-5.2399,-5.3096,-5.3206,-5.2949,-5.1454,-5.1,-5.0266,-4.9242,-4.8343,-4.8324,-4.8324,-4.8324,-4.8324,-4.8324,-4.8324,-4.8324,-4.8324,-4.8324,-4.8324,-4.8344,-4.8365,-4.862,-4.8874,-4.9005,-4.9132,-4.9363,-4.9512,-4.957,-4.938,-4.9383,-4.9537,-4.8895,-4.843,-4.7876,-4.7341,-4.6443,-4.6003,-4.5793,-4.5373,-4.5507,-4.5717,-4.6806,-4.7742,-4.8277,-4.843,-4.9098,-4.9576,-4.992,-5.0283,-5.0302,-5.0302,-5.0302,-5.0302,-5.0302,-5.0302,-5.0302,-5.0302,-5.0302,-5.0302,-5.0302,-5.0325,-5.0325,-5.0344,-5.039,-5.0476,-5.0562,-5.0603,-5.0643,-5.0683,-5.0683,-5.0683,-5.0683,-5.0683,-5.0683,-5.0683,-5.0683,-5.0683,-5.0683,-5.0683,-5.0683,-5.0683,-5.0683,-5.0683,-5.0683,-5.0683,-5.0683,-5.0683,-5.0683,-5.0587,-5.0414,-4.926,-4.8125,-4.7086,-4.622,-4.5832,-4.5637,-4.5618,-4.5684,-4.5757,-4.8049,-4.8306,-4.8324,-4.8324,-4.8324,-4.8324,-4.8324,-4.8324,-4.8324,-4.8638,-4.9081,-4.9171,-4.9591,-5.0325,-5.0875,-5.1444,-5.1591,-5.205,-5.2362,-5.2197,-5.1037,-5.0468,-4.9863,-4.9074,-4.8453,-4.8324,-4.8324,-4.8324,-4.8324,-4.8324,-4.8324,-4.8324,-4.8324,-4.8324,-4.8324,-4.8326,-4.8365,-4.855,-4.8697,-4.8844,-4.8959,-4.9145,-4.9345,-4.9453,-4.9589,-4.9846,-4.9923,-4.9716,-4.9347,-4.8793,-4.7933,-4.6978,-4.671,-4.6252,-4.5927,-4.6252,-4.7016,-4.7971,-4.8716,-4.9385,-4.9423,-4.9595,-5.0073,-5.0264,-5.0302,-5.0302,-5.0302,-5.0302,-5.0302,-5.0302,-5.0302,-5.0302,-5.0302,-5.0302,-5.0302,-5.0302,-5.0325,-5.0325,-5.039,-5.0435,-5.0476,-5.0521,-5.0584,-5.0643,-5.0683,-5.0683,-5.0683,-5.0683,-5.0683,-5.0683,-5.0683,-5.0683,-5.0683,-5.0683,-5.0683,-5.0683,-5.0683,-5.0683,-5.0683,-5.0683,-5.0683,-5.0683,-5.0683,-5.0587,-5.026,-4.9702,-4.8625,-4.7567,-4.6701,-4.6121,-4.5786,-4.5668,-4.5668,-4.5742,-4.5822,-4.7553,-4.8214,-4.8251,-4.8251,-4.8306,-4.8324,-4.8324,-4.8324,-4.8324,-4.8343,-4.8361,-4.8416,-4.8838,-4.9444,-4.9646,-5.0123,-5.0765,-5.0912,-5.1077,-5.082,-5.0233,-4.99,-4.9456,-4.8799,-4.8416,-4.8324,-4.8324,-4.8324,-4.8324,-4.8324,-4.8324,-4.8324,-4.8324,-4.8324,-4.8324,-4.8361,-4.8363,-4.8456,-4.8624,-4.8679,-4.8765,-4.9048,-4.919,-4.9363,-4.9541,-4.9811,-4.9968,-4.9992,-4.9744,-4.9175,-4.8353,-4.8009,-4.757,-4.6997,-4.7245,-4.7761,-4.8563,-4.8888,-4.9308,-4.9901,-5.0073,-5.0073,-5.0206,-5.0302,-5.0302,-5.0302,-5.0302,-5.0302,-5.0302,-5.0302,-5.0302,-5.0302,-5.0302,-5.0302,-5.0302,-5.0325,-5.0371,-5.0412,-5.0457,-5.0519,-5.0562,-5.0603,-5.0643,-5.0663,-5.0683,-5.0683,-5.0683,-5.0683,-5.0683,-5.0683,-5.0683,-5.0683,-5.0683,-5.0683,-5.0683,-5.0683,-5.0683,-5.0683,-5.0683,-5.0683,-5.0683,-5.0683,-5.0683,-5.0452,-4.9798,-4.899,-4.7932,-4.7144,-4.6508,-4.6059,-4.5754,-4.5727,-4.5727,-4.5815,-4.5914,-4.6709,-4.7443,-4.7462,-4.7774,-4.8288,-4.8324,-4.8324,-4.8324,-4.8324,-4.8324,-4.8324,-4.8324,-4.8508,-4.871,-4.9297,-4.9682,-5.0068,-5.0472,-5.0765,-5.0453,-4.9793,-4.9661,-4.9255,-4.8744,-4.8416,-4.8324,-4.8324,-4.8324,-4.8324,-4.8324,-4.8324,-4.8324,-4.8324,-4.8324,-4.8418,-4.8546,-4.8473,-4.8495,-4.8709,-4.8725,-4.8797,-4.9094,-4.9252,-4.9512,-4.9674,-4.991,-5.012,-5.0212,-5.0054,-4.9843,-4.9117,-4.8735,-4.8678,-4.7971,-4.7799,-4.8582,-4.9022,-4.9308,-4.9862,-5.0168,-5.0302,-5.0302,-5.0302,-5.0302,-5.0302,-5.0302,-5.0302,-5.0302,-5.0302,-5.0302,-5.0302,-5.0302,-5.0302,-5.0302,-5.0302,-5.0325,-5.0371,-5.0393,-5.0457,-5.054,-5.0582,-5.0623,-5.0663,-5.0683,-5.0683,-5.0683,-5.0683,-5.0683,-5.0683,-5.0683,-5.0683,-5.0683,-5.0683,-5.0683,-5.0683,-5.0683,-5.0683,-5.0683,-5.0683,-5.0683,-5.0683,-5.0683,-5.0683,-5.0202,-4.9356,-4.8336,-4.724,-4.6604,-4.6116,-4.602,-4.5786,-4.58,-4.5827,-4.5902,-4.5998,-4.5902,-4.6599,-4.6636,-4.7095,-4.781,-4.8177,-4.8324,-4.8324,-4.8324,-4.8324,-4.8324,-4.8324,-4.8324,-4.8398,-4.882,-4.9077,-4.9114,-4.9407,-4.9664,-4.9517,-4.9389,-4.9111,-4.8818,-4.8616,-4.8398,-4.8324,-4.8324,-4.8324,-4.8324,-4.8324,-4.8324,-4.8324,-4.8324,-4.8402,-4.8513,-4.866,-4.8753,-4.8818,-4.8903,-4.8963,-4.9115,-4.9314,-4.9599,-4.9784,-4.9884,-5.012,-5.0259,-5.0302,-5.0302,-5.0187,-4.9519,-4.9308,-4.9404,-4.9079,-4.8888,-4.9538,-4.9633,-4.9843,-5.0168,-5.0245,-5.0302,-5.0302,-5.0302,-5.0302,-5.0302,-5.0302,-5.0302,-5.0302,-5.0302,-5.0302,-5.0302,-5.0302,-5.0302,-5.0302,-5.0302,-5.0325,-5.0348,-5.0371,-5.0457,-5.054,-5.0603,-5.0642,-5.0682,-5.0683,-5.0683,-5.0683,-5.0683,-5.0683,-5.0683,-5.0683,-5.0683,-5.0683,-5.0683,-5.0683,-5.0683,-5.0683,-5.0683,-5.0683,-5.0683,-5.0683,-5.0683,-5.0529,-5.0394,-4.9683,-4.8759,-4.774,-4.6738,-4.6227,-4.5808,-4.578,-4.5866,-4.5936,-4.5968,-4.5998,-4.6084,-4.5076,-4.581,-4.5865,-4.6434,-4.7168,-4.7884,-4.8214,-4.8324,-4.8324,-4.8324,-4.8324,-4.8324,-4.8324,-4.8343,-4.8489,-4.8489,-4.8526,-4.8673,-4.8765,-4.8379,-4.8563,-4.8526,-4.8508,-4.8324,-4.8324,-4.8324,-4.8324,-4.8324,-4.8324,-4.8324,-4.8324,-4.8324,-4.8324,-4.8439,-4.8714,-4.8862,-4.9002,-4.9277,-4.9337,-4.9426,-4.9445,-4.9627,-4.9857,-4.991,-5.0076,-5.0302,-5.0302,-5.0302,-5.0302,-5.0034,-4.9843,-4.9671,-4.992,-5.0111,-5.0149,-5.0149,-5.0111,-5.0168,-5.0264,-5.0302,-5.0302,-5.0302,-5.0302,-5.0302,-5.0302,-5.0302,-5.0302,-5.0302,-5.0302,-5.0302,-5.0302,-5.0302,-5.0302,-5.0325,-5.0325,-5.0371,-5.0457,-5.0478,-5.0521,-5.0603,-5.0643,-5.0682,-5.0663,-5.0683,-5.0683,-5.0683,-5.0683,-5.0683,-5.0683,-5.0683,-5.0683,-5.0683,-5.0683,-5.0683,-5.0683,-5.0683,-5.0683,-5.0683,-5.0683,-5.0683,-5.0683,-5.0414,-5.0048,-4.9221,-4.8336,-4.7295,-4.6386,-4.5966,-4.578,-4.5871,-4.5959,-4.6068,-4.6105,-4.6112,-4.615,-4.4268,-4.5039,-4.5645,-4.6379,-4.7039,-4.7315,-4.7755,-4.8306,-4.8324,-4.8288,-4.8324,-4.8324,-4.8324,-4.8324,-4.8324,-4.8324,-4.8324,-4.8324,-4.8324,-4.8324,-4.8324,-4.8324,-4.8324,-4.8324,-4.8324,-4.8324,-4.8324,-4.8324,-4.8324,-4.8324,-4.8324,-4.8306,-4.8344,-4.8532,-4.885,-4.9015,-4.934,-4.9674,-4.983,-4.9811,-4.973,-4.9955,-5.0169,-5.0169,-5.0302,-5.0302,-5.0302,-5.0302,-5.0302,-5.0206,-5.0149,-5.0149,-5.0283,-5.0302,-5.0302,-5.0302,-5.0302,-5.0302,-5.0302,-5.0302,-5.0302,-5.0302,-5.0302,-5.0302,-5.0302,-5.0302,-5.0302,-5.0302,-5.0302,-5.0302,-5.0302,-5.0283,-5.0306,-5.0348,-5.0371,-5.0457,-5.054,-5.0582,-5.0623,-5.0643,-5.0683,-5.0683,-5.0683,-5.0683,-5.0683,-5.0683,-5.0683,-5.0683,-5.0683,-5.0683,-5.0683,-5.0683,-5.0683,-5.0683,-5.0683,-5.0683,-5.0683,-5.0683,-5.0683,-5.0683,-5.0683,-5.0317,-4.9875,-4.8875,-4.7913,-4.7003,-4.6317,-4.5965,-4.5841,-4.5949,-4.6052,-4.6138,-4.6211,-4.6216,-4.6245,-4.3754,-4.425,-4.5039,-4.5626,-4.6049,-4.6416,-4.702,-4.7661,-4.7772,-4.7976,-4.8288,-4.8324,-4.8306,-4.8306,-4.8324,-4.8324,-4.8324,-4.8324,-4.8324,-4.8324,-4.8324,-4.8324,-4.8324,-4.8324,-4.8324,-4.8324,-4.8324,-4.8324,-4.8324,-4.8324,-4.8324,-4.8344,-4.8439,-4.8694,-4.9001,-4.9365,-4.9673,-5.0025,-5.0212,-5.0169,-5.0006,-5.0169,-5.0302,-5.0302,-5.0302,-5.0302,-5.0302,-5.0302,-5.0302,-5.0302,-5.0264,-5.0245,-5.0302,-5.0302,-5.0302,-5.0302,-5.0302,-5.0302,-5.0302,-5.0302,-5.0302,-5.0302,-5.0302,-5.0302,-5.0302,-5.0302,-5.0302,-5.0302,-5.0302,-5.0302,-5.0302,-5.0325,-5.0348,-5.0371,-5.0416,-5.05,-5.0582,-5.0623,-5.0643,-5.0663,-5.0683,-5.0683,-5.0683,-5.0683,-5.0683,-5.0683,-5.0683,-5.0683,-5.0683,-5.0683,-5.0683,-5.0683,-5.0683,-5.0683,-5.0683,-5.0683,-5.0683,-5.0683,-5.0683,-5.0683,-5.0644,-5.0221,-4.9663,-4.8663,-4.7754,-4.695,-4.6351,-4.5996,-4.5917,-4.6024,-4.6131,-4.6216,-4.6273,-4.63,-4.63,-4.3497,-4.3608,-4.425,-4.4635,-4.48,-4.5443,-4.6214,-4.6853,-4.6965,-4.7387,-4.8011,-4.8047,-4.8177,-4.8306,-4.8324,-4.8324,-4.8324,-4.8324,-4.8324,-4.8324,-4.8324,-4.8324,-4.8324,-4.8324,-4.8324,-4.8324,-4.8324,-4.8324,-4.8324,-4.8306,-4.8344,-4.8402,-4.8658,-4.9001,-4.9334,-4.9649,-4.992,-5.0127,-5.0302,-5.0302,-5.0278,-5.0302,-5.0302,-5.0302,-5.0302,-5.0302,-5.0302,-5.0302,-5.0302,-5.0302,-5.0302,-5.0302,-5.0302,-5.0302,-5.0302,-5.0302,-5.0302,-5.0302,-5.0302,-5.0302,-5.0302,-5.0302,-5.0302,-5.0302,-5.0302,-5.0302,-5.0302,-5.0325,-5.0325,-5.0325,-5.0325,-5.0371,-5.0393,-5.0435,-5.05,-5.0542,-5.0603,-5.0663,-5.0663,-5.0683,-5.0683,-5.0683,-5.0683,-5.0683,-5.0683,-5.0683,-5.0683,-5.0683,-5.0683,-5.0683,-5.0683,-5.0683,-5.0683,-5.0683,-5.0683,-5.0683,-5.0683,-5.0683,-5.0683,-5.0683,-5.0548,-5.0087,-4.9432,-4.8465,-4.7571,-4.683,-4.6383,-4.6017,-4.6041,-4.6112,-4.6181,-4.6269,-4.6273,-4.63,-4.63,-4.3479,-4.3516,-4.3663,-4.4085,-4.4672,-4.4892,-4.5406,-4.6049,-4.6159,-4.6599,-4.7184,-4.7387,-4.7645,-4.8306,-4.8324,-4.8324,-4.8324,-4.8324,-4.8324,-4.8324,-4.8324,-4.8324,-4.8324,-4.8324,-4.8324,-4.8324,-4.8324,-4.8324,-4.8344,-4.8326,-4.8458,-4.8694,-4.8746,-4.9099,-4.9627,-4.9882,-5.0005,-5.022,-5.0302,-5.0302,-5.0302,-5.0302,-5.0302,-5.0302,-5.0302,-5.0302,-5.0302,-5.0302,-5.0302,-5.0302,-5.0302,-5.0302,-5.0302,-5.0302,-5.0302,-5.0302,-5.0302,-5.0302,-5.0302,-5.0302,-5.0302,-5.0302,-5.0302,-5.0283,-5.0302,-5.0302,-5.0325,-5.0371,-5.0371,-5.0371,-5.0393,-5.0438,-5.0478,-5.0562,-5.0603,-5.0623,-5.0663,-5.0683,-5.0683,-5.0683,-5.0683,-5.0683,-5.0683,-5.0683,-5.0683,-5.0683,-5.0683,-5.0683,-5.0683,-5.0683,-5.0683,-5.0683,-5.0683,-5.0683,-5.0683,-5.0683,-5.0683,-5.0683,-5.0683,-5.0683,-5.0452,-4.9875,-4.9124,-4.8343,-4.7526,-4.6765,-4.6357,-4.6049,-4.6138,-4.6211,-4.6245,-4.63,-4.63,-4.63,-4.63]}]]